Darstellungsparameter: Aktuell verwendete Einstellungen:
Skalierung der Graphiken ... ?
xyx+y,   Skalierungsfaktor:      Skalierung: Modus: x, Faktor: 1
Darstellungszeitraum ... ?
Vom - - bis: - -   Zeitraum: 16.02.2019 - 15.08.2019
Min/Max/Avg-Anzeige ... ?
Zeige MMA aktuell
Zeige MMA Monat
Zeige MMA alles
Zeige --A aktuell
Zeige --A Monat
Zeige --A alles
Keine MMA-Anzeige
MMA:
Minimum Maximum Average (ber die Originaldaten)
MMA-Basis: 16.02.2019 - 15.08.2019
Quicknavigation für Darstellung... ?
Tage:      1T, 2T, 3T, 5T -1T -2T -3T -5T +1T +2T +3T +5T
Wochen: 1W, 2W, 3W -1W -2W -3W +1W +2W +3W
Monate: 1M, 3M, 6M -1M -3M -6M +1M +3M +6M
Jahre:    1J, 3J, 5J, 10J -1J -3J -5J -10J +1J +3J +5J +10J
Nutze für die Darstellung ... ?
Originaldaten oder ...
Mittelwerte Minima Maxima auf...
Stundenbasis Tagesbasis Wochenbasis
Monatsbasis Jahresbasis      Datenbasis: Mittelwerte auf Stundenbasis
Darstellen als:
Statistik (Auto) Statistik J:M      Darstellung:
Zur Graphik,    zurück zur Übersicht aller Sensoren.
 
Tabellarische Datenbersicht: ?
 
Sensor: Nr:Datum:Temp:Feuchte:Taupunkt:
Aussen-T/F 1 16-02-2019 00:00:00 0.41667 C 92.8333 % -0.6 C
2 16-02-2019 01:00:00 -0.15 C 93.8333 % -1.02 C
3 16-02-2019 02:00:00 -0.48333 C 94.4167 % -1.27 C
4 16-02-2019 03:00:00 -0.75833 C 94.7500 % -1.49 C
5 16-02-2019 04:00:00 -0.925 C 95.0000 % -1.62 C
6 16-02-2019 05:00:00 -1.11667 C 95.3333 % -1.77 C
7 16-02-2019 06:00:00 -1.20833 C 95.4167 % -1.85 C
8 16-02-2019 07:00:00 -1.64167 C 95.0000 % -2.34 C
9 16-02-2019 08:00:00 -1.78333 C 95.5000 % -2.41 C
10 16-02-2019 09:00:00 -1.09167 C 96.0000 % -1.65 C
11 16-02-2019 10:00:00 -0.225 C 96.4167 % -0.72 C
12 16-02-2019 11:00:00 2.175 C 97.0000 % 1.75 C
13 16-02-2019 12:00:00 4.96667 C 96.9167 % 4.52 C
14 16-02-2019 13:00:00 7.85833 C 90.0000 % 6.32 C
15 16-02-2019 14:00:00 10.66667 C 77.0833 % 6.82 C
16 16-02-2019 15:00:00 11.75833 C 69.8333 % 6.44 C
17 16-02-2019 16:00:00 11.88333 C 67.2500 % 6.01 C
18 16-02-2019 17:00:00 10.69167 C 70.0000 % 5.45 C
19 16-02-2019 18:00:00 8.74167 C 76.4167 % 4.83 C
20 16-02-2019 19:00:00 7.29167 C 81.0833 % 4.27 C
21 16-02-2019 20:00:00 5.41667 C 84.2500 % 2.98 C
22 16-02-2019 21:00:00 3.75833 C 88.5833 % 2.05 C
23 16-02-2019 22:00:00 2.8 C 91.2500 % 1.52 C
24 16-02-2019 23:00:00 1.95833 C 93.0000 % 0.95 C
25 17-02-2019 00:00:00 1.55 C 94.0000 % 0.69 C
Sensor: Nr:Datum:Temp:Feuchte:Taupunkt:
Aussen-T/F 26 17-02-2019 01:00:00 0.86667 C 94.3333 % 0.06 C
27 17-02-2019 02:00:00 0.34167 C 95.0000 % -0.36 C
28 17-02-2019 03:00:00 0.09167 C 95.3333 % -0.56 C
29 17-02-2019 04:00:00 -0.36667 C 95.3333 % -1.02 C
30 17-02-2019 05:00:00 -0.85833 C 95.5833 % -1.47 C
31 17-02-2019 06:00:00 -0.975 C 96.0000 % -1.53 C
32 17-02-2019 07:00:00 -1.25 C 96.0000 % -1.8 C
33 17-02-2019 08:00:00 -1.33333 C 96.0000 % -1.89 C
34 17-02-2019 09:00:00 -0.81667 C 96.0000 % -1.37 C
35 17-02-2019 10:00:00 -0.16667 C 96.6667 % -0.63 C
36 17-02-2019 11:00:00 1.93333 C 97.0000 % 1.51 C
37 17-02-2019 12:00:00 4.73333 C 97.4167 % 4.36 C
38 17-02-2019 13:00:00 7.51667 C 96.5833 % 7.01 C
39 17-02-2019 14:00:00 9.76667 C 86.2500 % 7.58 C
40 17-02-2019 15:00:00 11.19167 C 77.2500 % 7.36 C
41 17-02-2019 16:00:00 11.94167 C 71.1667 % 6.89 C
42 17-02-2019 17:00:00 11 C 72.5000 % 6.25 C
43 17-02-2019 18:00:00 8.59167 C 76.3333 % 4.67 C
44 17-02-2019 19:00:00 6.73333 C 80.1667 % 3.56 C
45 17-02-2019 20:00:00 4.69167 C 84.5833 % 2.32 C
46 17-02-2019 21:00:00 3.65 C 87.4167 % 1.76 C
47 17-02-2019 22:00:00 2.375 C 89.5833 % 0.84 C
48 17-02-2019 23:00:00 1.7 C 91.6667 % 0.49 C
49 18-02-2019 00:00:00 1.46667 C 91.6667 % 0.26 C
50 18-02-2019 01:00:00 0.49167 C 92.5833 % -0.57 C
Sensor: Nr:Datum:Temp:Feuchte:Taupunkt:
Aussen-T/F 51 18-02-2019 02:00:00 0.08333 C 93.7500 % -0.8 C
52 18-02-2019 03:00:00 -0.41667 C 94.0833 % -1.25 C
53 18-02-2019 04:00:00 -0.775 C 94.5833 % -1.53 C
54 18-02-2019 05:00:00 -1.21667 C 95.0000 % -1.91 C
55 18-02-2019 06:00:00 -1.475 C 95.0000 % -2.17 C
56 18-02-2019 07:00:00 -1.65 C 95.0833 % -2.33 C
57 18-02-2019 08:00:00 -1.63333 C 95.4167 % -2.27 C
58 18-02-2019 09:00:00 -0.56667 C 96.0000 % -1.12 C
59 18-02-2019 10:00:00 0.19167 C 96.1667 % -0.35 C
60 18-02-2019 11:00:00 2.84167 C 96.6667 % 2.37 C
61 18-02-2019 12:00:00 6.04167 C 92.9167 % 4.98 C
62 18-02-2019 13:00:00 9.59167 C 80.4167 % 6.39 C
63 18-02-2019 14:00:00 11.34167 C 72.0000 % 6.48 C
64 18-02-2019 15:00:00 12.05833 C 66.9167 % 6.11 C
65 18-02-2019 16:00:00 11.84167 C 64.5833 % 5.39 C
66 18-02-2019 17:00:00 10.425 C 69.5833 % 5.11 C
67 18-02-2019 18:00:00 8.41667 C 74.7500 % 4.2 C
68 18-02-2019 19:00:00 7 C 80.0000 % 3.79 C
69 18-02-2019 20:00:00 5.65833 C 81.3333 % 2.72 C
70 18-02-2019 21:00:00 4.1 C 86.0000 % 1.97 C
71 18-02-2019 22:00:00 2.76667 C 88.7500 % 1.1 C
72 18-02-2019 23:00:00 2.13333 C 90.8333 % 0.8 C
73 19-02-2019 00:00:00 1.725 C 92.0833 % 0.58 C
74 19-02-2019 01:00:00 1.83333 C 92.8333 % 0.8 C
75 19-02-2019 02:00:00 1.85 C 93.2500 % 0.88 C
Sensor: Nr:Datum:Temp:Feuchte:Taupunkt:
Aussen-T/F 76 19-02-2019 03:00:00 2.34167 C 94.5000 % 1.55 C
77 19-02-2019 04:00:00 3.7 C 94.0833 % 2.84 C
78 19-02-2019 05:00:00 4.04167 C 90.8333 % 2.68 C
79 19-02-2019 06:00:00 4.99167 C 87.7500 % 3.13 C
80 19-02-2019 07:00:00 5.2 C 90.1667 % 3.72 C
81 19-02-2019 08:00:00 4.89167 C 92.9167 % 3.84 C
82 19-02-2019 09:00:00 5.25 C 94.8333 % 4.49 C
83 19-02-2019 10:00:00 6.34167 C 94.2500 % 5.49 C
84 19-02-2019 11:00:00 7.28333 C 92.6667 % 6.18 C
85 19-02-2019 12:00:00 8.71667 C 87.9167 % 6.83 C
86 19-02-2019 13:00:00 9.94167 C 80.0833 % 6.67 C
87 19-02-2019 14:00:00 10.65 C 74.5000 % 6.31 C
88 19-02-2019 15:00:00 10.94167 C 72.5000 % 6.2 C
89 19-02-2019 16:00:00 10.9 C 72.1667 % 6.09 C
90 19-02-2019 17:00:00 9.69167 C 74.5833 % 5.4 C
91 19-02-2019 18:00:00 7.28333 C 83.0833 % 4.61 C
92 19-02-2019 19:00:00 6.225 C 87.0833 % 4.24 C
93 19-02-2019 20:00:00 5.44167 C 89.2500 % 3.82 C
94 19-02-2019 21:00:00 4.85 C 89.6667 % 3.3 C
95 19-02-2019 22:00:00 3.46667 C 91.3333 % 2.19 C
96 19-02-2019 23:00:00 3.05 C 92.7500 % 1.99 C
97 20-02-2019 00:00:00 2.6 C 93.2500 % 1.62 C
98 20-02-2019 01:00:00 1.78333 C 93.3333 % 0.82 C
99 20-02-2019 02:00:00 1.19167 C 94.2500 % 0.37 C
100 20-02-2019 03:00:00 1.1 C 94.9167 % 0.38 C
Sensor: Nr:Datum:Temp:Feuchte:Taupunkt:
Aussen-T/F 101 20-02-2019 04:00:00 0.875 C 95.0000 % 0.17 C
102 20-02-2019 05:00:00 1 C 95.5000 % 0.36 C
103 20-02-2019 06:00:00 0.86667 C 95.6667 % 0.26 C
104 20-02-2019 07:00:00 0.73333 C 96.0000 % 0.17 C
105 20-02-2019 08:00:00 1.30833 C 96.3333 % 0.79 C
106 20-02-2019 09:00:00 3.09167 C 96.6667 % 2.61 C
107 20-02-2019 10:00:00 4.40833 C 95.6667 % 3.78 C
108 20-02-2019 11:00:00 6.075 C 92.1667 % 4.9 C
109 20-02-2019 12:00:00 7.49167 C 88.0000 % 5.64 C
110 20-02-2019 13:00:00 9.86667 C 78.2500 % 6.26 C
111 20-02-2019 14:00:00 10.85833 C 74.3333 % 6.48 C
112 20-02-2019 15:00:00 11.08333 C 73.0000 % 6.43 C
113 20-02-2019 16:00:00 11.375 C 71.2500 % 6.36 C
114 20-02-2019 17:00:00 10.35 C 74.0833 % 5.94 C
115 20-02-2019 18:00:00 7.29167 C 83.9167 % 4.76 C
116 20-02-2019 19:00:00 6.16667 C 87.6667 % 4.28 C
117 20-02-2019 20:00:00 4.86667 C 89.7500 % 3.33 C
118 20-02-2019 21:00:00 3.775 C 91.5000 % 2.52 C
119 20-02-2019 22:00:00 2.7 C 92.8333 % 1.66 C
120 20-02-2019 23:00:00 2.10833 C 94.2500 % 1.28 C
121 21-02-2019 00:00:00 1.575 C 94.5000 % 0.79 C
122 21-02-2019 01:00:00 1.58333 C 95.1667 % 0.9 C
123 21-02-2019 02:00:00 1.06667 C 95.1667 % 0.38 C
124 21-02-2019 03:00:00 0.74167 C 95.9167 % 0.17 C
125 21-02-2019 04:00:00 0.91667 C 96.0000 % 0.35 C
Sensor: Nr:Datum:Temp:Feuchte:Taupunkt:
Aussen-T/F 126 21-02-2019 05:00:00 1.06667 C 96.3333 % 0.55 C
127 21-02-2019 06:00:00 1.25 C 96.2500 % 0.72 C
128 21-02-2019 07:00:00 1.21667 C 96.4167 % 0.71 C
129 21-02-2019 08:00:00 2.10833 C 97.0000 % 1.68 C
130 21-02-2019 09:00:00 2.84167 C 97.0000 % 2.41 C
131 21-02-2019 10:00:00 3.91667 C 97.0000 % 3.48 C
132 21-02-2019 11:00:00 5.725 C 94.8333 % 4.96 C
133 21-02-2019 12:00:00 8.33333 C 89.8333 % 6.76 C
134 21-02-2019 13:00:00 11.3 C 81.8333 % 8.31 C
135 21-02-2019 14:00:00 12.6 C 77.0000 % 8.68 C
136 21-02-2019 15:00:00 13.325 C 74.2500 % 8.84 C
137 21-02-2019 16:00:00 13.34167 C 74.0833 % 8.83 C
138 21-02-2019 17:00:00 12.48333 C 79.8333 % 9.1 C
139 21-02-2019 18:00:00 10.56667 C 86.1667 % 8.35 C
140 21-02-2019 19:00:00 9.74167 C 87.2500 % 7.73 C
141 21-02-2019 20:00:00 9.18333 C 89.5000 % 7.55 C
142 21-02-2019 21:00:00 9.325 C 90.5000 % 7.85 C
143 21-02-2019 22:00:00 9.275 C 89.2500 % 7.6 C
144 21-02-2019 23:00:00 9.21667 C 89.3333 % 7.56 C
145 22-02-2019 00:00:00 9.575 C 88.8333 % 7.83 C
146 22-02-2019 01:00:00 9.76667 C 88.2500 % 7.92 C
147 22-02-2019 02:00:00 9.325 C 90.1667 % 7.8 C
148 22-02-2019 03:00:00 9.55 C 92.0833 % 8.33 C
149 22-02-2019 04:00:00 9.66667 C 92.9167 % 8.58 C
150 22-02-2019 05:00:00 9.34167 C 94.2500 % 8.47 C
Sensor: Nr:Datum:Temp:Feuchte:Taupunkt:
Aussen-T/F 151 22-02-2019 06:00:00 9.34167 C 95.0000 % 8.58 C
152 22-02-2019 07:00:00 9.225 C 95.4167 % 8.53 C
153 22-02-2019 08:00:00 9.16667 C 96.0000 % 8.56 C
154 22-02-2019 09:00:00 9.50833 C 96.0000 % 8.9 C
155 22-02-2019 10:00:00 9.93333 C 96.0000 % 9.33 C
156 22-02-2019 11:00:00 10.64167 C 94.8333 % 9.85 C
157 22-02-2019 12:00:00 11.6 C 87.9167 % 9.67 C
158 22-02-2019 13:00:00 12.46667 C 82.0833 % 9.5 C
159 22-02-2019 14:00:00 12.83333 C 77.9167 % 9.08 C
160 22-02-2019 15:00:00 13.275 C 74.3333 % 8.81 C
161 22-02-2019 16:00:00 12.84167 C 73.4167 % 8.21 C
162 22-02-2019 17:00:00 11.825 C 76.1667 % 7.77 C
163 22-02-2019 18:00:00 9.075 C 83.0833 % 6.36 C
164 22-02-2019 19:00:00 8.55 C 86.1667 % 6.37 C
165 22-02-2019 20:00:00 8.99167 C 85.3333 % 6.67 C
166 22-02-2019 21:00:00 8.475 C 86.1667 % 6.3 C
167 22-02-2019 22:00:00 6.94167 C 88.9167 % 5.24 C
168 22-02-2019 23:00:00 5.95 C 91.5833 % 4.69 C
169 23-02-2019 00:00:00 5.31667 C 92.3333 % 4.18 C
170 23-02-2019 01:00:00 4.55 C 93.2500 % 3.56 C
171 23-02-2019 02:00:00 4.18333 C 94.0000 % 3.31 C
172 23-02-2019 03:00:00 3.81667 C 94.9167 % 3.08 C
173 23-02-2019 04:00:00 4.26667 C 95.0000 % 3.54 C
174 23-02-2019 05:00:00 4.525 C 93.5000 % 3.57 C
175 23-02-2019 06:00:00 4.83333 C 89.8333 % 3.31 C
Sensor: Nr:Datum:Temp:Feuchte:Taupunkt:
Aussen-T/F 176 23-02-2019 07:00:00 4.79167 C 86.9167 % 2.8 C
177 23-02-2019 08:00:00 4.85 C 85.0000 % 2.55 C
178 23-02-2019 09:00:00 4.775 C 83.4167 % 2.21 C
179 23-02-2019 10:00:00 4.95 C 81.8333 % 2.11 C
180 23-02-2019 11:00:00 6.125 C 79.0000 % 2.76 C
181 23-02-2019 12:00:00 7.625 C 72.3333 % 2.97 C
182 23-02-2019 13:00:00 9.05833 C 66.8333 % 3.23 C
183 23-02-2019 14:00:00 10.01667 C 59.4167 % 2.48 C
184 23-02-2019 15:00:00 10.78333 C 44.7500 % -0.73 C
185 23-02-2019 16:00:00 10.71667 C 47.0833 % -0.1 C
186 23-02-2019 17:00:00 7.99167 C 63.1667 % 1.43 C
187 23-02-2019 18:00:00 5.45833 C 70.9167 % 0.61 C
188 23-02-2019 19:00:00 4.36667 C 74.0000 % 0.15 C
189 23-02-2019 20:00:00 3.38333 C 76.0833 % -0.42 C
190 23-02-2019 21:00:00 2.03333 C 79.3333 % -1.16 C
191 23-02-2019 22:00:00 0.98333 C 82.8333 % -1.6 C
192 23-02-2019 23:00:00 0.45833 C 83.5000 % -2 C
193 24-02-2019 00:00:00 -0.25833 C 85.4167 % -2.4 C
194 24-02-2019 01:00:00 -0.66667 C 87.0000 % -2.56 C
195 24-02-2019 02:00:00 -1.16667 C 87.9167 % -2.91 C
196 24-02-2019 03:00:00 -1.5 C 89.1667 % -3.05 C
197 24-02-2019 04:00:00 -1.73333 C 90.0000 % -3.15 C
198 24-02-2019 05:00:00 -1.875 C 90.0000 % -3.29 C
199 24-02-2019 06:00:00 -2.06667 C 90.5000 % -3.41 C
200 24-02-2019 07:00:00 -2.35833 C 91.2500 % -3.59 C
Sensor: Nr:Datum:Temp:Feuchte:Taupunkt:
Aussen-T/F 201 24-02-2019 08:00:00 -2.10833 C 92.0000 % -3.23 C
202 24-02-2019 09:00:00 -1.49167 C 91.9167 % -2.63 C
203 24-02-2019 10:00:00 0.36667 C 88.6667 % -1.28 C
204 24-02-2019 11:00:00 4.09167 C 77.9167 % 0.59 C
205 24-02-2019 12:00:00 7.35 C 66.0833 % 1.45 C
206 24-02-2019 13:00:00 10.45833 C 44.1667 % -1.21 C
207 24-02-2019 14:00:00 11.89167 C 36.5000 % -2.5 C
208 24-02-2019 15:00:00 12.41667 C 39.0000 % -1.13 C
209 24-02-2019 16:00:00 11.80833 C 46.5000 % 0.73 C
210 24-02-2019 17:00:00 10.3 C 52.4167 % 1 C
211 24-02-2019 18:00:00 8.44167 C 56.6667 % 0.35 C
212 24-02-2019 19:00:00 6.86667 C 61.0833 % -0.1 C
213 24-02-2019 20:00:00 4.93333 C 66.4167 % -0.79 C
214 24-02-2019 21:00:00 3.36667 C 71.5000 % -1.28 C
215 24-02-2019 22:00:00 2.54167 C 74.5000 % -1.52 C
216 24-02-2019 23:00:00 1.81667 C 77.1667 % -1.75 C
217 25-02-2019 00:00:00 1.175 C 78.9167 % -2.07 C
218 25-02-2019 01:00:00 0.925 C 81.0000 % -1.96 C
219 25-02-2019 02:00:00 0.13333 C 83.6667 % -2.29 C
220 25-02-2019 03:00:00 -0.00833 C 84.0000 % -2.38 C
221 25-02-2019 04:00:00 -0.58333 C 86.0833 % -2.62 C
222 25-02-2019 05:00:00 -0.70833 C 87.2500 % -2.56 C
223 25-02-2019 06:00:00 -0.86667 C 87.9167 % -2.61 C
224 25-02-2019 07:00:00 -1.21667 C 88.1667 % -2.92 C
225 25-02-2019 08:00:00 -1.2 C 89.7500 % -2.66 C
Sensor: Nr:Datum:Temp:Feuchte:Taupunkt:
Aussen-T/F 226 25-02-2019 09:00:00 -0.69167 C 88.8333 % -2.3 C
227 25-02-2019 10:00:00 0.81667 C 87.0833 % -1.08 C
228 25-02-2019 11:00:00 4.675 C 77.7500 % 1.13 C
229 25-02-2019 12:00:00 8.70833 C 67.1667 % 2.97 C
230 25-02-2019 13:00:00 12.55 C 53.3333 % 3.33 C
231 25-02-2019 14:00:00 14.74167 C 46.6667 % 3.46 C
232 25-02-2019 15:00:00 14.175 C 49.5833 % 3.8 C
233 25-02-2019 16:00:00 14.375 C 49.5833 % 3.98 C
234 25-02-2019 17:00:00 13.64167 C 52.9167 % 4.23 C
235 25-02-2019 18:00:00 11.1 C 59.8333 % 3.6 C
236 25-02-2019 19:00:00 9.075 C 66.8333 % 3.25 C
237 25-02-2019 20:00:00 7.04167 C 72.9167 % 2.53 C
238 25-02-2019 21:00:00 5.575 C 76.5833 % 1.79 C
239 25-02-2019 22:00:00 4.55 C 79.4167 % 1.3 C
240 25-02-2019 23:00:00 3.25 C 83.5833 % 0.74 C
241 26-02-2019 00:00:00 2.425 C 86.0833 % 0.34 C
242 26-02-2019 01:00:00 1.93333 C 88.7500 % 0.28 C
243 26-02-2019 02:00:00 1.39167 C 89.5833 % -0.13 C
244 26-02-2019 03:00:00 0.63333 C 91.1667 % -0.64 C
245 26-02-2019 04:00:00 0.325 C 92.0833 % -0.81 C
246 26-02-2019 05:00:00 0.21667 C 93.0833 % -0.77 C
247 26-02-2019 06:00:00 -0.31667 C 92.7500 % -1.34 C
248 26-02-2019 07:00:00 -0.48333 C 93.5833 % -1.39 C
249 26-02-2019 08:00:00 -0.10833 C 94.4167 % -0.9 C
250 26-02-2019 09:00:00 0.80833 C 94.7500 % 0.06 C
Sensor: Nr:Datum:Temp:Feuchte:Taupunkt:
Aussen-T/F 251 26-02-2019 10:00:00 2.60833 C 94.4167 % 1.8 C
252 26-02-2019 11:00:00 5.75 C 86.6667 % 3.7 C
253 26-02-2019 12:00:00 9.50833 C 72.4167 % 4.8 C
254 26-02-2019 13:00:00 13.85833 C 65.2500 % 7.45 C
255 26-02-2019 14:00:00 16.15833 C 55.3333 % 7.21 C
256 26-02-2019 15:00:00 15.49167 C 55.2500 % 6.57 C
257 26-02-2019 16:00:00 15.44167 C 55.5000 % 6.59 C
258 26-02-2019 17:00:00 14.75833 C 58.5000 % 6.71 C
259 26-02-2019 18:00:00 12.56667 C 63.5833 % 5.85 C
260 26-02-2019 19:00:00 10.34167 C 71.3333 % 5.39 C
261 26-02-2019 20:00:00 8.18333 C 76.3333 % 4.28 C
262 26-02-2019 21:00:00 6.8 C 80.9167 % 3.76 C
263 26-02-2019 22:00:00 5.61667 C 83.7500 % 3.09 C
264 26-02-2019 23:00:00 4.56667 C 87.0000 % 2.59 C
265 27-02-2019 00:00:00 3.55833 C 89.3333 % 1.97 C
266 27-02-2019 01:00:00 2.85 C 91.0833 % 1.54 C
267 27-02-2019 02:00:00 2.25 C 92.3333 % 1.14 C
268 27-02-2019 03:00:00 1.45833 C 93.0000 % 0.45 C
269 27-02-2019 04:00:00 0.78333 C 93.8333 % -0.09 C
270 27-02-2019 05:00:00 0.5 C 94.4167 % -0.29 C
271 27-02-2019 06:00:00 0.125 C 94.9167 % -0.59 C
272 27-02-2019 07:00:00 -0.375 C 95.0000 % -1.08 C
273 27-02-2019 08:00:00 -0.25833 C 95.5000 % -0.89 C
274 27-02-2019 09:00:00 0.41667 C 96.0000 % -0.14 C
275 27-02-2019 10:00:00 2.4 C 96.6667 % 1.93 C
Sensor: Nr:Datum:Temp:Feuchte:Taupunkt:
Aussen-T/F 276 27-02-2019 11:00:00 5.5 C 95.0833 % 4.78 C
277 27-02-2019 12:00:00 9.75833 C 82.7500 % 6.97 C
278 27-02-2019 13:00:00 14.69167 C 65.6667 % 8.34 C
279 27-02-2019 14:00:00 17.19167 C 52.1667 % 7.31 C
280 27-02-2019 15:00:00 16.10833 C 51.4167 % 6.1 C
281 27-02-2019 16:00:00 16.25 C 50.5833 % 5.99 C
282 27-02-2019 17:00:00 15.71667 C 51.0000 % 5.62 C
283 27-02-2019 18:00:00 13.55833 C 54.8333 % 4.66 C
284 27-02-2019 19:00:00 10.89167 C 63.9167 % 4.34 C
285 27-02-2019 20:00:00 8.7 C 70.4167 % 3.63 C
286 27-02-2019 21:00:00 6.8 C 75.7500 % 2.83 C
287 27-02-2019 22:00:00 5.55 C 80.5000 % 2.47 C
288 27-02-2019 23:00:00 4.83333 C 82.5833 % 2.13 C
289 28-02-2019 00:00:00 5.35 C 83.0000 % 2.7 C
290 28-02-2019 01:00:00 4.93333 C 81.8333 % 2.1 C
291 28-02-2019 02:00:00 3.675 C 86.7500 % 1.68 C
292 28-02-2019 03:00:00 2.94167 C 89.0000 % 1.31 C
293 28-02-2019 04:00:00 2.275 C 90.3333 % 0.86 C
294 28-02-2019 05:00:00 2.35833 C 91.0000 % 1.04 C
295 28-02-2019 06:00:00 3.21667 C 90.4167 % 1.8 C
296 28-02-2019 07:00:00 3.75 C 86.8333 % 1.76 C
297 28-02-2019 08:00:00 3.075 C 90.0000 % 1.6 C
298 28-02-2019 09:00:00 4.68333 C 89.0000 % 3.03 C
299 28-02-2019 10:00:00 7.65833 C 84.5000 % 5.22 C
300 28-02-2019 11:00:00 11.56667 C 72.3333 % 6.77 C
Sensor: Nr:Datum:Temp:Feuchte:Taupunkt:
Aussen-T/F 301 28-02-2019 12:00:00 13.26667 C 67.2500 % 7.33 C
302 28-02-2019 13:00:00 14.95833 C 63.5000 % 8.1 C
303 28-02-2019 14:00:00 16.61667 C 60.8333 % 9.03 C
304 28-02-2019 15:00:00 16.76667 C 61.0000 % 9.21 C
305 28-02-2019 16:00:00 15.20833 C 63.9167 % 8.43 C
306 28-02-2019 17:00:00 12.73333 C 67.7500 % 6.93 C
307 28-02-2019 18:00:00 12.13333 C 71.5000 % 7.14 C
308 28-02-2019 19:00:00 11.26667 C 75.6667 % 7.13 C
309 28-02-2019 20:00:00 11.09167 C 78.5833 % 7.52 C
310 28-02-2019 21:00:00 10.975 C 80.7500 % 7.8 C
311 28-02-2019 22:00:00 10.84167 C 81.7500 % 7.85 C
312 28-02-2019 23:00:00 10.26667 C 86.5833 % 8.13 C
313 01-03-2019 00:00:00 9.075 C 91.9167 % 7.83 C
314 01-03-2019 01:00:00 8.68333 C 93.7500 % 7.73 C
315 01-03-2019 02:00:00 8.69167 C 93.3333 % 7.68 C
316 01-03-2019 03:00:00 8.8 C 91.5000 % 7.49 C
317 01-03-2019 04:00:00 8.75833 C 91.0000 % 7.37 C
318 01-03-2019 05:00:00 8.63333 C 91.7500 % 7.37 C
319 01-03-2019 06:00:00 8.20833 C 93.5833 % 7.24 C
320 01-03-2019 07:00:00 8.21667 C 94.9167 % 7.45 C
321 01-03-2019 08:00:00 8.53333 C 95.0000 % 7.78 C
322 01-03-2019 09:00:00 8.68333 C 95.0000 % 7.93 C
323 01-03-2019 10:00:00 8.66667 C 95.9167 % 8.05 C
324 01-03-2019 11:00:00 8.75833 C 95.0833 % 8.02 C
325 01-03-2019 12:00:00 9.01667 C 91.4167 % 7.7 C
Sensor: Nr:Datum:Temp:Feuchte:Taupunkt:
Aussen-T/F 326 01-03-2019 13:00:00 8.49167 C 91.5000 % 7.19 C
327 01-03-2019 14:00:00 8.38333 C 90.4167 % 6.91 C
328 01-03-2019 15:00:00 8.325 C 89.6667 % 6.73 C
329 01-03-2019 16:00:00 8.34167 C 90.5000 % 6.88 C
330 01-03-2019 17:00:00 8.28333 C 91.0000 % 6.9 C
331 01-03-2019 18:00:00 7.61667 C 89.4167 % 5.99 C
332 01-03-2019 19:00:00 6.9 C 89.9167 % 5.36 C
333 01-03-2019 20:00:00 6.625 C 91.0000 % 5.26 C
334 01-03-2019 21:00:00 6.45 C 90.6667 % 5.04 C
335 01-03-2019 22:00:00 6.375 C 90.1667 % 4.88 C
336 01-03-2019 23:00:00 6.53333 C 88.5833 % 4.79 C
337 02-03-2019 00:00:00 6.19167 C 89.1667 % 4.54 C
338 02-03-2019 01:00:00 5.85 C 89.0833 % 4.19 C
339 02-03-2019 02:00:00 5.64167 C 90.7500 % 4.25 C
340 02-03-2019 03:00:00 5.65 C 90.6667 % 4.25 C
341 02-03-2019 04:00:00 5.7 C 90.9167 % 4.34 C
342 02-03-2019 05:00:00 6.10833 C 91.0000 % 4.75 C
343 02-03-2019 06:00:00 6.30833 C 91.0000 % 4.95 C
344 02-03-2019 07:00:00 6.65 C 91.0000 % 5.29 C
345 02-03-2019 08:00:00 7.01667 C 90.4167 % 5.56 C
346 02-03-2019 09:00:00 7.66667 C 88.9167 % 5.96 C
347 02-03-2019 10:00:00 8.05 C 87.7500 % 6.15 C
348 02-03-2019 11:00:00 8.99167 C 85.4167 % 6.68 C
349 02-03-2019 12:00:00 9.94167 C 82.8333 % 7.16 C
350 02-03-2019 13:00:00 10.63333 C 79.9167 % 7.32 C
Sensor: Nr:Datum:Temp:Feuchte:Taupunkt:
Aussen-T/F 351 02-03-2019 14:00:00 11.40833 C 75.5833 % 7.25 C
352 02-03-2019 15:00:00 11.925 C 72.3333 % 7.11 C
353 02-03-2019 16:00:00 12.35 C 70.4167 % 7.13 C
354 02-03-2019 17:00:00 11.35833 C 75.5000 % 7.19 C
355 02-03-2019 18:00:00 10.55 C 80.5833 % 7.36 C
356 02-03-2019 19:00:00 9.84167 C 86.0000 % 7.61 C
357 02-03-2019 20:00:00 9.53333 C 87.2500 % 7.52 C
358 02-03-2019 21:00:00 9.83333 C 87.4167 % 7.85 C
359 02-03-2019 22:00:00 10.25 C 85.0000 % 7.84 C
360 02-03-2019 23:00:00 9.96667 C 83.1667 % 7.25 C
361 03-03-2019 00:00:00 9.05833 C 82.8333 % 6.3 C
362 03-03-2019 01:00:00 9.175 C 85.2500 % 6.83 C
363 03-03-2019 02:00:00 9.98333 C 81.2500 % 6.92 C
364 03-03-2019 03:00:00 10 C 81.0000 % 6.89 C
365 03-03-2019 04:00:00 10.225 C 80.9167 % 7.1 C
366 03-03-2019 05:00:00 10.20833 C 79.8333 % 6.89 C
367 03-03-2019 06:00:00 10.10833 C 80.8333 % 6.97 C
368 03-03-2019 07:00:00 10.13333 C 81.0000 % 7.02 C
369 03-03-2019 08:00:00 10.31667 C 81.5000 % 7.29 C
370 03-03-2019 09:00:00 10.875 C 81.1667 % 7.78 C
371 03-03-2019 10:00:00 11.15833 C 81.0000 % 8.02 C
372 03-03-2019 11:00:00 11.00833 C 82.0000 % 8.06 C
373 03-03-2019 12:00:00 11.225 C 82.0833 % 8.28 C
374 03-03-2019 13:00:00 11.73333 C 80.5000 % 8.49 C
375 03-03-2019 14:00:00 11.79167 C 80.0000 % 8.46 C
Sensor: Nr:Datum:Temp:Feuchte:Taupunkt:
Aussen-T/F 376 03-03-2019 15:00:00 11.7 C 81.2500 % 8.6 C
377 03-03-2019 16:00:00 11.7 C 81.5000 % 8.64 C
378 03-03-2019 17:00:00 11.9 C 79.4167 % 8.46 C
379 03-03-2019 18:00:00 12.18333 C 77.5000 % 8.37 C
380 03-03-2019 19:00:00 12.28333 C 75.9167 % 8.16 C
381 03-03-2019 20:00:00 12.33333 C 76.0000 % 8.23 C
382 03-03-2019 21:00:00 12.33333 C 77.0833 % 8.44 C
383 03-03-2019 22:00:00 12.525 C 76.5833 % 8.53 C
384 03-03-2019 23:00:00 12.75833 C 73.7500 % 8.2 C
385 04-03-2019 00:00:00 13.10833 C 71.2500 % 8.03 C
386 04-03-2019 01:00:00 13.50833 C 68.5000 % 7.83 C
387 04-03-2019 02:00:00 12.66667 C 75.4167 % 8.44 C
388 04-03-2019 03:00:00 11.79167 C 80.4167 % 8.53 C
389 04-03-2019 04:00:00 11.675 C 81.5000 % 8.62 C
390 04-03-2019 05:00:00 11.63333 C 80.0833 % 8.32 C
391 04-03-2019 06:00:00 11.45 C 78.9167 % 7.93 C
392 04-03-2019 07:00:00 12 C 73.8333 % 7.48 C
393 04-03-2019 08:00:00 11.49167 C 73.1667 % 6.86 C
394 04-03-2019 09:00:00 9.39167 C 76.3333 % 5.45 C
395 04-03-2019 10:00:00 9.90833 C 76.5833 % 5.99 C
396 04-03-2019 11:00:00 11.23333 C 69.1667 % 5.8 C
397 04-03-2019 12:00:00 10.98333 C 72.9167 % 6.32 C
398 04-03-2019 13:00:00 9.73333 C 84.0833 % 7.18 C
399 04-03-2019 14:00:00 9.44167 C 83.3333 % 6.76 C
400 04-03-2019 15:00:00 7.1 C 84.4167 % 4.66 C
Sensor: Nr:Datum:Temp:Feuchte:Taupunkt:
Aussen-T/F 401 04-03-2019 16:00:00 7.54167 C 79.6667 % 4.26 C
402 04-03-2019 17:00:00 7.4 C 78.6667 % 3.94 C
403 04-03-2019 18:00:00 6.96667 C 80.4167 % 3.83 C
404 04-03-2019 19:00:00 6.86667 C 81.4167 % 3.91 C
405 04-03-2019 20:00:00 6.95 C 81.5000 % 4.01 C
406 04-03-2019 21:00:00 6.61667 C 83.2500 % 3.98 C
407 04-03-2019 22:00:00 7.09167 C 82.7500 % 4.36 C
408 04-03-2019 23:00:00 6.7 C 83.6667 % 4.14 C
409 05-03-2019 00:00:00 6.875 C 81.5000 % 3.93 C
410 05-03-2019 01:00:00 6.875 C 80.5000 % 3.76 C
411 05-03-2019 02:00:00 6.79167 C 79.9167 % 3.58 C
412 05-03-2019 03:00:00 6.74167 C 80.5000 % 3.63 C
413 05-03-2019 04:00:00 6.425 C 80.9167 % 3.39 C
414 05-03-2019 05:00:00 6.35 C 80.9167 % 3.32 C
415 05-03-2019 06:00:00 6.24167 C 79.7500 % 3.01 C
416 05-03-2019 07:00:00 6.475 C 79.2500 % 3.15 C
417 05-03-2019 08:00:00 6.64167 C 80.2500 % 3.49 C
418 05-03-2019 09:00:00 6.50833 C 83.3333 % 3.89 C
419 05-03-2019 10:00:00 6.625 C 85.1667 % 4.32 C
420 05-03-2019 11:00:00 6.99167 C 84.3333 % 4.54 C
421 05-03-2019 12:00:00 7.3 C 81.5833 % 4.36 C
422 05-03-2019 13:00:00 7.96667 C 79.7500 % 4.69 C
423 05-03-2019 14:00:00 8.65 C 77.5000 % 4.94 C
424 05-03-2019 15:00:00 8.95833 C 74.9167 % 4.76 C
425 05-03-2019 16:00:00 9.81667 C 72.7500 % 5.17 C
Sensor: Nr:Datum:Temp:Feuchte:Taupunkt:
Aussen-T/F 426 05-03-2019 17:00:00 9.34167 C 74.1667 % 4.98 C
427 05-03-2019 18:00:00 7.13333 C 80.6667 % 4.04 C
428 05-03-2019 19:00:00 6.55 C 82.5000 % 3.79 C
429 05-03-2019 20:00:00 5.46667 C 85.1667 % 3.18 C
430 05-03-2019 21:00:00 4.275 C 89.5000 % 2.71 C
431 05-03-2019 22:00:00 4.70833 C 92.0000 % 3.52 C
432 05-03-2019 23:00:00 5.26667 C 92.0000 % 4.08 C
433 06-03-2019 00:00:00 5.65 C 91.6667 % 4.4 C
434 06-03-2019 01:00:00 6.15 C 91.5833 % 4.89 C
435 06-03-2019 02:00:00 7.03333 C 89.8333 % 5.48 C
436 06-03-2019 03:00:00 7 C 89.5000 % 5.4 C
437 06-03-2019 04:00:00 6.81667 C 91.0000 % 5.45 C
438 06-03-2019 05:00:00 7.175 C 89.2500 % 5.53 C
439 06-03-2019 06:00:00 6.40833 C 89.6667 % 4.84 C
440 06-03-2019 07:00:00 5.44167 C 91.2500 % 4.13 C
441 06-03-2019 08:00:00 6.43333 C 91.0000 % 5.07 C
442 06-03-2019 09:00:00 8.15833 C 84.3333 % 5.68 C
443 06-03-2019 10:00:00 10.00833 C 76.3333 % 6.04 C
444 06-03-2019 11:00:00 12.275 C 65.4167 % 5.99 C
445 06-03-2019 12:00:00 13.31667 C 59.2500 % 5.54 C
446 06-03-2019 13:00:00 13.375 C 61.0000 % 6.02 C
447 06-03-2019 14:00:00 13.7 C 61.7500 % 6.5 C
448 06-03-2019 15:00:00 14.56667 C 58.7500 % 6.59 C
449 06-03-2019 16:00:00 15.19167 C 57.4167 % 6.85 C
450 06-03-2019 17:00:00 13.93333 C 68.2500 % 8.18 C
Sensor: Nr:Datum:Temp:Feuchte:Taupunkt:
Aussen-T/F 451 06-03-2019 18:00:00 13.00833 C 72.5833 % 8.2 C
452 06-03-2019 19:00:00 11.65833 C 81.2500 % 8.56 C
453 06-03-2019 20:00:00 10.65 C 84.8333 % 8.21 C
454 06-03-2019 21:00:00 10.675 C 84.0833 % 8.1 C
455 06-03-2019 22:00:00 10.66667 C 84.1667 % 8.11 C
456 06-03-2019 23:00:00 11.175 C 81.3333 % 8.1 C
457 07-03-2019 00:00:00 11.05833 C 83.6667 % 8.4 C
458 07-03-2019 01:00:00 10.93333 C 87.5000 % 8.94 C
459 07-03-2019 02:00:00 10.025 C 91.6667 % 8.73 C
460 07-03-2019 03:00:00 9.58333 C 92.5833 % 8.44 C
461 07-03-2019 04:00:00 10.08333 C 88.5833 % 8.29 C
462 07-03-2019 05:00:00 11.45 C 79.6667 % 8.06 C
463 07-03-2019 06:00:00 12.05833 C 73.9167 % 7.56 C
464 07-03-2019 07:00:00 11.325 C 74.2500 % 6.91 C
465 07-03-2019 08:00:00 10.69167 C 75.9167 % 6.62 C
466 07-03-2019 09:00:00 10.06667 C 82.6667 % 7.26 C
467 07-03-2019 10:00:00 10.225 C 82.1667 % 7.32 C
468 07-03-2019 11:00:00 9.8 C 83.9167 % 7.21 C
469 07-03-2019 12:00:00 10.78333 C 74.6667 % 6.47 C
470 07-03-2019 13:00:00 12 C 68.6667 % 6.43 C
471 07-03-2019 14:00:00 10.40833 C 78.0833 % 6.76 C
472 07-03-2019 15:00:00 10.825 C 74.0833 % 6.4 C
473 07-03-2019 16:00:00 9.88333 C 79.0833 % 6.43 C
474 07-03-2019 17:00:00 10.14167 C 75.0000 % 5.92 C
475 07-03-2019 18:00:00 9.45 C 72.4167 % 4.75 C
Sensor: Nr:Datum:Temp:Feuchte:Taupunkt:
Aussen-T/F 476 07-03-2019 19:00:00 8.46667 C 79.5000 % 5.13 C
477 07-03-2019 20:00:00 8.64167 C 76.5833 % 4.77 C
478 07-03-2019 21:00:00 9.23333 C 74.5833 % 4.96 C
479 07-03-2019 22:00:00 9.2 C 74.7500 % 4.96 C
480 07-03-2019 23:00:00 8.64167 C 76.9167 % 4.83 C
481 08-03-2019 00:00:00 7.65833 C 84.2500 % 5.17 C
482 08-03-2019 01:00:00 7.05833 C 85.9167 % 4.87 C
483 08-03-2019 02:00:00 8.15833 C 77.3333 % 4.44 C
484 08-03-2019 03:00:00 8.15 C 75.1667 % 4.02 C
485 08-03-2019 04:00:00 8.05 C 76.2500 % 4.13 C
486 08-03-2019 05:00:00 7.8 C 78.1667 % 4.24 C
487 08-03-2019 06:00:00 7.60833 C 79.8333 % 4.36 C
488 08-03-2019 07:00:00 7.7 C 80.4167 % 4.55 C
489 08-03-2019 08:00:00 7.85 C 81.7500 % 4.93 C
490 08-03-2019 09:00:00 7.68333 C 85.2500 % 5.37 C
491 08-03-2019 10:00:00 7.75 C 85.0833 % 5.41 C
492 08-03-2019 11:00:00 8.65833 C 79.3333 % 5.29 C
493 08-03-2019 12:00:00 9.21667 C 72.0833 % 4.46 C
494 08-03-2019 13:00:00 9.8 C 68.8333 % 4.36 C
495 08-03-2019 14:00:00 10.34167 C 64.2500 % 3.89 C
496 08-03-2019 15:00:00 11.25 C 62.0000 % 4.25 C
497 08-03-2019 16:00:00 10.26667 C 70.0833 % 5.06 C
498 08-03-2019 17:00:00 9.15833 C 77.5833 % 5.45 C
499 08-03-2019 18:00:00 7.425 C 85.2500 % 5.11 C
500 08-03-2019 19:00:00 6.83333 C 87.8333 % 4.96 C
Sensor: Nr:Datum:Temp:Feuchte:Taupunkt:
Aussen-T/F 501 08-03-2019 20:00:00 6.3 C 89.5000 % 4.7 C
502 08-03-2019 21:00:00 6.525 C 89.3333 % 4.9 C
503 08-03-2019 22:00:00 7.025 C 85.4167 % 4.75 C
504 08-03-2019 23:00:00 8.25833 C 77.9167 % 4.64 C
505 09-03-2019 00:00:00 8.56667 C 75.5000 % 4.49 C
506 09-03-2019 01:00:00 9.15833 C 72.6667 % 4.51 C
507 09-03-2019 02:00:00 9.375 C 72.4167 % 4.67 C
508 09-03-2019 03:00:00 9.03333 C 76.4167 % 5.11 C
509 09-03-2019 04:00:00 7.95833 C 84.9167 % 5.58 C
510 09-03-2019 05:00:00 7.775 C 87.4167 % 5.82 C
511 09-03-2019 06:00:00 8.08333 C 88.0000 % 6.22 C
512 09-03-2019 07:00:00 8.63333 C 87.2500 % 6.64 C
513 09-03-2019 08:00:00 9.45 C 85.2500 % 7.1 C
514 09-03-2019 09:00:00 10.15833 C 83.6667 % 7.52 C
515 09-03-2019 10:00:00 10.50833 C 81.4167 % 7.47 C
516 09-03-2019 11:00:00 10.925 C 79.8333 % 7.58 C
517 09-03-2019 12:00:00 11.71667 C 76.6667 % 7.76 C
518 09-03-2019 13:00:00 12.525 C 74.5833 % 8.14 C
519 09-03-2019 14:00:00 13.48333 C 69.7500 % 8.07 C
520 09-03-2019 15:00:00 13.30833 C 68.8333 % 7.71 C
521 09-03-2019 16:00:00 13.39167 C 63.4167 % 6.6 C
522 09-03-2019 17:00:00 13.05833 C 60.6667 % 5.64 C
523 09-03-2019 18:00:00 12.01667 C 62.5833 % 5.1 C
524 09-03-2019 19:00:00 10.65833 C 74.2500 % 6.27 C
525 09-03-2019 20:00:00 9.45 C 82.2500 % 6.58 C
Sensor: Nr:Datum:Temp:Feuchte:Taupunkt:
Aussen-T/F 526 09-03-2019 21:00:00 9.66667 C 82.1667 % 6.78 C
527 09-03-2019 22:00:00 9.60833 C 80.0000 % 6.33 C
528 09-03-2019 23:00:00 10.34167 C 71.3333 % 5.39 C
529 10-03-2019 00:00:00 10.11667 C 69.6667 % 4.83 C
530 10-03-2019 01:00:00 9.66667 C 70.4167 % 4.55 C
531 10-03-2019 02:00:00 9.40833 C 73.5833 % 4.93 C
532 10-03-2019 03:00:00 9.1 C 77.3333 % 5.35 C
533 10-03-2019 04:00:00 8.325 C 85.0833 % 5.97 C
534 10-03-2019 05:00:00 7.8 C 90.9167 % 6.41 C
535 10-03-2019 06:00:00 7.475 C 93.5000 % 6.5 C
536 10-03-2019 07:00:00 7.675 C 94.8333 % 6.9 C
537 10-03-2019 08:00:00 8.86667 C 95.9167 % 8.25 C
538 10-03-2019 09:00:00 10.58333 C 95.1667 % 9.84 C
539 10-03-2019 10:00:00 11.95833 C 93.3333 % 10.92 C
540 10-03-2019 11:00:00 13.14167 C 78.7500 % 9.54 C
541 10-03-2019 12:00:00 14.125 C 72.2500 % 9.21 C
542 10-03-2019 13:00:00 14.4 C 64.5833 % 7.82 C
543 10-03-2019 14:00:00 14.40833 C 52.0000 % 4.69 C
544 10-03-2019 15:00:00 13.55833 C 50.2500 % 3.42 C
545 10-03-2019 16:00:00 12.53333 C 50.1667 % 2.45 C
546 10-03-2019 17:00:00 10.38333 C 62.9167 % 3.64 C
547 10-03-2019 18:00:00 7.69167 C 80.2500 % 4.51 C
548 10-03-2019 19:00:00 6.94167 C 78.5833 % 3.48 C
549 10-03-2019 20:00:00 6.075 C 75.4167 % 2.06 C
550 10-03-2019 21:00:00 5.21667 C 79.1667 % 1.91 C
Sensor: Nr:Datum:Temp:Feuchte:Taupunkt:
Aussen-T/F 551 10-03-2019 22:00:00 5.05833 C 79.9167 % 1.89 C
552 10-03-2019 23:00:00 4.85833 C 80.4167 % 1.78 C
553 11-03-2019 00:00:00 4.34167 C 81.0833 % 1.39 C
554 11-03-2019 01:00:00 4.50833 C 79.6667 % 1.31 C
555 11-03-2019 02:00:00 5.10833 C 78.9167 % 1.76 C
556 11-03-2019 03:00:00 3.65833 C 85.3333 % 1.43 C
557 11-03-2019 04:00:00 2.36667 C 92.5833 % 1.29 C
558 11-03-2019 05:00:00 2.20833 C 92.7500 % 1.16 C
559 11-03-2019 06:00:00 1.74167 C 92.5000 % 0.66 C
560 11-03-2019 07:00:00 1.525 C 94.1667 % 0.69 C
561 11-03-2019 08:00:00 2.31667 C 95.0000 % 1.6 C
562 11-03-2019 09:00:00 3.34167 C 89.4167 % 1.77 C
563 11-03-2019 10:00:00 3.925 C 88.3333 % 2.18 C
564 11-03-2019 11:00:00 4.875 C 82.3333 % 2.12 C
565 11-03-2019 12:00:00 5.60833 C 76.3333 % 1.78 C
566 11-03-2019 13:00:00 6.575 C 71.8333 % 1.87 C
567 11-03-2019 14:00:00 7.04167 C 70.1667 % 1.99 C
568 11-03-2019 15:00:00 7.63333 C 66.7500 % 1.86 C
569 11-03-2019 16:00:00 7.26667 C 68.2500 % 1.82 C
570 11-03-2019 17:00:00 7.175 C 70.1667 % 2.11 C
571 11-03-2019 18:00:00 6.93333 C 68.6667 % 1.58 C
572 11-03-2019 19:00:00 5.83333 C 72.6667 % 1.31 C
573 11-03-2019 20:00:00 5.68333 C 73.5000 % 1.33 C
574 11-03-2019 21:00:00 5.28333 C 75.0000 % 1.22 C
575 11-03-2019 22:00:00 5.34167 C 74.4167 % 1.17 C
Sensor: Nr:Datum:Temp:Feuchte:Taupunkt:
Aussen-T/F 576 11-03-2019 23:00:00 4.75 C 76.0000 % 0.89 C
577 12-03-2019 00:00:00 4.19167 C 80.0833 % 1.07 C
578 12-03-2019 01:00:00 3.225 C 84.0833 % 0.8 C
579 12-03-2019 02:00:00 2.15833 C 87.0000 % 0.23 C
580 12-03-2019 03:00:00 1.65833 C 88.7500 % 0.01 C
581 12-03-2019 04:00:00 1.33333 C 89.4167 % -0.21 C
582 12-03-2019 05:00:00 1.625 C 90.0000 % 0.17 C
583 12-03-2019 06:00:00 1.76667 C 89.5833 % 0.24 C
584 12-03-2019 07:00:00 1.93333 C 90.7500 % 0.59 C
585 12-03-2019 08:00:00 3.25 C 88.9167 % 1.6 C
586 12-03-2019 09:00:00 5.20833 C 82.5000 % 2.48 C
587 12-03-2019 10:00:00 7.4 C 72.3333 % 2.76 C
588 12-03-2019 11:00:00 8.78333 C 63.5833 % 2.27 C
589 12-03-2019 12:00:00 9.40833 C 61.1667 % 2.32 C
590 12-03-2019 13:00:00 9.74167 C 59.4167 % 2.22 C
591 12-03-2019 14:00:00 10.18333 C 57.6667 % 2.22 C
592 12-03-2019 15:00:00 10.56667 C 54.0000 % 1.66 C
593 12-03-2019 16:00:00 10.33333 C 50.2500 % 0.45 C
594 12-03-2019 17:00:00 9.34167 C 55.5000 % 0.9 C
595 12-03-2019 18:00:00 8.1 C 61.2500 % 1.1 C
596 12-03-2019 19:00:00 8.725 C 54.1667 % -0.01 C
597 12-03-2019 20:00:00 9.425 C 46.5000 % -1.45 C
598 12-03-2019 21:00:00 10.74167 C 45.6667 % -0.49 C
599 12-03-2019 22:00:00 11.14167 C 53.9167 % 2.17 C
600 12-03-2019 23:00:00 8.53333 C 76.6667 % 4.68 C
Sensor: Nr:Datum:Temp:Feuchte:Taupunkt:
Aussen-T/F 601 13-03-2019 00:00:00 6.53333 C 80.5833 % 3.44 C
602 13-03-2019 01:00:00 5.74167 C 79.4167 % 2.46 C
603 13-03-2019 02:00:00 5.425 C 80.1667 % 2.29 C
604 13-03-2019 03:00:00 5.74167 C 77.1667 % 2.06 C
605 13-03-2019 04:00:00 5.53333 C 79.7500 % 2.32 C
606 13-03-2019 05:00:00 5.34167 C 83.0833 % 2.71 C
607 13-03-2019 06:00:00 5.16667 C 82.7500 % 2.48 C
608 13-03-2019 07:00:00 5.46667 C 80.5833 % 2.4 C
609 13-03-2019 08:00:00 6.08333 C 80.1667 % 2.93 C
610 13-03-2019 09:00:00 6.5 C 77.8333 % 2.92 C
611 13-03-2019 10:00:00 6.94167 C 77.2500 % 3.24 C
612 13-03-2019 11:00:00 7.81667 C 75.1667 % 3.7 C
613 13-03-2019 12:00:00 8.15833 C 74.4167 % 3.89 C
614 13-03-2019 13:00:00 7.95833 C 76.5000 % 4.09 C
615 13-03-2019 14:00:00 8.05 C 78.0833 % 4.47 C
616 13-03-2019 15:00:00 7.79167 C 80.1667 % 4.59 C
617 13-03-2019 16:00:00 6.825 C 87.3333 % 4.87 C
618 13-03-2019 17:00:00 6.65833 C 87.8333 % 4.79 C
619 13-03-2019 18:00:00 6.55 C 87.6667 % 4.65 C
620 13-03-2019 19:00:00 4.95833 C 91.9167 % 3.76 C
621 13-03-2019 20:00:00 4.94167 C 92.2500 % 3.79 C
622 13-03-2019 21:00:00 4.94167 C 92.5833 % 3.84 C
623 13-03-2019 22:00:00 5.04167 C 93.0000 % 4.01 C
624 13-03-2019 23:00:00 4.725 C 92.6667 % 3.64 C
625 14-03-2019 00:00:00 4.65 C 92.4167 % 3.53 C
Sensor: Nr:Datum:Temp:Feuchte:Taupunkt:
Aussen-T/F 626 14-03-2019 01:00:00 5.13333 C 90.5833 % 3.72 C
627 14-03-2019 02:00:00 4.81667 C 91.9167 % 3.62 C
628 14-03-2019 03:00:00 4.46667 C 93.0000 % 3.44 C
629 14-03-2019 04:00:00 5.05 C 93.3333 % 4.07 C
630 14-03-2019 05:00:00 5.73333 C 91.6667 % 4.49 C
631 14-03-2019 06:00:00 6.13333 C 89.2500 % 4.5 C
632 14-03-2019 07:00:00 6.35 C 87.2500 % 4.39 C
633 14-03-2019 08:00:00 6.70833 C 85.5833 % 4.47 C
634 14-03-2019 09:00:00 6.41667 C 88.8333 % 4.71 C
635 14-03-2019 10:00:00 6.55 C 88.2500 % 4.75 C
636 14-03-2019 11:00:00 6.55833 C 89.0833 % 4.89 C
637 14-03-2019 12:00:00 7.15 C 88.7500 % 5.42 C
638 14-03-2019 13:00:00 7.30833 C 88.5000 % 5.54 C
639 14-03-2019 14:00:00 7.33333 C 87.9167 % 5.47 C
640 14-03-2019 15:00:00 7.69167 C 90.1667 % 6.18 C
641 14-03-2019 16:00:00 8.875 C 86.1667 % 6.69 C
642 14-03-2019 17:00:00 9.85833 C 84.6667 % 7.4 C
643 14-03-2019 18:00:00 9.875 C 82.5833 % 7.05 C
644 14-03-2019 19:00:00 9.54167 C 77.4167 % 5.79 C
645 14-03-2019 20:00:00 7.96667 C 85.0833 % 5.62 C
646 14-03-2019 21:00:00 8.2 C 83.0000 % 5.49 C
647 14-03-2019 22:00:00 8.38333 C 79.7500 % 5.1 C
648 14-03-2019 23:00:00 8.11667 C 79.2500 % 4.75 C
649 15-03-2019 00:00:00 7.11667 C 83.0000 % 4.43 C
650 15-03-2019 01:00:00 6.38333 C 85.8333 % 4.19 C
Sensor: Nr:Datum:Temp:Feuchte:Taupunkt:
Aussen-T/F 651 15-03-2019 02:00:00 6.86667 C 85.5833 % 4.62 C
652 15-03-2019 03:00:00 6.40833 C 87.0000 % 4.41 C
653 15-03-2019 04:00:00 6.04167 C 89.3333 % 4.42 C
654 15-03-2019 05:00:00 7.00833 C 87.5833 % 5.09 C
655 15-03-2019 06:00:00 7.225 C 90.0000 % 5.7 C
656 15-03-2019 07:00:00 7.125 C 92.8333 % 6.05 C
657 15-03-2019 08:00:00 7.49167 C 94.0000 % 6.59 C
658 15-03-2019 09:00:00 8.2 C 94.0000 % 7.29 C
659 15-03-2019 10:00:00 9.375 C 94.0000 % 8.46 C
660 15-03-2019 11:00:00 11.05 C 91.5833 % 9.73 C
661 15-03-2019 12:00:00 12.38333 C 88.5000 % 10.54 C
662 15-03-2019 13:00:00 13.11667 C 84.5833 % 10.58 C
663 15-03-2019 14:00:00 13.66667 C 80.9167 % 10.45 C
664 15-03-2019 15:00:00 13.51667 C 82.7500 % 10.64 C
665 15-03-2019 16:00:00 13.38333 C 82.0000 % 10.38 C
666 15-03-2019 17:00:00 13.03333 C 82.7500 % 10.17 C
667 15-03-2019 18:00:00 12.70833 C 84.2500 % 10.12 C
668 15-03-2019 19:00:00 12.64167 C 84.5833 % 10.12 C
669 15-03-2019 20:00:00 12.10833 C 88.0833 % 10.2 C
670 15-03-2019 21:00:00 12.25 C 86.6667 % 10.09 C
671 15-03-2019 22:00:00 12.4 C 85.1667 % 9.98 C
672 15-03-2019 23:00:00 11.85833 C 87.8333 % 9.91 C
673 16-03-2019 00:00:00 11.575 C 88.5000 % 9.74 C
674 16-03-2019 01:00:00 9.79167 C 91.7500 % 8.52 C
675 16-03-2019 02:00:00 8.93333 C 92.1667 % 7.73 C
Sensor: Nr:Datum:Temp:Feuchte:Taupunkt:
Aussen-T/F 676 16-03-2019 03:00:00 8.41667 C 93.7500 % 7.47 C
677 16-03-2019 04:00:00 8.3 C 95.0000 % 7.55 C
678 16-03-2019 05:00:00 8.3 C 95.0833 % 7.56 C
679 16-03-2019 06:00:00 8.73333 C 96.3333 % 8.18 C
680 16-03-2019 07:00:00 9.88333 C 95.0833 % 9.13 C
681 16-03-2019 08:00:00 10.375 C 93.1667 % 9.32 C
682 16-03-2019 09:00:00 10.71667 C 91.7500 % 9.43 C
683 16-03-2019 10:00:00 10.84167 C 90.0000 % 9.27 C
684 16-03-2019 11:00:00 10.825 C 89.2500 % 9.13 C
685 16-03-2019 12:00:00 11.46667 C 84.0000 % 8.86 C
686 16-03-2019 13:00:00 11.75833 C 80.0000 % 8.43 C
687 16-03-2019 14:00:00 11.125 C 80.8333 % 7.96 C
688 16-03-2019 15:00:00 10.94167 C 78.5833 % 7.37 C
689 16-03-2019 16:00:00 10.99167 C 77.4167 % 7.2 C
690 16-03-2019 17:00:00 10.9 C 76.2500 % 6.89 C
691 16-03-2019 18:00:00 10.69167 C 76.4167 % 6.72 C
692 16-03-2019 19:00:00 10.43333 C 76.0000 % 6.39 C
693 16-03-2019 20:00:00 10.31667 C 75.5000 % 6.18 C
694 16-03-2019 21:00:00 10.10833 C 78.0833 % 6.47 C
695 16-03-2019 22:00:00 10.09167 C 79.0833 % 6.64 C
696 16-03-2019 23:00:00 10.11667 C 79.0000 % 6.64 C
697 17-03-2019 00:00:00 10.29167 C 77.8333 % 6.6 C
698 17-03-2019 01:00:00 10.425 C 77.0000 % 6.57 C
699 17-03-2019 02:00:00 10.20833 C 77.5833 % 6.47 C
700 17-03-2019 03:00:00 10.19167 C 77.0000 % 6.35 C
Sensor: Nr:Datum:Temp:Feuchte:Taupunkt:
Aussen-T/F 701 17-03-2019 04:00:00 10.11667 C 76.0833 % 6.1 C
702 17-03-2019 05:00:00 10.28333 C 74.7500 % 6.01 C
703 17-03-2019 06:00:00 10.23333 C 74.2500 % 5.86 C
704 17-03-2019 07:00:00 10.24167 C 76.0000 % 6.2 C
705 17-03-2019 08:00:00 10.2 C 78.8333 % 6.7 C
706 17-03-2019 09:00:00 10.26667 C 79.6667 % 6.91 C
707 17-03-2019 10:00:00 9.89167 C 82.5833 % 7.07 C
708 17-03-2019 11:00:00 8.075 C 84.0000 % 5.54 C
709 17-03-2019 12:00:00 8.78333 C 79.0000 % 5.35 C
710 17-03-2019 13:00:00 9.80833 C 75.7500 % 5.74 C
711 17-03-2019 14:00:00 10.71667 C 64.5833 % 4.32 C
712 17-03-2019 15:00:00 11.01667 C 65.4167 % 4.79 C
713 17-03-2019 16:00:00 10.05 C 64.5833 % 3.69 C
714 17-03-2019 17:00:00 7.89167 C 69.4167 % 2.65 C
715 17-03-2019 18:00:00 7.01667 C 75.5833 % 3.01 C
716 17-03-2019 19:00:00 5.95833 C 80.5833 % 2.88 C
717 17-03-2019 20:00:00 4.51667 C 88.8333 % 2.84 C
718 17-03-2019 21:00:00 4.025 C 90.4167 % 2.6 C
719 17-03-2019 22:00:00 3.875 C 89.8333 % 2.36 C
720 17-03-2019 23:00:00 3.83333 C 88.0000 % 2.03 C
721 18-03-2019 00:00:00 2.95 C 90.0000 % 1.48 C
722 18-03-2019 01:00:00 2.55 C 91.6667 % 1.33 C
723 18-03-2019 02:00:00 3.225 C 91.0000 % 1.9 C
724 18-03-2019 03:00:00 3.61667 C 88.3333 % 1.87 C
725 18-03-2019 04:00:00 3.25 C 89.5000 % 1.69 C
Sensor: Nr:Datum:Temp:Feuchte:Taupunkt:
Aussen-T/F 726 18-03-2019 05:00:00 3.10833 C 89.5833 % 1.57 C
727 18-03-2019 06:00:00 3.95833 C 86.5000 % 1.92 C
728 18-03-2019 07:00:00 4.225 C 86.4167 % 2.16 C
729 18-03-2019 08:00:00 5.04167 C 85.7500 % 2.86 C
730 18-03-2019 09:00:00 5.06667 C 89.5833 % 3.5 C
731 18-03-2019 10:00:00 6.36667 C 85.6667 % 4.15 C
732 18-03-2019 11:00:00 7.74167 C 77.4167 % 4.05 C
733 18-03-2019 12:00:00 8.06667 C 71.9167 % 3.32 C
734 18-03-2019 13:00:00 6.66667 C 84.8333 % 4.3 C
735 18-03-2019 14:00:00 8.43333 C 72.7500 % 3.83 C
736 18-03-2019 15:00:00 6.71667 C 85.9167 % 4.53 C
737 18-03-2019 16:00:00 6.875 C 86.1667 % 4.73 C
738 18-03-2019 17:00:00 7.95833 C 74.3333 % 3.68 C
739 18-03-2019 18:00:00 7.49167 C 75.3333 % 3.42 C
740 18-03-2019 19:00:00 5.20833 C 85.3333 % 2.95 C
741 18-03-2019 20:00:00 4.01667 C 86.0000 % 1.89 C
742 18-03-2019 21:00:00 3.09167 C 87.9167 % 1.29 C
743 18-03-2019 22:00:00 2.04167 C 89.7500 % 0.54 C
744 18-03-2019 23:00:00 1.48333 C 91.8333 % 0.3 C
745 19-03-2019 00:00:00 0.93333 C 92.3333 % -0.17 C
746 19-03-2019 01:00:00 0.35833 C 93.0000 % -0.64 C
747 19-03-2019 02:00:00 -0.04167 C 93.6667 % -0.94 C
748 19-03-2019 03:00:00 -0.3 C 94.0000 % -1.15 C
749 19-03-2019 04:00:00 -0.70833 C 94.0000 % -1.55 C
750 19-03-2019 05:00:00 -1.03333 C 94.2500 % -1.84 C
Sensor: Nr:Datum:Temp:Feuchte:Taupunkt:
Aussen-T/F 751 19-03-2019 06:00:00 -1.2 C 94.6667 % -1.94 C
752 19-03-2019 07:00:00 -0.375 C 95.1667 % -1.05 C
753 19-03-2019 08:00:00 -0.04167 C 95.0000 % -0.74 C
754 19-03-2019 09:00:00 0.675 C 95.0833 % -0.02 C
755 19-03-2019 10:00:00 2.36667 C 94.5833 % 1.59 C
756 19-03-2019 11:00:00 5.125 C 86.3333 % 3.04 C
757 19-03-2019 12:00:00 7.29167 C 68.6667 % 1.92 C
758 19-03-2019 13:00:00 8.93333 C 58.5000 % 1.25 C
759 19-03-2019 14:00:00 9.975 C 56.5000 % 1.74 C
760 19-03-2019 15:00:00 10.15 C 53.2500 % 1.08 C
761 19-03-2019 16:00:00 11.51667 C 48.5000 % 1.05 C
762 19-03-2019 17:00:00 12.00833 C 45.3333 % 0.56 C
763 19-03-2019 18:00:00 9.65 C 60.7500 % 2.45 C
764 19-03-2019 19:00:00 5.6 C 77.1667 % 1.92 C
765 19-03-2019 20:00:00 4.4 C 81.5000 % 1.52 C
766 19-03-2019 21:00:00 3.1 C 85.0000 % 0.83 C
767 19-03-2019 22:00:00 2.025 C 87.0000 % 0.09 C
768 19-03-2019 23:00:00 1.68333 C 87.7500 % -0.12 C
769 20-03-2019 00:00:00 0.8 C 89.1667 % -0.78 C
770 20-03-2019 01:00:00 0.35833 C 90.8333 % -0.96 C
771 20-03-2019 02:00:00 -0.16667 C 91.4167 % -1.39 C
772 20-03-2019 03:00:00 -0.55 C 92.0000 % -1.69 C
773 20-03-2019 04:00:00 -0.90833 C 92.7500 % -1.93 C
774 20-03-2019 05:00:00 -1.10833 C 93.0833 % -2.08 C
775 20-03-2019 06:00:00 -1.225 C 93.7500 % -2.1 C
Sensor: Nr:Datum:Temp:Feuchte:Taupunkt:
Aussen-T/F 776 20-03-2019 07:00:00 -1.08333 C 94.0000 % -1.92 C
777 20-03-2019 08:00:00 -0.675 C 94.5000 % -1.45 C
778 20-03-2019 09:00:00 0.575 C 95.0000 % -0.13 C
779 20-03-2019 10:00:00 4.26667 C 89.9167 % 2.76 C
780 20-03-2019 11:00:00 8.875 C 69.3333 % 3.58 C
781 20-03-2019 12:00:00 11.63333 C 56.5833 % 3.31 C
782 20-03-2019 13:00:00 13.15833 C 48.3333 % 2.5 C
783 20-03-2019 14:00:00 13.75833 C 46.4167 % 2.48 C
784 20-03-2019 15:00:00 13.64167 C 47.5833 % 2.73 C
785 20-03-2019 16:00:00 14.11667 C 48.2500 % 3.36 C
786 20-03-2019 17:00:00 14.83333 C 49.5000 % 4.38 C
787 20-03-2019 18:00:00 11.88333 C 63.3333 % 5.15 C
788 20-03-2019 19:00:00 8.5 C 73.3333 % 4.01 C
789 20-03-2019 20:00:00 6.85 C 79.2500 % 3.51 C
790 20-03-2019 21:00:00 5.43333 C 83.6667 % 2.9 C
791 20-03-2019 22:00:00 4.725 C 85.5000 % 2.51 C
792 20-03-2019 23:00:00 3.81667 C 87.4167 % 1.92 C
793 21-03-2019 00:00:00 3.31667 C 88.6667 % 1.63 C
794 21-03-2019 01:00:00 2.55 C 89.0833 % 0.94 C
795 21-03-2019 02:00:00 1.81667 C 90.9167 % 0.5 C
796 21-03-2019 03:00:00 1.30833 C 91.8333 % 0.13 C
797 21-03-2019 04:00:00 0.99167 C 92.8333 % -0.03 C
798 21-03-2019 05:00:00 0.61667 C 93.3333 % -0.33 C
799 21-03-2019 06:00:00 0.33333 C 93.9167 % -0.53 C
800 21-03-2019 07:00:00 0.6 C 94.3333 % -0.2 C
Sensor: Nr:Datum:Temp:Feuchte:Taupunkt:
Aussen-T/F 801 21-03-2019 08:00:00 1.24167 C 94.9167 % 0.52 C
802 21-03-2019 09:00:00 2.50833 C 95.0000 % 1.79 C
803 21-03-2019 10:00:00 5.54167 C 90.4167 % 4.1 C
804 21-03-2019 11:00:00 9.275 C 75.5833 % 5.19 C
805 21-03-2019 12:00:00 12.99167 C 53.9167 % 3.89 C
806 21-03-2019 13:00:00 15.43333 C 43.5000 % 3.09 C
807 21-03-2019 14:00:00 16.23333 C 39.4167 % 2.43 C
808 21-03-2019 15:00:00 16.43333 C 39.0000 % 2.46 C
809 21-03-2019 16:00:00 17.625 C 37.7500 % 3.06 C
810 21-03-2019 17:00:00 18.01667 C 38.0000 % 3.5 C
811 21-03-2019 18:00:00 14.68333 C 52.6667 % 5.13 C
812 21-03-2019 19:00:00 10.96667 C 64.2500 % 4.49 C
813 21-03-2019 20:00:00 9.20833 C 71.7500 % 4.38 C
814 21-03-2019 21:00:00 7.65 C 74.8333 % 3.48 C
815 21-03-2019 22:00:00 6.15833 C 78.6667 % 2.74 C
816 21-03-2019 23:00:00 5.26667 C 82.0000 % 2.45 C
817 22-03-2019 00:00:00 4.425 C 84.7500 % 2.09 C
818 22-03-2019 01:00:00 3.69167 C 87.2500 % 1.77 C
819 22-03-2019 02:00:00 3.03333 C 88.4167 % 1.31 C
820 22-03-2019 03:00:00 2.20833 C 90.0833 % 0.76 C
821 22-03-2019 04:00:00 1.74167 C 92.0000 % 0.58 C
822 22-03-2019 05:00:00 1.53333 C 92.9167 % 0.52 C
823 22-03-2019 06:00:00 1.06667 C 93.1667 % 0.09 C
824 22-03-2019 07:00:00 1.24167 C 94.0000 % 0.39 C
825 22-03-2019 08:00:00 1.95833 C 94.9167 % 1.23 C
Sensor: Nr:Datum:Temp:Feuchte:Taupunkt:
Aussen-T/F 826 22-03-2019 09:00:00 3.70833 C 95.3333 % 3.03 C
827 22-03-2019 10:00:00 7.06667 C 90.1667 % 5.57 C
828 22-03-2019 11:00:00 11.70833 C 72.9167 % 7.02 C
829 22-03-2019 12:00:00 15.65 C 53.0833 % 6.13 C
830 22-03-2019 13:00:00 18.11667 C 41.8333 % 4.96 C
831 22-03-2019 14:00:00 19.29167 C 36.0000 % 3.86 C
832 22-03-2019 15:00:00 19.26667 C 38.6667 % 4.86 C
833 22-03-2019 16:00:00 19.83333 C 37.7500 % 5.02 C
834 22-03-2019 17:00:00 20.95833 C 35.4167 % 5.1 C
835 22-03-2019 18:00:00 16.7 C 50.5833 % 6.41 C
836 22-03-2019 19:00:00 12.225 C 63.5000 % 5.51 C
837 22-03-2019 20:00:00 10.825 C 68.0833 % 5.18 C
838 22-03-2019 21:00:00 9.1 C 72.7500 % 4.48 C
839 22-03-2019 22:00:00 7.775 C 77.9167 % 4.17 C
840 22-03-2019 23:00:00 6.66667 C 80.2500 % 3.51 C
841 23-03-2019 00:00:00 5.5 C 83.0000 % 2.85 C
842 23-03-2019 01:00:00 4.74167 C 85.5000 % 2.52 C
843 23-03-2019 02:00:00 4.05 C 88.1667 % 2.27 C
844 23-03-2019 03:00:00 3.69167 C 88.9167 % 2.04 C
845 23-03-2019 04:00:00 3.425 C 90.0833 % 1.96 C
846 23-03-2019 05:00:00 3.28333 C 89.8333 % 1.78 C
847 23-03-2019 06:00:00 2.525 C 91.1667 % 1.23 C
848 23-03-2019 07:00:00 4.06667 C 94.2500 % 3.23 C
849 23-03-2019 08:00:00 6.20833 C 95.0000 % 5.47 C
850 23-03-2019 09:00:00 6.63333 C 94.3333 % 5.79 C
Sensor: Nr:Datum:Temp:Feuchte:Taupunkt:
Aussen-T/F 851 23-03-2019 10:00:00 7.18333 C 93.7500 % 6.25 C
852 23-03-2019 11:00:00 7.53333 C 92.5833 % 6.41 C
853 23-03-2019 12:00:00 8.125 C 90.0000 % 6.59 C
854 23-03-2019 13:00:00 8.775 C 86.3333 % 6.62 C
855 23-03-2019 14:00:00 9.45 C 81.4167 % 6.43 C
856 23-03-2019 15:00:00 10.08333 C 77.5000 % 6.33 C
857 23-03-2019 16:00:00 10.425 C 74.6667 % 6.13 C
858 23-03-2019 17:00:00 10.425 C 74.1667 % 6.03 C
859 23-03-2019 18:00:00 9.175 C 77.4167 % 5.44 C
860 23-03-2019 19:00:00 6.80833 C 85.0833 % 4.48 C
861 23-03-2019 20:00:00 5.38333 C 88.7500 % 3.68 C
862 23-03-2019 21:00:00 4.33333 C 91.2500 % 3.04 C
863 23-03-2019 22:00:00 3.55833 C 92.9167 % 2.52 C
864 23-03-2019 23:00:00 3.075 C 94.0000 % 2.21 C
865 24-03-2019 00:00:00 2.4 C 94.3333 % 1.58 C
866 24-03-2019 01:00:00 1.9 C 94.8333 % 1.16 C
867 24-03-2019 02:00:00 1.425 C 95.0000 % 0.71 C
868 24-03-2019 03:00:00 0.96667 C 95.0000 % 0.26 C
869 24-03-2019 04:00:00 0.89167 C 95.8333 % 0.3 C
870 24-03-2019 05:00:00 1.725 C 96.0000 % 1.16 C
871 24-03-2019 07:00:00 2.78182 C 96.0000 % 2.21 C
872 24-03-2019 08:00:00 3.66667 C 96.7500 % 3.2 C
873 24-03-2019 09:00:00 4.85 C 95.6667 % 4.22 C
874 24-03-2019 10:00:00 6.875 C 92.4167 % 5.73 C
875 24-03-2019 11:00:00 9.54167 C 85.4167 % 7.22 C
Sensor: Nr:Datum:Temp:Feuchte:Taupunkt:
Aussen-T/F 876 24-03-2019 12:00:00 11.74167 C 76.9167 % 7.83 C
877 24-03-2019 13:00:00 10.88333 C 81.2500 % 7.8 C
878 24-03-2019 14:00:00 10.64167 C 82.5833 % 7.8 C
879 24-03-2019 15:00:00 11.09167 C 78.2500 % 7.45 C
880 24-03-2019 16:00:00 12.03333 C 71.6667 % 7.08 C
881 24-03-2019 17:00:00 12.28333 C 65.0000 % 5.9 C
882 24-03-2019 18:00:00 11.30833 C 62.4167 % 4.4 C
883 24-03-2019 19:00:00 9.075 C 65.0833 % 2.87 C
884 24-03-2019 20:00:00 7.18333 C 70.8333 % 2.26 C
885 24-03-2019 21:00:00 5.59167 C 76.3333 % 1.77 C
886 24-03-2019 22:00:00 4.23333 C 80.7500 % 1.23 C
887 24-03-2019 23:00:00 3.56667 C 82.7500 % 0.92 C
888 25-03-2019 00:00:00 3.35 C 82.5000 % 0.66 C
889 25-03-2019 01:00:00 1.875 C 86.4167 % -0.15 C
890 25-03-2019 02:00:00 1.89167 C 88.9167 % 0.26 C
891 25-03-2019 03:00:00 2.29167 C 88.0000 % 0.51 C
892 25-03-2019 04:00:00 2.85833 C 86.0833 % 0.77 C
893 25-03-2019 05:00:00 3.675 C 82.4167 % 0.97 C
894 25-03-2019 06:00:00 3.74167 C 83.0833 % 1.14 C
895 25-03-2019 07:00:00 4.38333 C 84.8333 % 2.06 C
896 25-03-2019 08:00:00 4.56667 C 91.0000 % 3.23 C
897 25-03-2019 09:00:00 6.15 C 85.2500 % 3.86 C
898 25-03-2019 10:00:00 7.41667 C 74.3333 % 3.16 C
899 25-03-2019 11:00:00 7.375 C 75.6667 % 3.37 C
900 25-03-2019 12:00:00 7.725 C 77.6667 % 4.08 C
Sensor: Nr:Datum:Temp:Feuchte:Taupunkt:
Aussen-T/F 901 25-03-2019 13:00:00 7.55 C 80.6667 % 4.45 C
902 25-03-2019 14:00:00 7.65833 C 76.7500 % 3.84 C
903 25-03-2019 15:00:00 7.18333 C 83.7500 % 4.62 C
904 25-03-2019 16:00:00 7.29167 C 84.0833 % 4.79 C
905 25-03-2019 17:00:00 5.71667 C 89.9167 % 4.19 C
906 25-03-2019 18:00:00 5.3 C 93.2500 % 4.3 C
907 25-03-2019 19:00:00 5.04167 C 93.8333 % 4.13 C
908 25-03-2019 20:00:00 5.1 C 94.7500 % 4.33 C
909 25-03-2019 21:00:00 5.24167 C 95.0000 % 4.51 C
910 25-03-2019 22:00:00 5.15833 C 93.0833 % 4.13 C
911 25-03-2019 23:00:00 4.65 C 93.3333 % 3.67 C
912 26-03-2019 00:00:00 4.49167 C 94.5833 % 3.7 C
913 26-03-2019 01:00:00 4.525 C 94.0000 % 3.65 C
914 26-03-2019 02:00:00 4.375 C 94.9167 % 3.63 C
915 26-03-2019 03:00:00 4.64167 C 95.0000 % 3.91 C
916 26-03-2019 04:00:00 4.91667 C 95.0000 % 4.18 C
917 26-03-2019 05:00:00 5.00833 C 93.7500 % 4.09 C
918 26-03-2019 06:00:00 4.99167 C 91.7500 % 3.76 C
919 26-03-2019 07:00:00 5.06667 C 90.0833 % 3.58 C
920 26-03-2019 08:00:00 5.55 C 85.1667 % 3.26 C
921 26-03-2019 09:00:00 6.225 C 80.1667 % 3.07 C
922 26-03-2019 10:00:00 6.98333 C 76.4167 % 3.13 C
923 26-03-2019 11:00:00 7.26667 C 71.8333 % 2.53 C
924 26-03-2019 12:00:00 8.46667 C 69.5833 % 3.24 C
925 26-03-2019 13:00:00 8.85 C 66.0000 % 2.86 C
Sensor: Nr:Datum:Temp:Feuchte:Taupunkt:
Aussen-T/F 926 26-03-2019 14:00:00 8.875 C 65.0000 % 2.67 C
927 26-03-2019 15:00:00 9.03333 C 66.5833 % 3.15 C
928 26-03-2019 16:00:00 9.49167 C 64.7500 % 3.2 C
929 26-03-2019 17:00:00 8.43333 C 71.1667 % 3.52 C
930 26-03-2019 18:00:00 8.11667 C 73.9167 % 3.75 C
931 26-03-2019 19:00:00 7.59167 C 78.6667 % 4.13 C
932 26-03-2019 20:00:00 7.075 C 82.1667 % 4.25 C
933 26-03-2019 21:00:00 6.81667 C 84.0833 % 4.32 C
934 26-03-2019 22:00:00 6.51667 C 86.2500 % 4.39 C
935 26-03-2019 23:00:00 6.24167 C 87.0833 % 4.26 C
936 27-03-2019 00:00:00 6.10833 C 87.5000 % 4.19 C
937 27-03-2019 01:00:00 5.575 C 89.0833 % 3.92 C
938 27-03-2019 02:00:00 5.25 C 90.5000 % 3.83 C
939 27-03-2019 03:00:00 4.9 C 90.6667 % 3.51 C
940 27-03-2019 04:00:00 4.05833 C 91.0000 % 2.73 C
941 27-03-2019 05:00:00 2.91667 C 91.9167 % 1.74 C
942 27-03-2019 06:00:00 2.1 C 93.4167 % 1.15 C
943 27-03-2019 07:00:00 2.6 C 94.5833 % 1.82 C
944 27-03-2019 08:00:00 3.88333 C 94.6667 % 3.11 C
945 27-03-2019 09:00:00 5.8 C 91.8333 % 4.58 C
946 27-03-2019 10:00:00 8.16667 C 83.7500 % 5.59 C
947 27-03-2019 11:00:00 9.13333 C 76.5000 % 5.23 C
948 27-03-2019 12:00:00 10.05 C 69.5000 % 4.73 C
949 27-03-2019 13:00:00 10.8 C 63.5833 % 4.18 C
950 27-03-2019 14:00:00 11.05 C 61.0000 % 3.83 C
Sensor: Nr:Datum:Temp:Feuchte:Taupunkt:
Aussen-T/F 951 27-03-2019 15:00:00 11.10833 C 60.2500 % 3.71 C
952 27-03-2019 16:00:00 11.23333 C 59.2500 % 3.59 C
953 27-03-2019 17:00:00 10.975 C 59.9167 % 3.5 C
954 27-03-2019 18:00:00 9.83333 C 68.5833 % 4.34 C
955 27-03-2019 19:00:00 7.64167 C 77.2500 % 3.92 C
956 27-03-2019 20:00:00 6.49167 C 81.6667 % 3.59 C
957 27-03-2019 21:00:00 5.69167 C 84.9167 % 3.36 C
958 27-03-2019 22:00:00 4.725 C 86.8333 % 2.72 C
959 27-03-2019 23:00:00 3.475 C 89.9167 % 1.98 C
960 28-03-2019 00:00:00 2.925 C 91.8333 % 1.73 C
961 28-03-2019 01:00:00 2.475 C 92.3333 % 1.36 C
962 28-03-2019 02:00:00 1.975 C 93.0000 % 0.97 C
963 28-03-2019 03:00:00 1.60833 C 93.7500 % 0.71 C
964 28-03-2019 04:00:00 1.375 C 94.0000 % 0.52 C
965 28-03-2019 05:00:00 1.13333 C 94.5000 % 0.35 C
966 28-03-2019 06:00:00 1.59167 C 95.0000 % 0.88 C
967 28-03-2019 07:00:00 2.11667 C 95.0000 % 1.4 C
968 28-03-2019 08:00:00 2.79167 C 94.7500 % 2.04 C
969 28-03-2019 09:00:00 4.425 C 92.7500 % 3.36 C
970 28-03-2019 10:00:00 7.30833 C 84.6667 % 4.9 C
971 28-03-2019 11:00:00 10.325 C 75.8333 % 6.25 C
972 28-03-2019 12:00:00 12.53333 C 66.8333 % 6.54 C
973 28-03-2019 13:00:00 13.21667 C 65.8333 % 6.97 C
974 28-03-2019 14:00:00 13.5 C 64.2500 % 6.89 C
975 28-03-2019 15:00:00 13.4 C 63.6667 % 6.66 C
Sensor: Nr:Datum:Temp:Feuchte:Taupunkt:
Aussen-T/F 976 28-03-2019 16:00:00 13.45833 C 62.7500 % 6.51 C
977 28-03-2019 17:00:00 13.19167 C 63.7500 % 6.48 C
978 28-03-2019 18:00:00 12.16667 C 70.4167 % 6.95 C
979 28-03-2019 19:00:00 10.36667 C 78.1667 % 6.73 C
980 28-03-2019 20:00:00 10.23333 C 78.5000 % 6.67 C
981 28-03-2019 21:00:00 9.50833 C 79.8333 % 6.21 C
982 28-03-2019 22:00:00 7.88333 C 83.8333 % 5.32 C
983 28-03-2019 23:00:00 6.3 C 87.8333 % 4.44 C
984 29-03-2019 00:00:00 5.28333 C 90.5833 % 3.87 C
985 29-03-2019 01:00:00 4.35 C 92.2500 % 3.21 C
986 29-03-2019 02:00:00 3.85833 C 93.5000 % 2.91 C
987 29-03-2019 03:00:00 3.05833 C 94.0000 % 2.19 C
988 29-03-2019 04:00:00 2.89167 C 95.0000 % 2.17 C
989 29-03-2019 05:00:00 2.18333 C 95.0000 % 1.47 C
990 29-03-2019 06:00:00 2.075 C 95.0000 % 1.36 C
991 29-03-2019 07:00:00 2.175 C 95.8333 % 1.58 C
992 29-03-2019 08:00:00 2.93333 C 96.0833 % 2.37 C
993 29-03-2019 09:00:00 4.94167 C 96.9167 % 4.49 C
994 29-03-2019 10:00:00 8.09167 C 95.9167 % 7.48 C
995 29-03-2019 11:00:00 12.48333 C 77.7500 % 8.71 C
996 29-03-2019 12:00:00 14.475 C 66.7500 % 8.37 C
997 29-03-2019 13:00:00 15.93333 C 60.0000 % 8.18 C
998 29-03-2019 14:00:00 16.83333 C 55.2500 % 7.81 C
999 29-03-2019 15:00:00 17.475 C 52.4167 % 7.64 C
1000 29-03-2019 16:00:00 18.41667 C 49.6667 % 7.72 C
Sensor: Nr:Datum:Temp:Feuchte:Taupunkt:
Aussen-T/F 1001 29-03-2019 17:00:00 18.94167 C 47.4167 % 7.52 C
1002 29-03-2019 18:00:00 16.95833 C 53.8333 % 7.55 C
1003 29-03-2019 19:00:00 11.55 C 70.0833 % 6.29 C
1004 29-03-2019 20:00:00 9.86667 C 76.2500 % 5.89 C
1005 29-03-2019 21:00:00 8.10833 C 81.3333 % 5.11 C
1006 29-03-2019 22:00:00 6.7 C 84.5000 % 4.28 C
1007 29-03-2019 23:00:00 5.575 C 87.1667 % 3.61 C
1008 30-03-2019 00:00:00 4.59167 C 89.8333 % 3.07 C
1009 30-03-2019 01:00:00 4 C 91.5833 % 2.76 C
1010 30-03-2019 02:00:00 3.45 C 92.3333 % 2.33 C
1011 30-03-2019 03:00:00 2.8 C 93.5833 % 1.87 C
1012 30-03-2019 04:00:00 2.48333 C 94.0000 % 1.62 C
1013 30-03-2019 05:00:00 1.875 C 94.2500 % 1.05 C
1014 30-03-2019 06:00:00 1.73333 C 95.0000 % 1.02 C
1015 30-03-2019 07:00:00 2.11667 C 95.6667 % 1.5 C
1016 30-03-2019 08:00:00 3.35833 C 96.0833 % 2.79 C
1017 30-03-2019 09:00:00 5.45 C 96.6667 % 4.96 C
1018 30-03-2019 10:00:00 8.84167 C 90.8333 % 7.43 C
1019 30-03-2019 11:00:00 13.74167 C 70.4167 % 8.46 C
1020 30-03-2019 12:00:00 17.6 C 50.0000 % 7.06 C
1021 30-03-2019 13:00:00 19.30833 C 41.2500 % 5.83 C
1022 30-03-2019 14:00:00 19.93333 C 38.1667 % 5.27 C
1023 30-03-2019 15:00:00 20.41667 C 37.0000 % 5.25 C
1024 30-03-2019 16:00:00 20.54167 C 38.9167 % 6.09 C
1025 30-03-2019 17:00:00 19.46667 C 43.0833 % 6.6 C
Sensor: Nr:Datum:Temp:Feuchte:Taupunkt:
Aussen-T/F 1026 30-03-2019 18:00:00 17.30833 C 53.5000 % 7.78 C
1027 30-03-2019 19:00:00 14.88333 C 59.3333 % 7.03 C
1028 30-03-2019 20:00:00 13.79167 C 64.3333 % 7.18 C
1029 30-03-2019 21:00:00 12.4 C 69.5833 % 7 C
1030 30-03-2019 22:00:00 11.125 C 75.0000 % 6.87 C
1031 30-03-2019 23:00:00 10.80833 C 75.5833 % 6.67 C
1032 31-03-2019 00:00:00 9.55833 C 77.0833 % 5.75 C
1033 31-03-2019 01:00:00 8.38333 C 81.7500 % 5.45 C
1034 31-03-2019 02:00:00 7.30833 C 84.0000 % 4.79 C
1035 31-03-2019 04:00:00 6.45 C 85.8333 % 4.26 C
1036 31-03-2019 05:00:00 5.15 C 88.8333 % 3.46 C
1037 31-03-2019 06:00:00 4.95 C 90.5000 % 3.53 C
1038 31-03-2019 07:00:00 4.78333 C 90.8333 % 3.42 C
1039 31-03-2019 08:00:00 4.70833 C 91.9167 % 3.51 C
1040 31-03-2019 09:00:00 5.50833 C 92.9167 % 4.46 C
1041 31-03-2019 10:00:00 8 C 91.1667 % 6.65 C
1042 31-03-2019 11:00:00 11.51667 C 78.5833 % 7.93 C
1043 31-03-2019 12:00:00 14.56667 C 65.9167 % 8.28 C
1044 31-03-2019 13:00:00 16.74167 C 55.6667 % 7.84 C
1045 31-03-2019 14:00:00 18.34167 C 50.4167 % 7.87 C
1046 31-03-2019 15:00:00 18.825 C 48.1667 % 7.64 C
1047 31-03-2019 16:00:00 15.925 C 72.8333 % 11.06 C
1048 31-03-2019 17:00:00 14.2 C 89.6667 % 12.53 C
1049 31-03-2019 18:00:00 15.28333 C 76.0833 % 11.1 C
1050 31-03-2019 19:00:00 12.74167 C 80.6667 % 9.51 C
Sensor: Nr:Datum:Temp:Feuchte:Taupunkt:
Aussen-T/F 1051 31-03-2019 20:00:00 10.11667 C 87.0000 % 8.05 C
1052 31-03-2019 21:00:00 8.95 C 87.8333 % 7.05 C
1053 31-03-2019 22:00:00 8.04167 C 87.7500 % 6.14 C
1054 31-03-2019 23:00:00 7.21667 C 88.0000 % 5.37 C
1055 01-04-2019 00:00:00 6.36667 C 89.0000 % 4.69 C
1056 01-04-2019 01:00:00 5.74167 C 89.3333 % 4.13 C
1057 01-04-2019 02:00:00 5.25 C 90.0000 % 3.75 C
1058 01-04-2019 03:00:00 4.69167 C 90.6667 % 3.3 C
1059 01-04-2019 04:00:00 4.31667 C 90.9167 % 2.97 C
1060 01-04-2019 05:00:00 3.975 C 91.0833 % 2.66 C
1061 01-04-2019 06:00:00 3.56667 C 91.7500 % 2.35 C
1062 01-04-2019 07:00:00 3.15 C 92.2500 % 2.02 C
1063 01-04-2019 08:00:00 3.16667 C 93.2500 % 2.18 C
1064 01-04-2019 09:00:00 4.29167 C 92.7500 % 3.22 C
1065 01-04-2019 10:00:00 6.65 C 83.5000 % 4.06 C
1066 01-04-2019 11:00:00 9.53333 C 71.2500 % 4.59 C
1067 01-04-2019 12:00:00 11.28333 C 65.7500 % 5.12 C
1068 01-04-2019 13:00:00 13.00833 C 61.3333 % 5.75 C
1069 01-04-2019 14:00:00 14.91667 C 56.9167 % 6.46 C
1070 01-04-2019 15:00:00 16.39167 C 53.7500 % 7 C
1071 01-04-2019 16:00:00 17.5 C 50.5000 % 7.12 C
1072 01-04-2019 17:00:00 18.275 C 47.6667 % 6.99 C
1073 01-04-2019 18:00:00 17.875 C 47.3333 % 6.52 C
1074 01-04-2019 19:00:00 16 C 55.9167 % 7.21 C
1075 01-04-2019 20:00:00 11.775 C 70.5000 % 6.59 C
Sensor: Nr:Datum:Temp:Feuchte:Taupunkt:
Aussen-T/F 1076 01-04-2019 21:00:00 10.15833 C 75.6667 % 6.06 C
1077 01-04-2019 22:00:00 9.35 C 77.0833 % 5.55 C
1078 01-04-2019 23:00:00 8.79167 C 77.4167 % 5.07 C
1079 02-04-2019 00:00:00 7.93333 C 80.5000 % 4.79 C
1080 02-04-2019 01:00:00 7.04167 C 83.1667 % 4.39 C
1081 02-04-2019 02:00:00 6.3 C 84.6667 % 3.91 C
1082 02-04-2019 03:00:00 5.09167 C 87.5000 % 3.19 C
1083 02-04-2019 04:00:00 4.39167 C 90.0833 % 2.91 C
1084 02-04-2019 05:00:00 3.96667 C 91.1667 % 2.66 C
1085 02-04-2019 06:00:00 3.88333 C 92.0833 % 2.72 C
1086 02-04-2019 07:00:00 4.00833 C 92.9167 % 2.97 C
1087 02-04-2019 08:00:00 4.98333 C 92.9167 % 3.94 C
1088 02-04-2019 09:00:00 6.53333 C 89.3333 % 4.91 C
1089 02-04-2019 10:00:00 8.71667 C 82.0000 % 5.82 C
1090 02-04-2019 11:00:00 11.95 C 74.9167 % 7.65 C
1091 02-04-2019 12:00:00 15.01667 C 66.7500 % 8.89 C
1092 02-04-2019 13:00:00 16.80833 C 60.8333 % 9.21 C
1093 02-04-2019 14:00:00 17.975 C 58.0833 % 9.62 C
1094 02-04-2019 15:00:00 16.725 C 63.9167 % 9.87 C
1095 02-04-2019 16:00:00 17.46667 C 57.6667 % 9.04 C
1096 02-04-2019 17:00:00 16.00833 C 65.9167 % 9.65 C
1097 02-04-2019 18:00:00 16.08333 C 63.5833 % 9.18 C
1098 02-04-2019 19:00:00 15.35833 C 66.0000 % 9.05 C
1099 02-04-2019 20:00:00 14.03333 C 71.0833 % 8.88 C
1100 02-04-2019 21:00:00 13.50833 C 69.4167 % 8.03 C
Sensor: Nr:Datum:Temp:Feuchte:Taupunkt:
Aussen-T/F 1101 02-04-2019 22:00:00 12.66667 C 70.1667 % 7.38 C
1102 02-04-2019 23:00:00 11.4 C 74.0833 % 6.95 C
1103 03-04-2019 00:00:00 10.50833 C 78.7500 % 6.98 C
1104 03-04-2019 01:00:00 10.275 C 79.6667 % 6.92 C
1105 03-04-2019 02:00:00 9.90833 C 81.5000 % 6.89 C
1106 03-04-2019 03:00:00 8.91667 C 84.7500 % 6.49 C
1107 03-04-2019 04:00:00 8.875 C 86.1667 % 6.69 C
1108 03-04-2019 05:00:00 8.6 C 86.5833 % 6.49 C
1109 03-04-2019 06:00:00 8.075 C 87.9167 % 6.2 C
1110 03-04-2019 07:00:00 8.64167 C 84.9167 % 6.25 C
1111 03-04-2019 08:00:00 8.86667 C 86.0833 % 6.67 C
1112 03-04-2019 09:00:00 7.66667 C 90.5000 % 6.21 C
1113 03-04-2019 10:00:00 7.025 C 91.5833 % 5.75 C
1114 03-04-2019 11:00:00 7.44167 C 91.9167 % 6.22 C
1115 03-04-2019 12:00:00 8.33333 C 88.9167 % 6.62 C
1116 03-04-2019 13:00:00 9.475 C 83.1667 % 6.77 C
1117 03-04-2019 14:00:00 9.43333 C 81.3333 % 6.4 C
1118 03-04-2019 15:00:00 10.05 C 79.7500 % 6.72 C
1119 03-04-2019 16:00:00 10.2 C 78.5000 % 6.63 C
1120 03-04-2019 17:00:00 9.45833 C 82.2500 % 6.59 C
1121 03-04-2019 18:00:00 7.93333 C 90.0833 % 6.41 C
1122 03-04-2019 19:00:00 7.025 C 92.7500 % 5.93 C
1123 03-04-2019 20:00:00 6.45 C 93.5833 % 5.49 C
1124 03-04-2019 21:00:00 6.23333 C 94.6667 % 5.44 C
1125 03-04-2019 22:00:00 5.875 C 95.0000 % 5.14 C
Sensor: Nr:Datum:Temp:Feuchte:Taupunkt:
Aussen-T/F 1126 03-04-2019 23:00:00 5.63333 C 95.0000 % 4.9 C
1127 04-04-2019 00:00:00 5.65 C 95.4167 % 4.98 C
1128 04-04-2019 01:00:00 5.325 C 95.6667 % 4.69 C
1129 04-04-2019 02:00:00 5.41667 C 96.0000 % 4.83 C
1130 04-04-2019 03:00:00 5.6 C 96.0000 % 5.01 C
1131 04-04-2019 04:00:00 5.54167 C 96.0000 % 4.96 C
1132 04-04-2019 05:00:00 5.60833 C 96.0000 % 5.02 C
1133 04-04-2019 06:00:00 5.475 C 96.0000 % 4.89 C
1134 04-04-2019 07:00:00 5.34167 C 96.0000 % 4.76 C
1135 04-04-2019 08:00:00 5.61667 C 96.0000 % 5.03 C
1136 04-04-2019 09:00:00 5.93333 C 96.4167 % 5.41 C
1137 04-04-2019 10:00:00 6.075 C 96.0000 % 5.49 C
1138 04-04-2019 11:00:00 6.65833 C 93.2500 % 5.65 C
1139 04-04-2019 12:00:00 6.95 C 89.4167 % 5.33 C
1140 04-04-2019 13:00:00 6.69167 C 91.6667 % 5.43 C
1141 04-04-2019 14:00:00 6.4 C 91.7500 % 5.16 C
1142 04-04-2019 15:00:00 6.85833 C 91.0833 % 5.51 C
1143 04-04-2019 16:00:00 7.08333 C 91.0000 % 5.72 C
1144 04-04-2019 17:00:00 7.43333 C 88.2500 % 5.62 C
1145 04-04-2019 18:00:00 7.56667 C 85.2500 % 5.25 C
1146 04-04-2019 19:00:00 7.25833 C 87.0833 % 5.26 C
1147 04-04-2019 20:00:00 5.95833 C 91.6667 % 4.71 C
1148 04-04-2019 21:00:00 5.29167 C 93.5000 % 4.33 C
1149 04-04-2019 22:00:00 5.08333 C 94.3333 % 4.25 C
1150 04-04-2019 23:00:00 4.575 C 94.5000 % 3.77 C
Sensor: Nr:Datum:Temp:Feuchte:Taupunkt:
Aussen-T/F 1151 05-04-2019 00:00:00 4.10833 C 95.0000 % 3.38 C
1152 05-04-2019 01:00:00 3.525 C 95.3333 % 2.85 C
1153 05-04-2019 02:00:00 3.775 C 96.0000 % 3.2 C
1154 05-04-2019 03:00:00 3.85833 C 96.0000 % 3.28 C
1155 05-04-2019 04:00:00 4.06667 C 96.0000 % 3.49 C
1156 05-04-2019 05:00:00 3.93333 C 96.0000 % 3.36 C
1157 05-04-2019 06:00:00 3.9 C 96.0000 % 3.32 C
1158 05-04-2019 07:00:00 4.13333 C 96.5833 % 3.64 C
1159 05-04-2019 08:00:00 4.64167 C 97.0000 % 4.21 C
1160 05-04-2019 09:00:00 5.3 C 96.9167 % 4.85 C
1161 05-04-2019 10:00:00 5.89167 C 95.6667 % 5.25 C
1162 05-04-2019 11:00:00 7.16667 C 90.1667 % 5.67 C
1163 05-04-2019 12:00:00 8.025 C 85.7500 % 5.79 C
1164 05-04-2019 13:00:00 8.19167 C 84.4167 % 5.73 C
1165 05-04-2019 14:00:00 8.41667 C 83.5833 % 5.8 C
1166 05-04-2019 15:00:00 8.55 C 84.1667 % 6.03 C
1167 05-04-2019 16:00:00 8.58333 C 85.2500 % 6.25 C
1168 05-04-2019 17:00:00 8.41667 C 87.1667 % 6.41 C
1169 05-04-2019 18:00:00 8.3 C 88.9167 % 6.58 C
1170 05-04-2019 19:00:00 8.19167 C 90.2500 % 6.69 C
1171 05-04-2019 20:00:00 7.925 C 91.7500 % 6.67 C
1172 05-04-2019 21:00:00 7.69167 C 93.0000 % 6.63 C
1173 05-04-2019 22:00:00 7.61667 C 94.0000 % 6.71 C
1174 05-04-2019 23:00:00 7.6 C 94.4167 % 6.76 C
1175 06-04-2019 00:00:00 7.45833 C 95.0000 % 6.71 C
Sensor: Nr:Datum:Temp:Feuchte:Taupunkt:
Aussen-T/F 1176 06-04-2019 01:00:00 7.40833 C 95.8333 % 6.79 C
1177 06-04-2019 02:00:00 7.225 C 95.8333 % 6.61 C
1178 06-04-2019 03:00:00 6.14167 C 95.0833 % 5.41 C
1179 06-04-2019 04:00:00 5.15833 C 95.7500 % 4.54 C
1180 06-04-2019 05:00:00 5.01667 C 96.0000 % 4.43 C
1181 06-04-2019 06:00:00 4.675 C 96.1667 % 4.12 C
1182 06-04-2019 07:00:00 5.13333 C 96.7500 % 4.66 C
1183 06-04-2019 08:00:00 5.71667 C 97.0000 % 5.28 C
1184 06-04-2019 09:00:00 6.025 C 97.0000 % 5.59 C
1185 06-04-2019 10:00:00 7.325 C 97.1667 % 6.91 C
1186 06-04-2019 11:00:00 9.825 C 90.4167 % 8.33 C
1187 06-04-2019 12:00:00 12.51667 C 76.5000 % 8.5 C
1188 06-04-2019 13:00:00 14.375 C 68.8333 % 8.73 C
1189 06-04-2019 14:00:00 16.04167 C 62.0000 % 8.77 C
1190 06-04-2019 15:00:00 15.96667 C 60.5833 % 8.36 C
1191 06-04-2019 16:00:00 15.81667 C 61.6667 % 8.48 C
1192 06-04-2019 17:00:00 16.30833 C 60.5833 % 8.68 C
1193 06-04-2019 18:00:00 17.31667 C 58.4167 % 9.09 C
1194 06-04-2019 19:00:00 16.46667 C 64.6667 % 9.8 C
1195 06-04-2019 20:00:00 12.50833 C 79.6667 % 9.09 C
1196 06-04-2019 21:00:00 11.1 C 84.6667 % 8.62 C
1197 06-04-2019 22:00:00 10.05 C 87.8333 % 8.13 C
1198 06-04-2019 23:00:00 9.3 C 89.5000 % 7.66 C
1199 07-04-2019 00:00:00 8.40833 C 91.5000 % 7.11 C
1200 07-04-2019 01:00:00 7.75833 C 92.5833 % 6.63 C
Sensor: Nr:Datum:Temp:Feuchte:Taupunkt:
Aussen-T/F 1201 07-04-2019 02:00:00 7.175 C 93.6667 % 6.22 C
1202 07-04-2019 03:00:00 6.775 C 94.6667 % 5.98 C
1203 07-04-2019 04:00:00 6.09167 C 94.6667 % 5.3 C
1204 07-04-2019 05:00:00 5.68333 C 95.0000 % 4.95 C
1205 07-04-2019 06:00:00 5.43333 C 95.9167 % 4.84 C
1206 07-04-2019 07:00:00 4.68333 C 95.6667 % 4.05 C
1207 07-04-2019 08:00:00 5.23333 C 96.2500 % 4.69 C
1208 07-04-2019 09:00:00 6.14167 C 97.0000 % 5.7 C
1209 07-04-2019 10:00:00 8.25 C 97.0833 % 7.82 C
1210 07-04-2019 11:00:00 12.725 C 78.9167 % 9.16 C
1211 07-04-2019 12:00:00 15.79167 C 59.0833 % 7.83 C
1212 07-04-2019 13:00:00 17.00833 C 51.5833 % 6.97 C
1213 07-04-2019 14:00:00 18.25833 C 45.9167 % 6.43 C
1214 07-04-2019 15:00:00 19.13333 C 41.5833 % 5.79 C
1215 07-04-2019 16:00:00 20 C 39.4167 % 5.79 C
1216 07-04-2019 17:00:00 20.88333 C 38.5833 % 6.27 C
1217 07-04-2019 18:00:00 19.09167 C 48.2500 % 7.91 C
1218 07-04-2019 19:00:00 16.95 C 62.1667 % 9.67 C
1219 07-04-2019 20:00:00 15.14167 C 68.5000 % 9.39 C
1220 07-04-2019 21:00:00 14.49167 C 71.5833 % 9.42 C
1221 07-04-2019 22:00:00 13.95 C 74.0000 % 9.4 C
1222 07-04-2019 23:00:00 13.44167 C 78.2500 % 9.73 C
1223 08-04-2019 00:00:00 12.95 C 81.1667 % 9.8 C
1224 08-04-2019 01:00:00 12.53333 C 82.7500 % 9.68 C
1225 08-04-2019 02:00:00 11.975 C 84.4167 % 9.43 C
Sensor: Nr:Datum:Temp:Feuchte:Taupunkt:
Aussen-T/F 1226 08-04-2019 03:00:00 11.60833 C 85.5833 % 9.28 C
1227 08-04-2019 04:00:00 11.23333 C 86.9167 % 9.14 C
1228 08-04-2019 05:00:00 11.06667 C 88.0833 % 9.17 C
1229 08-04-2019 06:00:00 10.66667 C 88.6667 % 8.87 C
1230 08-04-2019 07:00:00 10.025 C 90.3333 % 8.52 C
1231 08-04-2019 08:00:00 10.425 C 91.9167 % 9.17 C
1232 08-04-2019 09:00:00 11.5 C 88.6667 % 9.7 C
1233 08-04-2019 10:00:00 12.45833 C 84.7500 % 9.96 C
1234 08-04-2019 11:00:00 13.16667 C 82.6667 % 10.29 C
1235 08-04-2019 12:00:00 13.15 C 83.3333 % 10.39 C
1236 08-04-2019 13:00:00 13.48333 C 83.2500 % 10.7 C
1237 08-04-2019 14:00:00 15.05 C 77.1667 % 11.09 C
1238 08-04-2019 15:00:00 16.80833 C 69.0833 % 11.11 C
1239 08-04-2019 16:00:00 17.05833 C 67.7500 % 11.06 C
1240 08-04-2019 17:00:00 15.05 C 84.0000 % 12.37 C
1241 08-04-2019 18:00:00 14.35833 C 87.1667 % 12.25 C
1242 08-04-2019 19:00:00 13.84167 C 86.1667 % 11.57 C
1243 08-04-2019 20:00:00 12.875 C 89.4167 % 11.18 C
1244 08-04-2019 21:00:00 11.425 C 92.5833 % 10.27 C
1245 08-04-2019 22:00:00 11.1 C 94.5833 % 10.26 C
1246 08-04-2019 23:00:00 10.93333 C 94.8333 % 10.14 C
1247 09-04-2019 00:00:00 10.20833 C 94.9167 % 9.43 C
1248 09-04-2019 01:00:00 10.16667 C 95.6667 % 9.51 C
1249 09-04-2019 02:00:00 10.44167 C 96.0000 % 9.83 C
1250 09-04-2019 03:00:00 10.15833 C 96.0000 % 9.55 C
Sensor: Nr:Datum:Temp:Feuchte:Taupunkt:
Aussen-T/F 1251 09-04-2019 04:00:00 9.73333 C 96.0000 % 9.13 C
1252 09-04-2019 05:00:00 9.025 C 96.0000 % 8.42 C
1253 09-04-2019 06:00:00 8.94167 C 96.4167 % 8.4 C
1254 09-04-2019 07:00:00 9.30833 C 97.0000 % 8.86 C
1255 09-04-2019 08:00:00 9.875 C 97.0000 % 9.42 C
1256 09-04-2019 09:00:00 10.50833 C 97.0000 % 10.05 C
1257 09-04-2019 10:00:00 11.09167 C 95.8333 % 10.45 C
1258 09-04-2019 11:00:00 11.90833 C 94.6667 % 11.08 C
1259 09-04-2019 12:00:00 12.83333 C 92.5000 % 11.65 C
1260 09-04-2019 13:00:00 14.475 C 86.0833 % 12.18 C
1261 09-04-2019 14:00:00 16.075 C 78.9167 % 12.42 C
1262 09-04-2019 15:00:00 16.325 C 77.9167 % 12.47 C
1263 09-04-2019 16:00:00 16.08333 C 78.8333 % 12.41 C
1264 09-04-2019 17:00:00 15.85 C 79.1667 % 12.25 C
1265 09-04-2019 18:00:00 15.4 C 83.0000 % 12.53 C
1266 09-04-2019 19:00:00 14.58333 C 81.3333 % 11.42 C
1267 09-04-2019 20:00:00 13.625 C 82.2500 % 10.66 C
1268 09-04-2019 21:00:00 12.48333 C 84.1667 % 9.89 C
1269 09-04-2019 22:00:00 12.36667 C 74.8333 % 8.03 C
1270 09-04-2019 23:00:00 12.16667 C 70.5833 % 6.99 C
1271 10-04-2019 00:00:00 10.925 C 78.8333 % 7.4 C
1272 10-04-2019 01:00:00 10.36667 C 78.1667 % 6.73 C
1273 10-04-2019 02:00:00 9.91667 C 80.9167 % 6.8 C
1274 10-04-2019 03:00:00 9.775 C 78.6667 % 6.25 C
1275 10-04-2019 04:00:00 8.79167 C 81.1667 % 5.75 C
Sensor: Nr:Datum:Temp:Feuchte:Taupunkt:
Aussen-T/F 1276 10-04-2019 05:00:00 7.34167 C 84.7500 % 4.95 C
1277 10-04-2019 06:00:00 6.50833 C 86.1667 % 4.37 C
1278 10-04-2019 07:00:00 6.6 C 84.4167 % 4.17 C
1279 10-04-2019 08:00:00 7.675 C 77.0833 % 3.92 C
1280 10-04-2019 09:00:00 8.50833 C 71.9167 % 3.74 C
1281 10-04-2019 10:00:00 9.575 C 69.0000 % 4.18 C
1282 10-04-2019 11:00:00 11.18333 C 63.3333 % 4.49 C
1283 10-04-2019 12:00:00 12.16667 C 56.8333 % 3.87 C
1284 10-04-2019 13:00:00 13.425 C 54.2500 % 4.38 C
1285 10-04-2019 14:00:00 14.24167 C 49.6667 % 3.88 C
1286 10-04-2019 15:00:00 15.1 C 46.8333 % 3.83 C
1287 10-04-2019 16:00:00 16.075 C 43.9167 % 3.81 C
1288 10-04-2019 17:00:00 16.6 C 41.0000 % 3.31 C
1289 10-04-2019 18:00:00 15.94167 C 38.0833 % 1.68 C
1290 10-04-2019 19:00:00 14.4 C 42.7500 % 1.91 C
1291 10-04-2019 20:00:00 11.34167 C 56.7500 % 3.08 C
1292 10-04-2019 21:00:00 8.9 C 67.0833 % 3.13 C
1293 10-04-2019 22:00:00 7.38333 C 73.1667 % 2.9 C
1294 10-04-2019 23:00:00 6.46667 C 76.2500 % 2.6 C
1295 11-04-2019 00:00:00 5.75 C 77.3333 % 2.1 C
1296 11-04-2019 01:00:00 5.03333 C 77.9167 % 1.51 C
1297 11-04-2019 02:00:00 4.4 C 78.8333 % 1.06 C
1298 11-04-2019 03:00:00 3.85833 C 79.0833 % 0.57 C
1299 11-04-2019 04:00:00 2.9 C 80.5833 % -0.1 C
1300 11-04-2019 05:00:00 2.30833 C 81.7500 % -0.48 C
Sensor: Nr:Datum:Temp:Feuchte:Taupunkt:
Aussen-T/F 1301 11-04-2019 06:00:00 1.71667 C 83.3333 % -0.8 C
1302 11-04-2019 07:00:00 1.21667 C 85.2500 % -0.98 C
1303 11-04-2019 08:00:00 1.8 C 85.5000 % -0.37 C
1304 11-04-2019 09:00:00 3.9 C 77.5000 % 0.33 C
1305 11-04-2019 10:00:00 6.76667 C 58.0000 % -0.9 C
1306 11-04-2019 11:00:00 8.1 C 49.7500 % -1.75 C
1307 11-04-2019 12:00:00 8.91667 C 45.9167 % -2.08 C
1308 11-04-2019 13:00:00 9.875 C 43.4167 % -1.97 C
1309 11-04-2019 14:00:00 11.01667 C 40.8333 % -1.77 C
1310 11-04-2019 15:00:00 12 C 38.7500 % -1.59 C
1311 11-04-2019 16:00:00 12.76667 C 36.1667 % -1.85 C
1312 11-04-2019 17:00:00 13.31667 C 34.7500 % -1.9 C
1313 11-04-2019 18:00:00 13.025 C 35.1667 % -2 C
1314 11-04-2019 19:00:00 11.95833 C 38.1667 % -1.84 C
1315 11-04-2019 20:00:00 8.95 C 49.6667 % -0.99 C
1316 11-04-2019 21:00:00 6.225 C 61.4167 % -0.63 C
1317 11-04-2019 22:00:00 5.35 C 64.0000 % -0.9 C
1318 11-04-2019 23:00:00 5.48333 C 60.7500 % -1.48 C
1319 12-04-2019 00:00:00 4.46667 C 62.7500 % -2 C
1320 12-04-2019 01:00:00 3.54167 C 65.3333 % -2.34 C
1321 12-04-2019 02:00:00 2.15833 C 71.6667 % -2.41 C
1322 12-04-2019 03:00:00 1.60833 C 73.5833 % -2.59 C
1323 12-04-2019 04:00:00 2.15833 C 75.2500 % -1.76 C
1324 12-04-2019 05:00:00 2.70833 C 73.2500 % -1.59 C
1325 12-04-2019 06:00:00 2.98333 C 70.9167 % -1.76 C
Sensor: Nr:Datum:Temp:Feuchte:Taupunkt:
Aussen-T/F 1326 12-04-2019 07:00:00 3.475 C 66.8333 % -2.09 C
1327 12-04-2019 08:00:00 4.63333 C 58.0833 % -2.89 C
1328 12-04-2019 09:00:00 5.03333 C 56.0833 % -2.98 C
1329 12-04-2019 10:00:00 5.49167 C 53.2500 % -3.25 C
1330 12-04-2019 11:00:00 5.98333 C 51.8333 % -3.15 C
1331 12-04-2019 12:00:00 6.78333 C 50.0000 % -2.89 C
1332 12-04-2019 13:00:00 7.15833 C 47.7500 % -3.17 C
1333 12-04-2019 14:00:00 7.26667 C 46.8333 % -3.33 C
1334 12-04-2019 15:00:00 7.56667 C 46.4167 % -3.17 C
1335 12-04-2019 16:00:00 7.3 C 47.3333 % -3.15 C
1336 12-04-2019 17:00:00 7.1 C 46.6667 % -3.53 C
1337 12-04-2019 18:00:00 6.83333 C 49.0000 % -3.12 C
1338 12-04-2019 19:00:00 6.525 C 52.0000 % -2.61 C
1339 12-04-2019 20:00:00 6.06667 C 54.9167 % -2.3 C
1340 12-04-2019 21:00:00 5.55 C 60.2500 % -1.53 C
1341 12-04-2019 22:00:00 4.39167 C 66.5000 % -1.29 C
1342 12-04-2019 23:00:00 3.58333 C 68.6667 % -1.62 C
1343 13-04-2019 00:00:00 2.95 C 72.5833 % -1.48 C
1344 13-04-2019 01:00:00 2.875 C 73.0833 % -1.46 C
1345 13-04-2019 02:00:00 2.61667 C 75.7500 % -1.22 C
1346 13-04-2019 03:00:00 2.30833 C 77.9167 % -1.14 C
1347 13-04-2019 04:00:00 2.6 C 77.4167 % -0.94 C
1348 13-04-2019 05:00:00 2.54167 C 78.0000 % -0.9 C
1349 13-04-2019 06:00:00 2.28333 C 80.5833 % -0.7 C
1350 13-04-2019 07:00:00 2.5 C 80.0833 % -0.58 C
Sensor: Nr:Datum:Temp:Feuchte:Taupunkt:
Aussen-T/F 1351 13-04-2019 08:00:00 3.125 C 77.1667 % -0.48 C
1352 13-04-2019 09:00:00 3.60833 C 73.2500 % -0.72 C
1353 13-04-2019 10:00:00 4.75833 C 66.0833 % -1.02 C
1354 13-04-2019 11:00:00 5.36667 C 61.0833 % -1.52 C
1355 13-04-2019 12:00:00 5.96667 C 57.3333 % -1.81 C
1356 13-04-2019 13:00:00 5.75833 C 63.0833 % -0.71 C
1357 13-04-2019 14:00:00 4.69167 C 77.4167 % 1.09 C
1358 13-04-2019 15:00:00 5.61667 C 74.8333 % 1.51 C
1359 13-04-2019 16:00:00 6.21667 C 68.6667 % 0.9 C
1360 13-04-2019 17:00:00 4.55 C 84.8333 % 2.22 C
1361 13-04-2019 18:00:00 6.29167 C 77.0833 % 2.58 C
1362 13-04-2019 19:00:00 5.59167 C 77.5833 % 1.99 C
1363 13-04-2019 20:00:00 4.63333 C 80.6667 % 1.6 C
1364 13-04-2019 21:00:00 3.075 C 83.6667 % 0.59 C
1365 13-04-2019 22:00:00 1.56667 C 87.5000 % -0.28 C
1366 13-04-2019 23:00:00 1.04167 C 89.8333 % -0.44 C
1367 14-04-2019 00:00:00 0.475 C 91.0000 % -0.82 C
1368 14-04-2019 01:00:00 0.45 C 92.6667 % -0.6 C
1369 14-04-2019 02:00:00 1.23333 C 93.3333 % 0.28 C
1370 14-04-2019 03:00:00 1.575 C 93.0000 % 0.57 C
1371 14-04-2019 04:00:00 1.63333 C 93.0833 % 0.64 C
1372 14-04-2019 05:00:00 1.56667 C 93.6667 % 0.66 C
1373 14-04-2019 06:00:00 1.25833 C 94.0000 % 0.4 C
1374 14-04-2019 07:00:00 1.225 C 95.0000 % 0.51 C
1375 14-04-2019 08:00:00 1.5 C 95.0833 % 0.8 C
Sensor: Nr:Datum:Temp:Feuchte:Taupunkt:
Aussen-T/F 1376 14-04-2019 09:00:00 2.66667 C 95.8333 % 2.07 C
1377 14-04-2019 10:00:00 4.15 C 94.4167 % 3.34 C
1378 14-04-2019 11:00:00 6.00833 C 84.5833 % 3.61 C
1379 14-04-2019 12:00:00 7.71667 C 69.2500 % 2.45 C
1380 14-04-2019 13:00:00 8.99167 C 58.3333 % 1.26 C
1381 14-04-2019 14:00:00 10.43333 C 52.2500 % 1.08 C
1382 14-04-2019 15:00:00 11.46667 C 48.4167 % 0.98 C
1383 14-04-2019 16:00:00 12.08333 C 45.7500 % 0.76 C
1384 14-04-2019 17:00:00 12.50833 C 43.7500 % 0.52 C
1385 14-04-2019 18:00:00 12.06667 C 45.5000 % 0.66 C
1386 14-04-2019 19:00:00 10.99167 C 51.7500 % 1.46 C
1387 14-04-2019 20:00:00 8.25 C 64.3333 % 1.93 C
1388 14-04-2019 21:00:00 5.925 C 76.1667 % 2.06 C
1389 14-04-2019 22:00:00 4.61667 C 81.8333 % 1.79 C
1390 14-04-2019 23:00:00 4.06667 C 84.4167 % 1.68 C
1391 15-04-2019 00:00:00 4.11667 C 86.0000 % 1.99 C
1392 15-04-2019 01:00:00 5.075 C 85.4167 % 2.84 C
1393 15-04-2019 02:00:00 5.64167 C 83.3333 % 3.04 C
1394 15-04-2019 03:00:00 4.81667 C 85.0000 % 2.51 C
1395 15-04-2019 04:00:00 4.78333 C 86.7500 % 2.77 C
1396 15-04-2019 05:00:00 4.26667 C 87.7500 % 2.42 C
1397 15-04-2019 06:00:00 4.48333 C 89.4167 % 2.9 C
1398 15-04-2019 07:00:00 5.1 C 89.5833 % 3.53 C
1399 15-04-2019 08:00:00 5.98333 C 88.0000 % 4.15 C
1400 15-04-2019 09:00:00 7.175 C 84.3333 % 4.71 C
Sensor: Nr:Datum:Temp:Feuchte:Taupunkt:
Aussen-T/F 1401 15-04-2019 10:00:00 8.34167 C 80.1667 % 5.13 C
1402 15-04-2019 11:00:00 10.15833 C 74.8333 % 5.9 C
1403 15-04-2019 12:00:00 12.475 C 65.8333 % 6.27 C
1404 15-04-2019 13:00:00 14.29167 C 58.2500 % 6.21 C
1405 15-04-2019 14:00:00 16.025 C 53.1667 % 6.5 C
1406 15-04-2019 15:00:00 17.53333 C 46.5000 % 5.95 C
1407 15-04-2019 16:00:00 18.31667 C 44.7500 % 6.11 C
1408 15-04-2019 17:00:00 18.95833 C 41.0833 % 5.45 C
1409 15-04-2019 18:00:00 19.13333 C 38.5000 % 4.68 C
1410 15-04-2019 19:00:00 18.19167 C 41.3333 % 4.85 C
1411 15-04-2019 20:00:00 14.2 C 57.2500 % 5.88 C
1412 15-04-2019 21:00:00 11.575 C 65.6667 % 5.38 C
1413 15-04-2019 22:00:00 10.24167 C 68.0833 % 4.62 C
1414 15-04-2019 23:00:00 9.24167 C 69.0833 % 3.88 C
1415 16-04-2019 00:00:00 8.16667 C 71.5833 % 3.35 C
1416 16-04-2019 01:00:00 7.25833 C 73.8333 % 2.91 C
1417 16-04-2019 02:00:00 6.48333 C 75.9167 % 2.55 C
1418 16-04-2019 03:00:00 6.06667 C 76.1667 % 2.19 C
1419 16-04-2019 04:00:00 5.83333 C 75.2500 % 1.8 C
1420 16-04-2019 05:00:00 5.50833 C 76.0833 % 1.64 C
1421 16-04-2019 06:00:00 4.99167 C 77.5833 % 1.41 C
1422 16-04-2019 07:00:00 3.91667 C 82.6667 % 1.24 C
1423 16-04-2019 08:00:00 4.51667 C 83.3333 % 1.94 C
1424 16-04-2019 09:00:00 6.2 C 80.7500 % 3.15 C
1425 16-04-2019 10:00:00 10.39167 C 63.6667 % 3.81 C
Sensor: Nr:Datum:Temp:Feuchte:Taupunkt:
Aussen-T/F 1426 16-04-2019 11:00:00 13.69167 C 51.1667 % 3.8 C
1427 16-04-2019 12:00:00 15.59167 C 47.0833 % 4.36 C
1428 16-04-2019 13:00:00 17.025 C 46.0833 % 5.36 C
1429 16-04-2019 14:00:00 18.3 C 46.3333 % 6.6 C
1430 16-04-2019 15:00:00 19.025 C 45.3333 % 6.94 C
1431 16-04-2019 16:00:00 18.85833 C 46.4167 % 7.13 C
1432 16-04-2019 17:00:00 18.09167 C 52.5000 % 8.23 C
1433 16-04-2019 18:00:00 15.5 C 62.0833 % 8.28 C
1434 16-04-2019 19:00:00 14.63333 C 66.9167 % 8.56 C
1435 16-04-2019 20:00:00 13.25833 C 72.6667 % 8.46 C
1436 16-04-2019 21:00:00 12.29167 C 76.0000 % 8.19 C
1437 16-04-2019 22:00:00 11.825 C 79.1667 % 8.34 C
1438 16-04-2019 23:00:00 11.475 C 80.4167 % 8.23 C
1439 17-04-2019 00:00:00 11.01667 C 82.9167 % 8.23 C
1440 17-04-2019 01:00:00 10.725 C 88.2500 % 8.86 C
1441 17-04-2019 02:00:00 10.25833 C 91.5000 % 8.94 C
1442 17-04-2019 03:00:00 9.91667 C 93.2500 % 8.88 C
1443 17-04-2019 04:00:00 9.73333 C 94.2500 % 8.85 C
1444 17-04-2019 05:00:00 9.60833 C 95.0000 % 8.85 C
1445 17-04-2019 06:00:00 9.66667 C 95.3333 % 8.96 C
1446 17-04-2019 07:00:00 10 C 96.0000 % 9.39 C
1447 17-04-2019 08:00:00 10.64167 C 96.0000 % 10.03 C
1448 17-04-2019 09:00:00 11.36667 C 95.7500 % 10.71 C
1449 17-04-2019 10:00:00 12.30833 C 93.5000 % 11.29 C
1450 17-04-2019 11:00:00 13.04167 C 90.7500 % 11.57 C
Sensor: Nr:Datum:Temp:Feuchte:Taupunkt:
Aussen-T/F 1451 17-04-2019 12:00:00 13.675 C 87.0833 % 11.57 C
1452 17-04-2019 13:00:00 14.88333 C 82.2500 % 11.89 C
1453 17-04-2019 14:00:00 16.18333 C 74.4167 % 11.63 C
1454 17-04-2019 15:00:00 17.19167 C 69.7500 % 11.62 C
1455 17-04-2019 16:00:00 18.00833 C 62.9167 % 10.85 C
1456 17-04-2019 17:00:00 18.225 C 62.5833 % 10.97 C
1457 17-04-2019 18:00:00 18.16667 C 61.3333 % 10.61 C
1458 17-04-2019 19:00:00 16.38333 C 73.5833 % 11.66 C
1459 17-04-2019 20:00:00 13.575 C 77.8333 % 9.78 C
1460 17-04-2019 21:00:00 11.65 C 80.1667 % 8.35 C
1461 17-04-2019 22:00:00 10.36667 C 83.1667 % 7.64 C
1462 17-04-2019 23:00:00 9.375 C 85.0000 % 6.99 C
1463 18-04-2019 00:00:00 8.70833 C 87.5833 % 6.77 C
1464 18-04-2019 01:00:00 8.75833 C 88.1667 % 6.91 C
1465 18-04-2019 02:00:00 8.55 C 87.6667 % 6.62 C
1466 18-04-2019 03:00:00 8.01667 C 86.4167 % 5.89 C
1467 18-04-2019 04:00:00 7.16667 C 87.9167 % 5.3 C
1468 18-04-2019 05:00:00 6.875 C 89.7500 % 5.31 C
1469 18-04-2019 06:00:00 6.76667 C 90.4167 % 5.31 C
1470 18-04-2019 07:00:00 7.44167 C 88.7500 % 5.71 C
1471 18-04-2019 08:00:00 8.475 C 87.8333 % 6.58 C
1472 18-04-2019 09:00:00 9.88333 C 83.4167 % 7.21 C
1473 18-04-2019 10:00:00 12.95 C 71.3333 % 7.89 C
1474 18-04-2019 11:00:00 16.38333 C 56.8333 % 7.81 C
1475 18-04-2019 12:00:00 17.65833 C 52.0000 % 7.69 C
Sensor: Nr:Datum:Temp:Feuchte:Taupunkt:
Aussen-T/F 1476 18-04-2019 13:00:00 18.76667 C 47.3333 % 7.33 C
1477 18-04-2019 14:00:00 19.91667 C 42.4167 % 6.78 C
1478 18-04-2019 15:00:00 21.35 C 38.6667 % 6.72 C
1479 18-04-2019 16:00:00 22.525 C 34.1667 % 5.96 C
1480 18-04-2019 17:00:00 23.375 C 32.7500 % 6.09 C
1481 18-04-2019 18:00:00 23.40833 C 32.7500 % 6.12 C
1482 18-04-2019 19:00:00 22.28333 C 36.4167 % 6.67 C
1483 18-04-2019 20:00:00 18.05833 C 52.5000 % 8.2 C
1484 18-04-2019 21:00:00 15.33333 C 59.4167 % 7.48 C
1485 18-04-2019 22:00:00 14.23333 C 61.5833 % 6.97 C
1486 18-04-2019 23:00:00 13.08333 C 65.2500 % 6.72 C
1487 19-04-2019 00:00:00 11.55833 C 71.8333 % 6.66 C
1488 19-04-2019 01:00:00 10.70833 C 75.0000 % 6.46 C
1489 19-04-2019 02:00:00 11.01667 C 71.5833 % 6.09 C
1490 19-04-2019 03:00:00 10.29167 C 73.6667 % 5.8 C
1491 19-04-2019 04:00:00 9.61667 C 76.2500 % 5.65 C
1492 19-04-2019 05:00:00 8.24167 C 81.4167 % 5.25 C
1493 19-04-2019 06:00:00 7.04167 C 83.8333 % 4.5 C
1494 19-04-2019 07:00:00 6.65 C 86.8333 % 4.62 C
1495 19-04-2019 08:00:00 6.85 C 88.5833 % 5.1 C
1496 19-04-2019 09:00:00 8.975 C 86.5000 % 6.85 C
1497 19-04-2019 10:00:00 13.525 C 66.7500 % 7.47 C
1498 19-04-2019 11:00:00 17.95833 C 48.7500 % 7.02 C
1499 19-04-2019 12:00:00 19.9 C 41.5000 % 6.45 C
1500 19-04-2019 13:00:00 21.36667 C 34.2500 % 4.98 C
Sensor: Nr:Datum:Temp:Feuchte:Taupunkt:
Aussen-T/F 1501 19-04-2019 14:00:00 22.44167 C 31.3333 % 4.65 C
1502 19-04-2019 15:00:00 23.675 C 26.9167 % 3.55 C
1503 19-04-2019 16:00:00 24.89167 C 24.0833 % 3 C
1504 19-04-2019 17:00:00 25.28333 C 22.5000 % 2.38 C
1505 19-04-2019 18:00:00 25.50833 C 22.3333 % 2.46 C
1506 19-04-2019 19:00:00 24.25 C 26.1667 % 3.63 C
1507 19-04-2019 20:00:00 19.21667 C 40.8333 % 5.6 C
1508 19-04-2019 21:00:00 15.875 C 49.4167 % 5.31 C
1509 19-04-2019 22:00:00 13.33333 C 58.2500 % 5.31 C
1510 19-04-2019 23:00:00 11.73333 C 64.2500 % 5.21 C
1511 20-04-2019 00:00:00 10.40833 C 70.5833 % 5.3 C
1512 20-04-2019 01:00:00 9.45833 C 76.1667 % 5.48 C
1513 20-04-2019 02:00:00 8.55833 C 80.8333 % 5.46 C
1514 20-04-2019 03:00:00 7.64167 C 84.0833 % 5.13 C
1515 20-04-2019 04:00:00 6.85 C 87.0000 % 4.84 C
1516 20-04-2019 05:00:00 6.23333 C 89.2500 % 4.6 C
1517 20-04-2019 06:00:00 5.775 C 90.5833 % 4.36 C
1518 20-04-2019 07:00:00 5.85833 C 91.9167 % 4.65 C
1519 20-04-2019 08:00:00 6.48333 C 92.4167 % 5.34 C
1520 20-04-2019 09:00:00 8.16667 C 92.2500 % 6.99 C
1521 20-04-2019 10:00:00 11.68333 C 83.6667 % 9.01 C
1522 20-04-2019 11:00:00 16.725 C 63.9167 % 9.87 C
1523 20-04-2019 12:00:00 20.225 C 46.9167 % 8.53 C
1524 20-04-2019 13:00:00 22.05 C 36.3333 % 6.43 C
1525 20-04-2019 14:00:00 23.275 C 28.9167 % 4.22 C
Sensor: Nr:Datum:Temp:Feuchte:Taupunkt:
Aussen-T/F 1526 20-04-2019 15:00:00 24.25833 C 27.7500 % 4.48 C
1527 20-04-2019 16:00:00 25.21667 C 26.6667 % 4.72 C
1528 20-04-2019 17:00:00 25.30833 C 25.1667 % 3.98 C
1529 20-04-2019 18:00:00 25.39167 C 23.5833 % 3.13 C
1530 20-04-2019 19:00:00 24.575 C 26.8333 % 4.27 C
1531 20-04-2019 20:00:00 19.875 C 43.1667 % 7 C
1532 20-04-2019 21:00:00 16.175 C 54.5833 % 7.03 C
1533 20-04-2019 22:00:00 13.81667 C 63.2500 % 6.96 C
1534 20-04-2019 23:00:00 12.90833 C 65.6667 % 6.64 C
1535 21-04-2019 00:00:00 12.84167 C 64.7500 % 6.38 C
1536 21-04-2019 01:00:00 12.48333 C 65.4167 % 6.18 C
1537 21-04-2019 02:00:00 11.36667 C 70.1667 % 6.13 C
1538 21-04-2019 03:00:00 10.81667 C 73.0833 % 6.19 C
1539 21-04-2019 04:00:00 9.23333 C 78.3333 % 5.66 C
1540 21-04-2019 05:00:00 7.375 C 84.9167 % 5.01 C
1541 21-04-2019 06:00:00 6.45 C 87.7500 % 4.57 C
1542 21-04-2019 07:00:00 6.68333 C 89.1667 % 5.03 C
1543 21-04-2019 08:00:00 7.16667 C 89.8333 % 5.61 C
1544 21-04-2019 09:00:00 8.675 C 89.5833 % 7.06 C
1545 21-04-2019 10:00:00 11.98333 C 81.4167 % 8.9 C
1546 21-04-2019 11:00:00 16.48333 C 63.3333 % 9.5 C
1547 21-04-2019 12:00:00 19.65833 C 45.1667 % 7.46 C
1548 21-04-2019 13:00:00 21.525 C 35.0833 % 5.46 C
1549 21-04-2019 14:00:00 22.98333 C 30.0000 % 4.49 C
1550 21-04-2019 15:00:00 24.46667 C 30.3333 % 5.93 C
Sensor: Nr:Datum:Temp:Feuchte:Taupunkt:
Aussen-T/F 1551 21-04-2019 16:00:00 25.73333 C 26.3333 % 4.98 C
1552 21-04-2019 17:00:00 25.94167 C 24.5000 % 4.13 C
1553 21-04-2019 18:00:00 26.13333 C 24.3333 % 4.19 C
1554 21-04-2019 19:00:00 24.58333 C 28.3333 % 5.05 C
1555 21-04-2019 20:00:00 19.69167 C 40.5833 % 5.94 C
1556 21-04-2019 21:00:00 16.725 C 50.6667 % 6.45 C
1557 21-04-2019 22:00:00 13.85833 C 63.0833 % 6.96 C
1558 21-04-2019 23:00:00 12.21667 C 67.0833 % 6.3 C
1559 22-04-2019 00:00:00 10.54167 C 72.3333 % 5.78 C
1560 22-04-2019 01:00:00 9.24167 C 78.0000 % 5.61 C
1561 22-04-2019 02:00:00 8.2 C 82.5000 % 5.4 C
1562 22-04-2019 03:00:00 7.56667 C 84.9167 % 5.2 C
1563 22-04-2019 04:00:00 6.64167 C 87.8333 % 4.77 C
1564 22-04-2019 05:00:00 5.89167 C 90.3333 % 4.43 C
1565 22-04-2019 06:00:00 5.475 C 91.7500 % 4.24 C
1566 22-04-2019 07:00:00 5.74167 C 92.9167 % 4.69 C
1567 22-04-2019 08:00:00 6.54167 C 93.0000 % 5.49 C
1568 22-04-2019 09:00:00 8.40833 C 92.0000 % 7.19 C
1569 22-04-2019 10:00:00 12.55 C 76.0833 % 8.45 C
1570 22-04-2019 11:00:00 17.96667 C 49.0833 % 7.13 C
1571 22-04-2019 12:00:00 20.89167 C 38.2500 % 6.15 C
1572 22-04-2019 13:00:00 22.65 C 29.7500 % 4.09 C
1573 22-04-2019 14:00:00 23.45 C 29.0833 % 4.45 C
1574 22-04-2019 15:00:00 24.375 C 28.4167 % 4.92 C
1575 22-04-2019 16:00:00 25.49167 C 25.8333 % 4.5 C
Sensor: Nr:Datum:Temp:Feuchte:Taupunkt:
Aussen-T/F 1576 22-04-2019 17:00:00 25.70833 C 24.7500 % 4.08 C
1577 22-04-2019 18:00:00 24.4 C 28.0833 % 4.77 C
1578 22-04-2019 19:00:00 21.4 C 41.5833 % 7.82 C
1579 22-04-2019 20:00:00 19.55 C 43.0000 % 6.65 C
1580 22-04-2019 21:00:00 16.975 C 48.8333 % 6.15 C
1581 22-04-2019 22:00:00 15.15 C 51.2500 % 5.17 C
1582 22-04-2019 23:00:00 15.04167 C 49.3333 % 4.52 C
1583 23-04-2019 00:00:00 13.175 C 55.8333 % 4.56 C
1584 23-04-2019 01:00:00 11.55 C 62.2500 % 4.59 C
1585 23-04-2019 02:00:00 10.31667 C 66.9167 % 4.45 C
1586 23-04-2019 03:00:00 9.7 C 68.5000 % 4.19 C
1587 23-04-2019 04:00:00 9.15833 C 71.7500 % 4.33 C
1588 23-04-2019 05:00:00 8.83333 C 73.1667 % 4.3 C
1589 23-04-2019 06:00:00 8.31667 C 76.0000 % 4.34 C
1590 23-04-2019 07:00:00 8.99167 C 77.2500 % 5.23 C
1591 23-04-2019 08:00:00 10.325 C 76.1667 % 6.32 C
1592 23-04-2019 09:00:00 12.53333 C 63.9167 % 5.9 C
1593 23-04-2019 10:00:00 14.025 C 60.2500 % 6.45 C
1594 23-04-2019 11:00:00 15.475 C 57.4167 % 7.11 C
1595 23-04-2019 12:00:00 17.04167 C 55.2500 % 8.01 C
1596 23-04-2019 13:00:00 18.89167 C 51.1667 % 8.59 C
1597 23-04-2019 14:00:00 20.44167 C 47.9167 % 9.04 C
1598 23-04-2019 15:00:00 21.76667 C 44.6667 % 9.21 C
1599 23-04-2019 16:00:00 23.1 C 42.5000 % 9.67 C
1600 23-04-2019 17:00:00 23.4 C 42.6667 % 10 C
Sensor: Nr:Datum:Temp:Feuchte:Taupunkt:
Aussen-T/F 1601 23-04-2019 18:00:00 21.775 C 46.2500 % 9.73 C
1602 23-04-2019 19:00:00 20.31667 C 52.3333 % 10.24 C
1603 23-04-2019 20:00:00 17.975 C 61.3333 % 10.43 C
1604 23-04-2019 21:00:00 16.08333 C 69.0000 % 10.4 C
1605 23-04-2019 22:00:00 15.54167 C 71.2500 % 10.36 C
1606 23-04-2019 23:00:00 15.08333 C 72.1667 % 10.11 C
1607 24-04-2019 00:00:00 14.425 C 75.1667 % 10.09 C
1608 24-04-2019 01:00:00 12.65833 C 78.4167 % 9.01 C
1609 24-04-2019 02:00:00 11.325 C 83.0000 % 8.55 C
1610 24-04-2019 03:00:00 10.39167 C 86.5000 % 8.24 C
1611 24-04-2019 04:00:00 9.89167 C 88.7500 % 8.12 C
1612 24-04-2019 05:00:00 9.35 C 90.0833 % 7.81 C
1613 24-04-2019 06:00:00 9.1 C 91.6667 % 7.82 C
1614 24-04-2019 07:00:00 9.66667 C 92.5000 % 8.51 C
1615 24-04-2019 08:00:00 11.55833 C 86.9167 % 9.46 C
1616 24-04-2019 09:00:00 13.39167 C 82.3333 % 10.45 C
1617 24-04-2019 10:00:00 16.14167 C 74.2500 % 11.56 C
1618 24-04-2019 11:00:00 18.73333 C 66.7500 % 12.43 C
1619 24-04-2019 12:00:00 21.425 C 50.5833 % 10.75 C
1620 24-04-2019 13:00:00 22.38333 C 45.5000 % 10.04 C
1621 24-04-2019 14:00:00 23.45 C 42.7500 % 10.07 C
1622 24-04-2019 15:00:00 24.80833 C 39.0000 % 9.92 C
1623 24-04-2019 16:00:00 25.20833 C 39.2500 % 10.37 C
1624 24-04-2019 17:00:00 25.675 C 40.9167 % 11.41 C
1625 24-04-2019 18:00:00 19.91667 C 56.8333 % 11.11 C
Sensor: Nr:Datum:Temp:Feuchte:Taupunkt:
Aussen-T/F 1626 24-04-2019 19:00:00 13.875 C 77.1667 % 9.95 C
1627 24-04-2019 20:00:00 11.34167 C 86.0000 % 9.09 C
1628 24-04-2019 21:00:00 9.85 C 91.8333 % 8.59 C
1629 24-04-2019 22:00:00 9.16667 C 93.5000 % 8.17 C
1630 24-04-2019 23:00:00 9.00833 C 94.8333 % 8.23 C
1631 25-04-2019 00:00:00 8.85833 C 95.0000 % 8.1 C
1632 25-04-2019 01:00:00 8.125 C 95.0000 % 7.37 C
1633 25-04-2019 02:00:00 7.45 C 95.2500 % 6.74 C
1634 25-04-2019 03:00:00 7.2 C 96.0000 % 6.61 C
1635 25-04-2019 04:00:00 7.05833 C 96.0000 % 6.46 C
1636 25-04-2019 05:00:00 7.10833 C 96.0000 % 6.51 C
1637 25-04-2019 06:00:00 7.05833 C 96.7500 % 6.58 C
1638 25-04-2019 07:00:00 7.85833 C 97.0000 % 7.41 C
1639 25-04-2019 08:00:00 9.16667 C 97.0000 % 8.72 C
1640 25-04-2019 09:00:00 10.63333 C 97.0000 % 10.18 C
1641 25-04-2019 10:00:00 11.54167 C 95.9167 % 10.91 C
1642 25-04-2019 11:00:00 14.14167 C 79.6667 % 10.68 C
1643 25-04-2019 12:00:00 16.96667 C 64.0000 % 10.12 C
1644 25-04-2019 13:00:00 18.6 C 58.7500 % 10.37 C
1645 25-04-2019 14:00:00 20.25833 C 53.0000 % 10.38 C
1646 25-04-2019 15:00:00 21.525 C 49.3333 % 10.47 C
1647 25-04-2019 16:00:00 22.125 C 55.0000 % 12.66 C
1648 25-04-2019 17:00:00 21.35 C 59.2500 % 13.08 C
1649 25-04-2019 18:00:00 20.55833 C 54.9167 % 11.19 C
1650 25-04-2019 19:00:00 16.88333 C 61.4167 % 9.42 C
Sensor: Nr:Datum:Temp:Feuchte:Taupunkt:
Aussen-T/F 1651 25-04-2019 20:00:00 15.125 C 66.7500 % 8.99 C
1652 25-04-2019 21:00:00 13.85 C 72.3333 % 8.96 C
1653 25-04-2019 22:00:00 13.04167 C 74.6667 % 8.65 C
1654 25-04-2019 23:00:00 12.425 C 78.3333 % 8.76 C
1655 26-04-2019 00:00:00 11.39167 C 82.1667 % 8.46 C
1656 26-04-2019 01:00:00 10.93333 C 85.2500 % 8.56 C
1657 26-04-2019 02:00:00 11.00833 C 84.2500 % 8.46 C
1658 26-04-2019 03:00:00 10.98333 C 83.0833 % 8.23 C
1659 26-04-2019 04:00:00 10.8 C 83.6667 % 8.15 C
1660 26-04-2019 05:00:00 10.4 C 86.9167 % 8.32 C
1661 26-04-2019 06:00:00 9.625 C 92.0000 % 8.39 C
1662 26-04-2019 07:00:00 9.5 C 93.9167 % 8.57 C
1663 26-04-2019 08:00:00 9.50833 C 94.6667 % 8.7 C
1664 26-04-2019 09:00:00 9.99167 C 95.0000 % 9.23 C
1665 26-04-2019 10:00:00 10.275 C 94.9167 % 9.5 C
1666 26-04-2019 11:00:00 10.88333 C 93.5000 % 9.88 C
1667 26-04-2019 12:00:00 11.95833 C 88.6667 % 10.15 C
1668 26-04-2019 13:00:00 13.00833 C 82.5000 % 10.1 C
1669 26-04-2019 14:00:00 13.53333 C 78.1667 % 9.81 C
1670 26-04-2019 15:00:00 13.525 C 76.6667 % 9.51 C
1671 26-04-2019 16:00:00 15.06667 C 70.6667 % 9.78 C
1672 26-04-2019 17:00:00 15.74167 C 66.0000 % 9.41 C
1673 26-04-2019 18:00:00 16.925 C 62.0000 % 9.6 C
1674 26-04-2019 19:00:00 15.84167 C 71.9167 % 10.79 C
1675 26-04-2019 20:00:00 12.575 C 80.7500 % 9.36 C
Sensor: Nr:Datum:Temp:Feuchte:Taupunkt:
Aussen-T/F 1676 26-04-2019 21:00:00 10.89167 C 87.0833 % 8.83 C
1677 26-04-2019 22:00:00 10.45833 C 88.7500 % 8.68 C
1678 26-04-2019 23:00:00 10.00833 C 90.3333 % 8.5 C
1679 27-04-2019 00:00:00 9.20833 C 91.9167 % 7.96 C
1680 27-04-2019 01:00:00 9.14167 C 93.0000 % 8.07 C
1681 27-04-2019 02:00:00 8.575 C 93.0833 % 7.52 C
1682 27-04-2019 03:00:00 7.875 C 94.0000 % 6.97 C
1683 27-04-2019 04:00:00 7.18333 C 94.2500 % 6.32 C
1684 27-04-2019 05:00:00 6.64167 C 94.9167 % 5.89 C
1685 27-04-2019 06:00:00 6.425 C 95.4167 % 5.75 C
1686 27-04-2019 07:00:00 7.15 C 96.0000 % 6.56 C
1687 27-04-2019 08:00:00 8.66667 C 96.8333 % 8.19 C
1688 27-04-2019 09:00:00 10.16667 C 94.8333 % 9.38 C
1689 27-04-2019 10:00:00 11.30833 C 87.6667 % 9.34 C
1690 27-04-2019 11:00:00 12.64167 C 76.5000 % 8.62 C
1691 27-04-2019 12:00:00 12.69167 C 81.5833 % 9.63 C
1692 27-04-2019 13:00:00 13.025 C 77.9167 % 9.27 C
1693 27-04-2019 14:00:00 9.525 C 90.0000 % 7.97 C
1694 27-04-2019 15:00:00 10.46667 C 90.0000 % 8.9 C
1695 27-04-2019 16:00:00 11.75 C 81.7500 % 8.74 C
1696 27-04-2019 17:00:00 12.35 C 78.5833 % 8.74 C
1697 27-04-2019 18:00:00 11.34167 C 80.3333 % 8.08 C
1698 27-04-2019 19:00:00 9.55833 C 90.0833 % 8.02 C
1699 27-04-2019 20:00:00 7.725 C 92.1667 % 6.54 C
1700 27-04-2019 21:00:00 7.3 C 93.8333 % 6.37 C
Sensor: Nr:Datum:Temp:Feuchte:Taupunkt:
Aussen-T/F 1701 27-04-2019 22:00:00 6.76667 C 94.5833 % 5.96 C
1702 27-04-2019 23:00:00 6.84167 C 94.9167 % 6.09 C
1703 28-04-2019 00:00:00 6.86667 C 93.7500 % 5.93 C
1704 28-04-2019 01:00:00 6.875 C 92.2500 % 5.71 C
1705 28-04-2019 02:00:00 6.43333 C 91.0000 % 5.07 C
1706 28-04-2019 03:00:00 6.19167 C 90.2500 % 4.72 C
1707 28-04-2019 04:00:00 6.41667 C 88.1667 % 4.6 C
1708 28-04-2019 05:00:00 6.26667 C 88.6667 % 4.54 C
1709 28-04-2019 06:00:00 6.2 C 88.8333 % 4.5 C
1710 28-04-2019 07:00:00 6.80833 C 88.2500 % 5 C
1711 28-04-2019 08:00:00 7.575 C 86.0833 % 5.4 C
1712 28-04-2019 09:00:00 7.93333 C 86.5833 % 5.84 C
1713 28-04-2019 10:00:00 8.90833 C 83.0000 % 6.18 C
1714 28-04-2019 11:00:00 10 C 74.3333 % 5.65 C
1715 28-04-2019 12:00:00 10.325 C 70.5833 % 5.22 C
1716 28-04-2019 13:00:00 11.3 C 67.0000 % 5.4 C
1717 28-04-2019 14:00:00 12.35 C 66.5000 % 6.3 C
1718 28-04-2019 15:00:00 11.50833 C 73.3333 % 6.91 C
1719 28-04-2019 16:00:00 10.375 C 83.8333 % 7.76 C
1720 28-04-2019 17:00:00 11.44167 C 79.0833 % 7.95 C
1721 28-04-2019 18:00:00 11.48333 C 74.5833 % 7.13 C
1722 28-04-2019 19:00:00 10.86667 C 76.0000 % 6.81 C
1723 28-04-2019 20:00:00 9.65 C 80.2500 % 6.42 C
1724 28-04-2019 21:00:00 7.30833 C 86.9167 % 5.28 C
1725 28-04-2019 22:00:00 5.96667 C 90.4167 % 4.52 C
Sensor: Nr:Datum:Temp:Feuchte:Taupunkt:
Aussen-T/F 1726 28-04-2019 23:00:00 5 C 92.3333 % 3.86 C
1727 29-04-2019 00:00:00 4.41667 C 93.5833 % 3.47 C
1728 29-04-2019 01:00:00 4.03333 C 94.0000 % 3.16 C
1729 29-04-2019 02:00:00 3.425 C 94.7500 % 2.66 C
1730 29-04-2019 03:00:00 3.675 C 95.0000 % 2.95 C
1731 29-04-2019 04:00:00 3.54167 C 95.5833 % 2.9 C
1732 29-04-2019 05:00:00 3.35833 C 96.0000 % 2.78 C
1733 29-04-2019 06:00:00 3.15 C 96.0000 % 2.58 C
1734 29-04-2019 07:00:00 3.225 C 96.0000 % 2.65 C
1735 29-04-2019 08:00:00 3.85833 C 96.4167 % 3.34 C
1736 29-04-2019 09:00:00 4.99167 C 97.0000 % 4.56 C
1737 29-04-2019 10:00:00 6.51667 C 95.1667 % 5.8 C
1738 29-04-2019 11:00:00 8.7 C 90.7500 % 7.27 C
1739 29-04-2019 12:00:00 11.925 C 77.0833 % 8.04 C
1740 29-04-2019 13:00:00 13.975 C 63.3333 % 7.13 C
1741 29-04-2019 14:00:00 14.83333 C 57.0833 % 6.43 C
1742 29-04-2019 15:00:00 15.29167 C 56.3333 % 6.66 C
1743 29-04-2019 16:00:00 15.31667 C 55.3333 % 6.43 C
1744 29-04-2019 17:00:00 15.31667 C 55.7500 % 6.53 C
1745 29-04-2019 18:00:00 13.69167 C 68.6667 % 8.04 C
1746 29-04-2019 19:00:00 11.075 C 88.0833 % 9.18 C
1747 29-04-2019 20:00:00 10.25 C 91.5833 % 8.94 C
1748 29-04-2019 21:00:00 10.13333 C 92.3333 % 8.95 C
1749 29-04-2019 22:00:00 10.25833 C 91.7500 % 8.98 C
1750 29-04-2019 23:00:00 10.65833 C 89.5833 % 9.02 C
Sensor: Nr:Datum:Temp:Feuchte:Taupunkt:
Aussen-T/F 1751 30-04-2019 00:00:00 10.98333 C 87.3333 % 8.96 C
1752 30-04-2019 01:00:00 11.16667 C 86.2500 % 8.96 C
1753 30-04-2019 02:00:00 10.85 C 88.0833 % 8.96 C
1754 30-04-2019 03:00:00 10.59167 C 89.0000 % 8.86 C
1755 30-04-2019 04:00:00 10.30833 C 88.9167 % 8.56 C
1756 30-04-2019 05:00:00 10.18333 C 88.0833 % 8.3 C
1757 30-04-2019 06:00:00 10.05833 C 88.8333 % 8.3 C
1758 30-04-2019 07:00:00 10.075 C 88.7500 % 8.31 C
1759 30-04-2019 08:00:00 10.725 C 83.9167 % 8.12 C
1760 30-04-2019 09:00:00 11.51667 C 76.8333 % 7.6 C
1761 30-04-2019 10:00:00 12.61667 C 70.0833 % 7.31 C
1762 30-04-2019 11:00:00 13.60833 C 62.7500 % 6.65 C
1763 30-04-2019 12:00:00 14.5 C 58.3333 % 6.43 C
1764 30-04-2019 13:00:00 15.65833 C 53.2500 % 6.19 C
1765 30-04-2019 14:00:00 16.86667 C 48.5000 % 5.95 C
1766 30-04-2019 15:00:00 18.59167 C 45.3333 % 6.55 C
1767 30-04-2019 16:00:00 20.025 C 40.8333 % 6.32 C
1768 30-04-2019 17:00:00 20.46667 C 41.5000 % 6.95 C
1769 30-04-2019 18:00:00 20.24167 C 42.8333 % 7.21 C
1770 30-04-2019 19:00:00 18.90833 C 48.8333 % 7.92 C
1771 30-04-2019 20:00:00 16.95833 C 56.9167 % 8.37 C
1772 30-04-2019 21:00:00 15.48333 C 64.8333 % 8.9 C
1773 30-04-2019 22:00:00 14.225 C 70.8333 % 9.01 C
1774 30-04-2019 23:00:00 12.65833 C 77.9167 % 8.91 C
1775 01-05-2019 00:00:00 11.25833 C 83.0833 % 8.5 C
Sensor: Nr:Datum:Temp:Feuchte:Taupunkt:
Aussen-T/F 1776 01-05-2019 01:00:00 10.36667 C 85.5000 % 8.04 C
1777 01-05-2019 02:00:00 9.26667 C 88.2500 % 7.43 C
1778 01-05-2019 03:00:00 8.45833 C 90.8333 % 7.05 C
1779 01-05-2019 04:00:00 8.075 C 91.7500 % 6.82 C
1780 01-05-2019 05:00:00 6.95833 C 92.2500 % 5.79 C
1781 01-05-2019 06:00:00 6.275 C 93.5833 % 5.32 C
1782 01-05-2019 07:00:00 6.79167 C 94.9167 % 6.04 C
1783 01-05-2019 08:00:00 7.9 C 94.8333 % 7.12 C
1784 01-05-2019 09:00:00 8.89167 C 92.9167 % 7.81 C
1785 01-05-2019 10:00:00 10.11667 C 89.7500 % 8.51 C
1786 01-05-2019 11:00:00 11.40833 C 86.2500 % 9.2 C
1787 01-05-2019 12:00:00 13.80833 C 79.0833 % 10.25 C
1788 01-05-2019 13:00:00 16.03333 C 66.4167 % 9.78 C
1789 01-05-2019 14:00:00 17.69167 C 55.0833 % 8.57 C
1790 01-05-2019 15:00:00 19.35 C 48.7500 % 8.3 C
1791 01-05-2019 16:00:00 21.31667 C 43.8333 % 8.52 C
1792 01-05-2019 17:00:00 21.48333 C 44.2500 % 8.81 C
1793 01-05-2019 18:00:00 20.325 C 52.5000 % 10.3 C
1794 01-05-2019 19:00:00 18.21667 C 58.2500 % 9.89 C
1795 01-05-2019 20:00:00 15.65833 C 63.3333 % 8.72 C
1796 01-05-2019 21:00:00 13.53333 C 73.2500 % 8.84 C
1797 01-05-2019 22:00:00 12.76667 C 77.9167 % 9.02 C
1798 01-05-2019 23:00:00 10.80833 C 85.4167 % 8.46 C
1799 02-05-2019 00:00:00 9.98333 C 88.3333 % 8.15 C
1800 02-05-2019 01:00:00 8.96667 C 90.4167 % 7.48 C
Sensor: Nr:Datum:Temp:Feuchte:Taupunkt:
Aussen-T/F 1801 02-05-2019 02:00:00 8.23333 C 92.7500 % 7.13 C
1802 02-05-2019 03:00:00 7.73333 C 93.5833 % 6.77 C
1803 02-05-2019 04:00:00 7.025 C 94.0000 % 6.13 C
1804 02-05-2019 05:00:00 6.325 C 94.2500 % 5.47 C
1805 02-05-2019 06:00:00 5.89167 C 95.0000 % 5.15 C
1806 02-05-2019 07:00:00 6.84167 C 96.0000 % 6.25 C
1807 02-05-2019 08:00:00 8.325 C 95.7500 % 7.69 C
1808 02-05-2019 09:00:00 9.075 C 92.3333 % 7.9 C
1809 02-05-2019 10:00:00 10.725 C 82.5833 % 7.89 C
1810 02-05-2019 11:00:00 12.15833 C 76.5833 % 8.17 C
1811 02-05-2019 12:00:00 12.925 C 74.0000 % 8.41 C
1812 02-05-2019 13:00:00 14.15 C 69.5000 % 8.66 C
1813 02-05-2019 14:00:00 15.85 C 65.2500 % 9.35 C
1814 02-05-2019 15:00:00 16.58333 C 61.0833 % 9.06 C
1815 02-05-2019 16:00:00 17.225 C 58.0000 % 8.9 C
1816 02-05-2019 17:00:00 17.75 C 51.5000 % 7.63 C
1817 02-05-2019 18:00:00 17.96667 C 46.8333 % 6.45 C
1818 02-05-2019 19:00:00 15.54167 C 60.2500 % 7.88 C
1819 02-05-2019 20:00:00 12.78333 C 76.9167 % 8.84 C
1820 02-05-2019 21:00:00 11.44167 C 88.5000 % 9.61 C
1821 02-05-2019 22:00:00 10.75833 C 90.9167 % 9.34 C
1822 02-05-2019 23:00:00 10.7 C 91.7500 % 9.41 C
1823 03-05-2019 00:00:00 10.6 C 92.3333 % 9.41 C
1824 03-05-2019 01:00:00 10.51667 C 86.6667 % 8.39 C
1825 03-05-2019 02:00:00 9.85 C 84.1667 % 7.31 C
Sensor: Nr:Datum:Temp:Feuchte:Taupunkt:
Aussen-T/F 1826 03-05-2019 03:00:00 9.375 C 85.7500 % 7.11 C
1827 03-05-2019 04:00:00 9.16667 C 87.6667 % 7.23 C
1828 03-05-2019 05:00:00 9.28333 C 88.0000 % 7.4 C
1829 03-05-2019 06:00:00 9.25 C 87.7500 % 7.33 C
1830 03-05-2019 07:00:00 9.25 C 85.6667 % 6.98 C
1831 03-05-2019 08:00:00 9.65833 C 83.5000 % 7 C
1832 03-05-2019 09:00:00 10.10833 C 79.5000 % 6.73 C
1833 03-05-2019 10:00:00 10.78333 C 73.7500 % 6.29 C
1834 03-05-2019 11:00:00 11.16667 C 69.0833 % 5.72 C
1835 03-05-2019 12:00:00 11.34167 C 68.9167 % 5.85 C
1836 03-05-2019 13:00:00 12.075 C 65.5833 % 5.83 C
1837 03-05-2019 14:00:00 12.98333 C 59.5000 % 5.29 C
1838 03-05-2019 15:00:00 14.38333 C 52.9167 % 4.92 C
1839 03-05-2019 16:00:00 15 C 51.0000 % 4.96 C
1840 03-05-2019 17:00:00 14.125 C 53.9167 % 4.94 C
1841 03-05-2019 18:00:00 13.64167 C 56.3333 % 5.12 C
1842 03-05-2019 19:00:00 12.4 C 60.0000 % 4.86 C
1843 03-05-2019 20:00:00 11.18333 C 64.2500 % 4.69 C
1844 03-05-2019 21:00:00 9.875 C 70.1667 % 4.7 C
1845 03-05-2019 22:00:00 9.375 C 74.3333 % 5.05 C
1846 03-05-2019 23:00:00 8.65833 C 78.5833 % 5.15 C
1847 04-05-2019 00:00:00 8.05833 C 81.6667 % 5.12 C
1848 04-05-2019 01:00:00 7.625 C 83.1667 % 4.96 C
1849 04-05-2019 02:00:00 7.575 C 84.7500 % 5.18 C
1850 04-05-2019 03:00:00 7.43333 C 86.7500 % 5.37 C
Sensor: Nr:Datum:Temp:Feuchte:Taupunkt:
Aussen-T/F 1851 04-05-2019 04:00:00 7.4 C 90.0833 % 5.88 C
1852 04-05-2019 05:00:00 5.025 C 91.3333 % 3.73 C
1853 04-05-2019 06:00:00 3.74167 C 92.3333 % 2.62 C
1854 04-05-2019 07:00:00 3.23333 C 93.0000 % 2.21 C
1855 04-05-2019 08:00:00 3.26667 C 93.8333 % 2.37 C
1856 04-05-2019 09:00:00 3.99167 C 94.0000 % 3.12 C
1857 04-05-2019 10:00:00 4.64167 C 91.0000 % 3.3 C
1858 04-05-2019 11:00:00 5.00833 C 89.0833 % 3.36 C
1859 04-05-2019 12:00:00 5.93333 C 85.6667 % 3.72 C
1860 04-05-2019 13:00:00 7.25833 C 78.2500 % 3.73 C
1861 04-05-2019 14:00:00 7.44167 C 77.6667 % 3.8 C
1862 04-05-2019 15:00:00 4.74167 C 89.1667 % 3.11 C
1863 04-05-2019 16:00:00 7.80833 C 85.1667 % 5.48 C
1864 04-05-2019 17:00:00 10.13333 C 77.2500 % 6.34 C
1865 04-05-2019 18:00:00 10.36667 C 60.6667 % 3.11 C
1866 04-05-2019 19:00:00 9.3 C 67.2500 % 3.55 C
1867 04-05-2019 20:00:00 7.475 C 74.9167 % 3.32 C
1868 04-05-2019 21:00:00 6.49167 C 79.1667 % 3.15 C
1869 04-05-2019 22:00:00 5.00833 C 85.0000 % 2.7 C
1870 04-05-2019 23:00:00 3.8 C 89.6667 % 2.26 C
1871 05-05-2019 00:00:00 3.71667 C 91.7500 % 2.5 C
1872 05-05-2019 01:00:00 3.80833 C 92.6667 % 2.73 C
1873 05-05-2019 02:00:00 3.45833 C 92.6667 % 2.39 C
1874 05-05-2019 03:00:00 3.68333 C 93.7500 % 2.77 C
1875 05-05-2019 04:00:00 3.69167 C 92.7500 % 2.63 C
Sensor: Nr:Datum:Temp:Feuchte:Taupunkt:
Aussen-T/F 1876 05-05-2019 05:00:00 3.33333 C 92.0000 % 2.16 C
1877 05-05-2019 06:00:00 2.73333 C 92.0833 % 1.58 C
1878 05-05-2019 07:00:00 2.46667 C 93.3333 % 1.5 C
1879 05-05-2019 08:00:00 3.35833 C 94.0000 % 2.49 C
1880 05-05-2019 09:00:00 4.73333 C 90.9167 % 3.38 C
1881 05-05-2019 10:00:00 5.84167 C 86.5000 % 3.77 C
1882 05-05-2019 11:00:00 6.98333 C 83.5000 % 4.39 C
1883 05-05-2019 12:00:00 7.63333 C 80.6667 % 4.53 C
1884 05-05-2019 13:00:00 8.91667 C 73.1667 % 4.38 C
1885 05-05-2019 14:00:00 9.29167 C 70.7500 % 4.26 C
1886 05-05-2019 15:00:00 9.86667 C 68.9167 % 4.44 C
1887 05-05-2019 16:00:00 12.39167 C 57.5833 % 4.27 C
1888 05-05-2019 17:00:00 12.55833 C 58.7500 % 4.71 C
1889 05-05-2019 18:00:00 11.3 C 64.5833 % 4.88 C
1890 05-05-2019 19:00:00 9.66667 C 70.1667 % 4.5 C
1891 05-05-2019 20:00:00 9.19167 C 71.9167 % 4.4 C
1892 05-05-2019 21:00:00 8.26667 C 76.0833 % 4.31 C
1893 05-05-2019 22:00:00 7.15 C 80.1667 % 3.97 C
1894 05-05-2019 23:00:00 6.25 C 85.3333 % 3.98 C
1895 06-05-2019 00:00:00 6.11667 C 86.5000 % 4.04 C
1896 06-05-2019 01:00:00 5.90833 C 87.5833 % 4.01 C
1897 06-05-2019 02:00:00 5.1 C 87.9167 % 3.27 C
1898 06-05-2019 03:00:00 4.25833 C 90.4167 % 2.83 C
1899 06-05-2019 04:00:00 3.59167 C 91.2500 % 2.3 C
1900 06-05-2019 05:00:00 3.01667 C 92.4167 % 1.91 C
Sensor: Nr:Datum:Temp:Feuchte:Taupunkt:
Aussen-T/F 1901 06-05-2019 06:00:00 3.14167 C 93.7500 % 2.23 C
1902 06-05-2019 07:00:00 3.70833 C 94.0000 % 2.83 C
1903 06-05-2019 08:00:00 4.56667 C 92.3333 % 3.43 C
1904 06-05-2019 09:00:00 6.31667 C 84.2500 % 3.86 C
1905 06-05-2019 10:00:00 8.01667 C 73.8333 % 3.64 C
1906 06-05-2019 11:00:00 9.33333 C 66.7500 % 3.48 C
1907 06-05-2019 12:00:00 10.05 C 59.5000 % 2.53 C
1908 06-05-2019 13:00:00 10.95 C 56.0833 % 2.55 C
1909 06-05-2019 14:00:00 11.24167 C 55.0000 % 2.55 C
1910 06-05-2019 15:00:00 11.29167 C 57.1667 % 3.14 C
1911 06-05-2019 16:00:00 11.01667 C 60.3333 % 3.64 C
1912 06-05-2019 17:00:00 10.675 C 61.1667 % 3.51 C
1913 06-05-2019 18:00:00 11.425 C 61.2500 % 4.24 C
1914 06-05-2019 19:00:00 10.75833 C 68.2500 % 5.15 C
1915 06-05-2019 20:00:00 9.18333 C 75.5000 % 5.09 C
1916 06-05-2019 21:00:00 8.26667 C 82.0000 % 5.38 C
1917 06-05-2019 22:00:00 7.75 C 85.5000 % 5.48 C
1918 06-05-2019 23:00:00 7.30833 C 86.8333 % 5.26 C
1919 07-05-2019 00:00:00 7.29167 C 88.5000 % 5.52 C
1920 07-05-2019 01:00:00 7.04167 C 89.1667 % 5.38 C
1921 07-05-2019 02:00:00 6.7 C 90.0000 % 5.18 C
1922 07-05-2019 03:00:00 6.64167 C 90.0000 % 5.12 C
1923 07-05-2019 04:00:00 6.35 C 90.1667 % 4.86 C
1924 07-05-2019 05:00:00 6.16667 C 91.0000 % 4.81 C
1925 07-05-2019 06:00:00 5.85833 C 91.3333 % 4.56 C
Sensor: Nr:Datum:Temp:Feuchte:Taupunkt:
Aussen-T/F 1926 07-05-2019 07:00:00 6.38333 C 92.0833 % 5.19 C
1927 07-05-2019 08:00:00 7.30833 C 89.2500 % 5.66 C
1928 07-05-2019 09:00:00 8.475 C 85.7500 % 6.23 C
1929 07-05-2019 10:00:00 9.60833 C 79.9167 % 6.32 C
1930 07-05-2019 11:00:00 10.575 C 71.7500 % 5.7 C
1931 07-05-2019 12:00:00 11.88333 C 60.5000 % 4.49 C
1932 07-05-2019 13:00:00 11.86667 C 58.6667 % 4.04 C
1933 07-05-2019 14:00:00 12.76667 C 55.1667 % 4.01 C
1934 07-05-2019 15:00:00 13.05833 C 52.6667 % 3.62 C
1935 07-05-2019 16:00:00 14.13333 C 50.6667 % 4.06 C
1936 07-05-2019 17:00:00 14.9 C 47.4167 % 3.83 C
1937 07-05-2019 18:00:00 14.94167 C 46.0000 % 3.44 C
1938 07-05-2019 19:00:00 13.4 C 61.8333 % 6.24 C
1939 07-05-2019 20:00:00 11.275 C 62.9167 % 4.48 C
1940 07-05-2019 21:00:00 9.01667 C 68.3333 % 3.51 C
1941 07-05-2019 22:00:00 7.98333 C 75.9167 % 4 C
1942 07-05-2019 23:00:00 6.93333 C 80.7500 % 3.86 C
1943 08-05-2019 00:00:00 6.325 C 82.9167 % 3.64 C
1944 08-05-2019 01:00:00 5.75 C 84.4167 % 3.33 C
1945 08-05-2019 02:00:00 5.15 C 87.0000 % 3.17 C
1946 08-05-2019 03:00:00 4.7 C 89.4167 % 3.11 C
1947 08-05-2019 04:00:00 4.95 C 91.0000 % 3.61 C
1948 08-05-2019 05:00:00 5.25 C 91.0000 % 3.9 C
1949 08-05-2019 06:00:00 5.49167 C 91.2500 % 4.18 C
1950 08-05-2019 07:00:00 6.21667 C 90.5000 % 4.78 C
Sensor: Nr:Datum:Temp:Feuchte:Taupunkt:
Aussen-T/F 1951 08-05-2019 08:00:00 7.49167 C 87.9167 % 5.62 C
1952 08-05-2019 09:00:00 8.85 C 82.5833 % 6.05 C
1953 08-05-2019 10:00:00 9.025 C 87.2500 % 7.02 C
1954 08-05-2019 11:00:00 9.69167 C 89.4167 % 8.04 C
1955 08-05-2019 12:00:00 11.325 C 88.5833 % 9.51 C
1956 08-05-2019 13:00:00 13.61667 C 82.9167 % 10.77 C
1957 08-05-2019 14:00:00 14.7 C 78.7500 % 11.05 C
1958 08-05-2019 15:00:00 14.56667 C 78.9167 % 10.95 C
1959 08-05-2019 16:00:00 13.39167 C 86.7500 % 11.23 C
1960 08-05-2019 17:00:00 12.51667 C 91.3333 % 11.14 C
1961 08-05-2019 18:00:00 12.5 C 92.9167 % 11.39 C
1962 08-05-2019 19:00:00 12.25833 C 93.5000 % 11.24 C
1963 08-05-2019 20:00:00 11.71667 C 94.0000 % 10.78 C
1964 08-05-2019 21:00:00 10.95833 C 94.5000 % 10.11 C
1965 08-05-2019 22:00:00 10.14167 C 94.9167 % 9.36 C
1966 08-05-2019 23:00:00 9.41667 C 94.5833 % 8.59 C
1967 09-05-2019 00:00:00 8.78333 C 94.5000 % 7.95 C
1968 09-05-2019 01:00:00 8.31667 C 94.7500 % 7.53 C
1969 09-05-2019 02:00:00 7.425 C 94.8333 % 6.65 C
1970 09-05-2019 03:00:00 7.31667 C 95.7500 % 6.68 C
1971 09-05-2019 04:00:00 7.75833 C 96.0000 % 7.16 C
1972 09-05-2019 05:00:00 7.80833 C 96.0000 % 7.21 C
1973 09-05-2019 06:00:00 7.46667 C 95.5833 % 6.81 C
1974 09-05-2019 07:00:00 8.7 C 96.3333 % 8.15 C
1975 09-05-2019 08:00:00 9.9 C 93.4167 % 8.89 C
Sensor: Nr:Datum:Temp:Feuchte:Taupunkt:
Aussen-T/F 1976 09-05-2019 09:00:00 11.4 C 87.4167 % 9.39 C
1977 09-05-2019 10:00:00 11.6 C 88.2500 % 9.72 C
1978 09-05-2019 11:00:00 12.78333 C 84.0000 % 10.15 C
1979 09-05-2019 12:00:00 13.21667 C 84.4167 % 10.65 C
1980 09-05-2019 13:00:00 13.26667 C 83.8333 % 10.59 C
1981 09-05-2019 14:00:00 13.60833 C 80.0833 % 10.24 C
1982 09-05-2019 15:00:00 13.43333 C 82.7500 % 10.56 C
1983 09-05-2019 16:00:00 13.80833 C 81.1667 % 10.64 C
1984 09-05-2019 17:00:00 14.375 C 81.4167 % 11.24 C
1985 09-05-2019 18:00:00 15.625 C 79.3333 % 12.06 C
1986 09-05-2019 19:00:00 15.4 C 79.2500 % 11.83 C
1987 09-05-2019 20:00:00 13.70833 C 85.5833 % 11.34 C
1988 09-05-2019 21:00:00 11.66667 C 90.7500 % 10.21 C
1989 09-05-2019 22:00:00 10.89167 C 94.1667 % 9.99 C
1990 09-05-2019 23:00:00 10.76667 C 95.0000 % 10 C
1991 10-05-2019 00:00:00 10.525 C 95.0000 % 9.76 C
1992 10-05-2019 01:00:00 9.51667 C 95.0000 % 8.76 C
1993 10-05-2019 02:00:00 8.85833 C 95.5000 % 8.18 C
1994 10-05-2019 03:00:00 8.16667 C 95.3333 % 7.47 C
1995 10-05-2019 04:00:00 8.56667 C 96.2500 % 8 C
1996 10-05-2019 05:00:00 8.28333 C 96.0000 % 7.68 C
1997 10-05-2019 06:00:00 8.40833 C 96.0000 % 7.81 C
1998 10-05-2019 07:00:00 8.75 C 95.5833 % 8.08 C
1999 10-05-2019 08:00:00 9.175 C 94.0833 % 8.27 C
2000 10-05-2019 09:00:00 10.7 C 87.5000 % 8.71 C
Sensor: Nr:Datum:Temp:Feuchte:Taupunkt:
Aussen-T/F 2001 10-05-2019 10:00:00 12.1 C 81.4167 % 9.02 C
2002 10-05-2019 11:00:00 13.23333 C 75.7500 % 9.05 C
2003 10-05-2019 12:00:00 14.35 C 67.4167 % 8.4 C
2004 10-05-2019 13:00:00 15.44167 C 60.0000 % 7.72 C
2005 10-05-2019 14:00:00 16.75 C 54.4167 % 7.51 C
2006 10-05-2019 15:00:00 17.21667 C 52.5000 % 7.42 C
2007 10-05-2019 16:00:00 17.93333 C 49.3333 % 7.17 C
2008 10-05-2019 17:00:00 17.6 C 48.8333 % 6.72 C
2009 10-05-2019 18:00:00 17.25 C 50.5833 % 6.91 C
2010 10-05-2019 19:00:00 17.18333 C 62.0000 % 9.85 C
2011 10-05-2019 20:00:00 14.175 C 71.5000 % 9.1 C
2012 10-05-2019 21:00:00 12.35 C 77.4167 % 8.52 C
2013 10-05-2019 22:00:00 11.76667 C 81.3333 % 8.68 C
2014 10-05-2019 23:00:00 11.53333 C 83.2500 % 8.79 C
2015 11-05-2019 00:00:00 11.04167 C 86.5833 % 8.89 C
2016 11-05-2019 01:00:00 10.36667 C 91.1667 % 8.99 C
2017 11-05-2019 02:00:00 10.1 C 93.3333 % 9.07 C
2018 11-05-2019 03:00:00 9.925 C 94.1667 % 9.03 C
2019 11-05-2019 04:00:00 9.7 C 95.0000 % 8.94 C
2020 11-05-2019 05:00:00 9.775 C 95.7500 % 9.13 C
2021 11-05-2019 06:00:00 9.7 C 96.0000 % 9.09 C
2022 11-05-2019 07:00:00 9.7 C 96.0000 % 9.09 C
2023 11-05-2019 08:00:00 9.65833 C 96.0000 % 9.05 C
2024 11-05-2019 09:00:00 9.70833 C 96.0000 % 9.1 C
2025 11-05-2019 10:00:00 9.85833 C 96.0000 % 9.25 C
Sensor: Nr:Datum:Temp:Feuchte:Taupunkt:
Aussen-T/F 2026 11-05-2019 11:00:00 10.13333 C 96.0000 % 9.52 C
2027 11-05-2019 12:00:00 10.36667 C 94.5833 % 9.54 C
2028 11-05-2019 13:00:00 9.79167 C 94.0000 % 8.87 C
2029 11-05-2019 14:00:00 9.76667 C 94.9167 % 8.99 C
2030 11-05-2019 15:00:00 9.91667 C 95.0000 % 9.15 C
2031 11-05-2019 16:00:00 10.31667 C 95.9167 % 9.69 C
2032 11-05-2019 17:00:00 10.95833 C 95.4167 % 10.25 C
2033 11-05-2019 18:00:00 11.79167 C 88.6667 % 9.98 C
2034 11-05-2019 19:00:00 12.1 C 81.5833 % 9.05 C
2035 11-05-2019 20:00:00 11.3 C 84.1667 % 8.73 C
2036 11-05-2019 21:00:00 9.44167 C 91.2500 % 8.09 C
2037 11-05-2019 22:00:00 8.33333 C 92.8333 % 7.24 C
2038 11-05-2019 23:00:00 7.65 C 94.3333 % 6.8 C
2039 12-05-2019 00:00:00 7.41667 C 95.0000 % 6.67 C
2040 12-05-2019 01:00:00 6.75 C 95.0000 % 6.01 C
2041 12-05-2019 02:00:00 6.43333 C 93.7500 % 5.5 C
2042 12-05-2019 03:00:00 5.66667 C 93.0000 % 4.63 C
2043 12-05-2019 04:00:00 4.70833 C 93.7500 % 3.79 C
2044 12-05-2019 05:00:00 4.225 C 94.6667 % 3.45 C
2045 12-05-2019 06:00:00 4.45833 C 95.0000 % 3.73 C
2046 12-05-2019 07:00:00 5.68333 C 91.8333 % 4.46 C
2047 12-05-2019 08:00:00 6.98333 C 85.5000 % 4.72 C
2048 12-05-2019 09:00:00 8.125 C 78.6667 % 4.65 C
2049 12-05-2019 10:00:00 8.83333 C 74.3333 % 4.53 C
2050 12-05-2019 11:00:00 9.58333 C 69.4167 % 4.27 C
Sensor: Nr:Datum:Temp:Feuchte:Taupunkt:
Aussen-T/F 2051 12-05-2019 12:00:00 10.54167 C 64.7500 % 4.19 C
2052 12-05-2019 13:00:00 11.66667 C 60.1667 % 4.21 C
2053 12-05-2019 14:00:00 12.83333 C 54.8333 % 3.98 C
2054 12-05-2019 15:00:00 14.13333 C 50.9167 % 4.13 C
2055 12-05-2019 16:00:00 15.25833 C 46.0000 % 3.72 C
2056 12-05-2019 17:00:00 14.83333 C 45.5000 % 3.18 C
2057 12-05-2019 18:00:00 15.19167 C 43.5833 % 2.9 C
2058 12-05-2019 19:00:00 13.96667 C 45.0833 % 2.26 C
2059 12-05-2019 20:00:00 13.09167 C 49.2500 % 2.71 C
2060 12-05-2019 21:00:00 9.68333 C 71.3333 % 4.76 C
2061 12-05-2019 22:00:00 8.375 C 76.7500 % 4.54 C
2062 12-05-2019 23:00:00 7.30833 C 78.5833 % 3.84 C
2063 13-05-2019 00:00:00 6.45 C 82.1667 % 3.64 C
2064 13-05-2019 01:00:00 5.11667 C 87.5833 % 3.23 C
2065 13-05-2019 02:00:00 4.15 C 90.5833 % 2.75 C
2066 13-05-2019 03:00:00 3.60833 C 92.2500 % 2.47 C
2067 13-05-2019 04:00:00 3.075 C 93.2500 % 2.09 C
2068 13-05-2019 05:00:00 2.64167 C 94.0000 % 1.78 C
2069 13-05-2019 06:00:00 2.30833 C 94.5000 % 1.52 C
2070 13-05-2019 07:00:00 2.63333 C 95.2500 % 1.95 C
2071 13-05-2019 08:00:00 4.26667 C 96.0000 % 3.69 C
2072 13-05-2019 09:00:00 6.13333 C 90.4167 % 4.69 C
2073 13-05-2019 10:00:00 9.69167 C 57.8333 % 1.8 C
2074 13-05-2019 11:00:00 11.4 C 48.6667 % 0.99 C
2075 13-05-2019 12:00:00 13.43333 C 32.5833 % -2.66 C
Sensor: Nr:Datum:Temp:Feuchte:Taupunkt:
Aussen-T/F 2076 13-05-2019 13:00:00 14.6 C 29.9167 % -2.79 C
2077 13-05-2019 14:00:00 15.575 C 31.0000 % -1.47 C
2078 13-05-2019 15:00:00 17.19167 C 29.5833 % -0.7 C
2079 13-05-2019 16:00:00 18.43333 C 28.9167 % 0.06 C
2080 13-05-2019 17:00:00 18.6 C 28.4167 % -0.04 C
2081 13-05-2019 18:00:00 18.08333 C 28.8333 % -0.29 C
2082 13-05-2019 19:00:00 16.95833 C 32.8333 % 0.52 C
2083 13-05-2019 20:00:00 15.41667 C 34.7500 % -0.05 C
2084 13-05-2019 21:00:00 12.25 C 50.4167 % 2.26 C
2085 13-05-2019 22:00:00 9.325 C 60.9167 % 2.18 C
2086 13-05-2019 23:00:00 7.875 C 69.4167 % 2.63 C
2087 14-05-2019 00:00:00 6.7 C 74.8333 % 2.56 C
2088 14-05-2019 01:00:00 5.76667 C 77.5000 % 2.15 C
2089 14-05-2019 02:00:00 4.74167 C 81.2500 % 1.81 C
2090 14-05-2019 03:00:00 3.83333 C 84.6667 % 1.49 C
2091 14-05-2019 04:00:00 3.18333 C 87.0000 % 1.23 C
2092 14-05-2019 05:00:00 2.66667 C 88.9167 % 1.03 C
2093 14-05-2019 06:00:00 2.41667 C 90.8333 % 1.08 C
2094 14-05-2019 07:00:00 2.825 C 92.5000 % 1.73 C
2095 14-05-2019 08:00:00 4.2 C 92.5833 % 3.11 C
2096 14-05-2019 09:00:00 6.50833 C 85.8333 % 4.31 C
2097 14-05-2019 10:00:00 9.575 C 69.3333 % 4.25 C
2098 14-05-2019 11:00:00 12.65 C 50.8333 % 2.74 C
2099 14-05-2019 12:00:00 13.45833 C 45.8333 % 2.03 C
2100 14-05-2019 13:00:00 14.21667 C 43.7500 % 2.07 C
Sensor: Nr:Datum:Temp:Feuchte:Taupunkt:
Aussen-T/F 2101 14-05-2019 14:00:00 14.79167 C 43.0000 % 2.35 C
2102 14-05-2019 15:00:00 16.00833 C 39.8333 % 2.37 C
2103 14-05-2019 16:00:00 16.59167 C 37.0833 % 1.89 C
2104 14-05-2019 17:00:00 16.8 C 36.4167 % 1.82 C
2105 14-05-2019 18:00:00 16.475 C 37.2500 % 1.85 C
2106 14-05-2019 19:00:00 16.075 C 38.1667 % 1.83 C
2107 14-05-2019 20:00:00 13.73333 C 48.9167 % 3.2 C
2108 14-05-2019 21:00:00 10.35 C 60.5833 % 3.07 C
2109 14-05-2019 22:00:00 8.73333 C 67.9167 % 3.15 C
2110 14-05-2019 23:00:00 7.69167 C 71.9167 % 2.96 C
2111 15-05-2019 00:00:00 6.88333 C 73.5000 % 2.48 C
2112 15-05-2019 01:00:00 5.89167 C 77.3333 % 2.24 C
2113 15-05-2019 02:00:00 4.74167 C 81.4167 % 1.84 C
2114 15-05-2019 03:00:00 3.98333 C 84.5000 % 1.61 C
2115 15-05-2019 04:00:00 3.15 C 87.4167 % 1.27 C
2116 15-05-2019 05:00:00 2.60833 C 89.0000 % 0.98 C
2117 15-05-2019 06:00:00 2.325 C 91.0000 % 1.01 C
2118 15-05-2019 07:00:00 2.75833 C 92.4167 % 1.65 C
2119 15-05-2019 08:00:00 3.775 C 92.7500 % 2.71 C
2120 15-05-2019 09:00:00 5.99167 C 85.3333 % 3.72 C
2121 15-05-2019 10:00:00 10.15833 C 54.6667 % 1.45 C
2122 15-05-2019 11:00:00 12.05 C 45.6667 % 0.7 C
2123 15-05-2019 12:00:00 12.95 C 40.9167 % 0 C
2124 15-05-2019 13:00:00 14.08333 C 35.9167 % -0.77 C
2125 15-05-2019 14:00:00 14.95 C 37.1667 % 0.46 C
Sensor: Nr:Datum:Temp:Feuchte:Taupunkt:
Aussen-T/F 2126 15-05-2019 15:00:00 15.975 C 34.0833 % 0.18 C
2127 15-05-2019 16:00:00 17.19167 C 34.3333 % 1.35 C
2128 15-05-2019 17:00:00 17.58333 C 33.0833 % 1.18 C
2129 15-05-2019 18:00:00 17.38333 C 33.9167 % 1.35 C
2130 15-05-2019 19:00:00 16.55833 C 35.2500 % 1.16 C
2131 15-05-2019 20:00:00 15.10833 C 42.2500 % 2.39 C
2132 15-05-2019 21:00:00 11.45833 C 56.8333 % 3.21 C
2133 15-05-2019 22:00:00 9.525 C 60.3333 % 2.24 C
2134 15-05-2019 23:00:00 8.09167 C 63.9167 % 1.69 C
2135 16-05-2019 00:00:00 7.39167 C 66.5833 % 1.59 C
2136 16-05-2019 01:00:00 6.64167 C 73.4167 % 2.24 C
2137 16-05-2019 02:00:00 5.725 C 78.7500 % 2.33 C
2138 16-05-2019 03:00:00 5.58333 C 82.1667 % 2.79 C
2139 16-05-2019 04:00:00 5.71667 C 83.5833 % 3.16 C
2140 16-05-2019 05:00:00 5.83333 C 84.0833 % 3.36 C
2141 16-05-2019 06:00:00 5.95 C 85.4167 % 3.7 C
2142 16-05-2019 07:00:00 6.64167 C 85.1667 % 4.33 C
2143 16-05-2019 08:00:00 7.98333 C 82.8333 % 5.25 C
2144 16-05-2019 09:00:00 9.95 C 72.7500 % 5.29 C
2145 16-05-2019 10:00:00 11.65833 C 62.9167 % 4.84 C
2146 16-05-2019 11:00:00 12.20833 C 58.5833 % 4.34 C
2147 16-05-2019 12:00:00 13.13333 C 58.8333 % 5.27 C
2148 16-05-2019 13:00:00 14.68333 C 56.6667 % 6.18 C
2149 16-05-2019 14:00:00 15.4 C 55.8333 % 6.63 C
2150 16-05-2019 15:00:00 17.38333 C 52.0833 % 7.46 C
Sensor: Nr:Datum:Temp:Feuchte:Taupunkt:
Aussen-T/F 2151 16-05-2019 16:00:00 18.23333 C 49.6667 % 7.55 C
2152 16-05-2019 17:00:00 16.90833 C 54.0000 % 7.55 C
2153 16-05-2019 18:00:00 15.44167 C 61.5833 % 8.1 C
2154 16-05-2019 19:00:00 14.075 C 68.0833 % 8.28 C
2155 16-05-2019 20:00:00 12.56667 C 73.1667 % 7.9 C
2156 16-05-2019 21:00:00 11.175 C 76.0000 % 7.11 C
2157 16-05-2019 22:00:00 10.23333 C 81.7500 % 7.26 C
2158 16-05-2019 23:00:00 9.60833 C 86.3333 % 7.44 C
2159 17-05-2019 00:00:00 9.08333 C 90.9167 % 7.68 C
2160 17-05-2019 01:00:00 8.79167 C 92.5000 % 7.64 C
2161 17-05-2019 02:00:00 8.7 C 93.6667 % 7.74 C
2162 17-05-2019 03:00:00 8.63333 C 94.1667 % 7.75 C
2163 17-05-2019 04:00:00 8.475 C 94.9167 % 7.71 C
2164 17-05-2019 05:00:00 8.36667 C 95.0000 % 7.61 C
2165 17-05-2019 06:00:00 8.45 C 95.5833 % 7.79 C
2166 17-05-2019 07:00:00 8.71667 C 96.0000 % 8.12 C
2167 17-05-2019 08:00:00 8.96667 C 96.0000 % 8.36 C
2168 17-05-2019 09:00:00 9.29167 C 96.0000 % 8.69 C
2169 17-05-2019 10:00:00 9.625 C 96.0000 % 9.02 C
2170 17-05-2019 11:00:00 10.2 C 95.0833 % 9.45 C
2171 17-05-2019 12:00:00 11.175 C 93.7500 % 10.21 C
2172 17-05-2019 13:00:00 12.825 C 89.1667 % 11.09 C
2173 17-05-2019 14:00:00 14.44167 C 84.1667 % 11.8 C
2174 17-05-2019 15:00:00 15.54167 C 79.8333 % 12.08 C
2175 17-05-2019 16:00:00 16.35 C 75.2500 % 11.96 C
Sensor: Nr:Datum:Temp:Feuchte:Taupunkt:
Aussen-T/F 2176 17-05-2019 17:00:00 17.35 C 70.8333 % 12.01 C
2177 17-05-2019 18:00:00 16.8 C 78.3333 % 13.01 C
2178 17-05-2019 19:00:00 16.625 C 80.1667 % 13.19 C
2179 17-05-2019 20:00:00 13.975 C 85.3333 % 11.55 C
2180 17-05-2019 21:00:00 12.00833 C 89.6667 % 10.36 C
2181 17-05-2019 22:00:00 11.96667 C 92.0000 % 10.71 C
2182 17-05-2019 23:00:00 12.05833 C 93.4167 % 11.03 C
2183 18-05-2019 00:00:00 11.6 C 94.0000 % 10.67 C
2184 18-05-2019 01:00:00 10.44167 C 94.4167 % 9.58 C
2185 18-05-2019 02:00:00 10.58333 C 95.8333 % 9.95 C
2186 18-05-2019 03:00:00 10.43333 C 95.9167 % 9.81 C
2187 18-05-2019 04:00:00 9.925 C 96.0000 % 9.32 C
2188 18-05-2019 05:00:00 9.31667 C 96.0000 % 8.71 C
2189 18-05-2019 06:00:00 9.35833 C 96.5000 % 8.83 C
2190 18-05-2019 07:00:00 10.23333 C 97.0000 % 9.78 C
2191 18-05-2019 08:00:00 11.2 C 96.8333 % 10.72 C
2192 18-05-2019 09:00:00 12.275 C 94.6667 % 11.44 C
2193 18-05-2019 10:00:00 14.16667 C 91.3333 % 12.78 C
2194 18-05-2019 11:00:00 16.9 C 77.2500 % 12.89 C
2195 18-05-2019 12:00:00 18.14167 C 71.5000 % 12.91 C
2196 18-05-2019 13:00:00 19.01667 C 69.0833 % 13.22 C
2197 18-05-2019 14:00:00 20.34167 C 62.5000 % 12.95 C
2198 18-05-2019 15:00:00 21.05833 C 58.4167 % 12.59 C
2199 18-05-2019 16:00:00 22.41667 C 60.3333 % 14.36 C
2200 18-05-2019 17:00:00 21.04167 C 70.5833 % 15.49 C
Sensor: Nr:Datum:Temp:Feuchte:Taupunkt:
Aussen-T/F 2201 18-05-2019 18:00:00 18.54167 C 76.5833 % 14.35 C
2202 18-05-2019 19:00:00 15.85 C 86.9167 % 13.68 C
2203 18-05-2019 20:00:00 14.79167 C 90.4167 % 13.24 C
2204 18-05-2019 21:00:00 13.71667 C 92.0000 % 12.44 C
2205 18-05-2019 22:00:00 12.75 C 93.3333 % 11.7 C
2206 18-05-2019 23:00:00 12.53333 C 94.6667 % 11.7 C
2207 19-05-2019 00:00:00 12.79167 C 95.0000 % 12.01 C
2208 19-05-2019 01:00:00 12.73333 C 95.0000 % 11.95 C
2209 19-05-2019 02:00:00 12.26667 C 95.0000 % 11.49 C
2210 19-05-2019 03:00:00 11.71667 C 95.5000 % 11.02 C
2211 19-05-2019 04:00:00 11.625 C 96.0000 % 11.01 C
2212 19-05-2019 05:00:00 11.38333 C 96.0000 % 10.77 C
2213 19-05-2019 06:00:00 11.475 C 96.8333 % 10.99 C
2214 19-05-2019 07:00:00 12.13333 C 97.0000 % 11.67 C
2215 19-05-2019 08:00:00 12.825 C 97.0000 % 12.36 C
2216 19-05-2019 09:00:00 13.73333 C 96.9167 % 13.25 C
2217 19-05-2019 10:00:00 15.11667 C 94.8333 % 14.29 C
2218 19-05-2019 11:00:00 16.26667 C 90.2500 % 14.67 C
2219 19-05-2019 12:00:00 17.99167 C 84.2500 % 15.29 C
2220 19-05-2019 13:00:00 18.78333 C 77.5000 % 14.77 C
2221 19-05-2019 14:00:00 20.225 C 67.2500 % 13.96 C
2222 19-05-2019 15:00:00 22.54167 C 61.3333 % 14.73 C
2223 19-05-2019 16:00:00 23.4 C 58.4167 % 14.78 C
2224 19-05-2019 17:00:00 19.25833 C 63.3333 % 12.13 C
2225 19-05-2019 18:00:00 19.96667 C 65.1667 % 13.23 C
Sensor: Nr:Datum:Temp:Feuchte:Taupunkt:
Aussen-T/F 2226 19-05-2019 19:00:00 20.475 C 63.1667 % 13.24 C
2227 19-05-2019 20:00:00 18.96667 C 68.5833 % 13.06 C
2228 19-05-2019 21:00:00 15.7 C 80.8333 % 12.42 C
2229 19-05-2019 22:00:00 14.53333 C 86.1667 % 12.25 C
2230 19-05-2019 23:00:00 14.65833 C 84.7500 % 12.12 C
2231 20-05-2019 00:00:00 14.48333 C 85.6667 % 12.11 C
2232 20-05-2019 01:00:00 13.40833 C 89.3333 % 11.69 C
2233 20-05-2019 02:00:00 12.46667 C 91.5833 % 11.14 C
2234 20-05-2019 03:00:00 12.23333 C 93.1667 % 11.16 C
2235 20-05-2019 04:00:00 12.7 C 94.0000 % 11.76 C
2236 20-05-2019 05:00:00 13.13333 C 93.0000 % 12.03 C
2237 20-05-2019 06:00:00 13.15 C 92.0000 % 11.88 C
2238 20-05-2019 07:00:00 13.16667 C 92.0000 % 11.9 C
2239 20-05-2019 08:00:00 13.475 C 91.7500 % 12.16 C
2240 20-05-2019 09:00:00 13.95 C 89.9167 % 12.32 C
2241 20-05-2019 10:00:00 14.25833 C 89.0833 % 12.49 C
2242 20-05-2019 11:00:00 14.125 C 91.9167 % 12.83 C
2243 20-05-2019 12:00:00 14.08333 C 92.0833 % 12.82 C
2244 20-05-2019 13:00:00 13.85833 C 92.0000 % 12.58 C
2245 20-05-2019 14:00:00 14.29167 C 91.4167 % 12.91 C
2246 20-05-2019 15:00:00 14.6 C 89.2500 % 12.85 C
2247 20-05-2019 16:00:00 14.84167 C 87.7500 % 12.83 C
2248 20-05-2019 17:00:00 14.93333 C 87.0000 % 12.79 C
2249 20-05-2019 18:00:00 14.86667 C 86.0833 % 12.56 C
2250 20-05-2019 19:00:00 14.65 C 86.6667 % 12.45 C
Sensor: Nr:Datum:Temp:Feuchte:Taupunkt:
Aussen-T/F 2251 20-05-2019 20:00:00 14.5 C 87.2500 % 12.41 C
2252 20-05-2019 21:00:00 14.19167 C 88.0000 % 12.23 C
2253 20-05-2019 22:00:00 14.1 C 88.0000 % 12.14 C
2254 20-05-2019 23:00:00 14.21667 C 86.5833 % 12.01 C
2255 21-05-2019 00:00:00 14.23333 C 86.6667 % 12.04 C
2256 21-05-2019 01:00:00 13.8 C 89.5000 % 12.1 C
2257 21-05-2019 02:00:00 13.56667 C 90.6667 % 12.07 C
2258 21-05-2019 03:00:00 13.275 C 91.5000 % 11.92 C
2259 21-05-2019 04:00:00 13.11667 C 91.0000 % 11.68 C
2260 21-05-2019 05:00:00 12.71667 C 91.5833 % 11.38 C
2261 21-05-2019 06:00:00 12.21667 C 93.7500 % 11.24 C
2262 21-05-2019 07:00:00 12.23333 C 94.0000 % 11.3 C
2263 21-05-2019 08:00:00 12.3 C 93.5833 % 11.3 C
2264 21-05-2019 09:00:00 12.3 C 93.5833 % 11.3 C
2265 21-05-2019 10:00:00 12.23333 C 93.6667 % 11.24 C
2266 21-05-2019 11:00:00 12.15 C 93.0833 % 11.07 C
2267 21-05-2019 12:00:00 12.11667 C 93.8333 % 11.15 C
2268 21-05-2019 13:00:00 12.225 C 94.0000 % 11.29 C
2269 21-05-2019 14:00:00 12.15 C 93.6667 % 11.16 C
2270 21-05-2019 15:00:00 12.15833 C 93.0833 % 11.07 C
2271 21-05-2019 16:00:00 12.09167 C 93.9167 % 11.14 C
2272 21-05-2019 17:00:00 12.18333 C 94.0833 % 11.26 C
2273 21-05-2019 18:00:00 12.275 C 94.0833 % 11.35 C
2274 21-05-2019 19:00:00 12.375 C 93.6667 % 11.38 C
2275 21-05-2019 20:00:00 12.21667 C 94.8333 % 11.41 C
Sensor: Nr:Datum:Temp:Feuchte:Taupunkt:
Aussen-T/F 2276 21-05-2019 21:00:00 12.1 C 95.0000 % 11.32 C
2277 21-05-2019 22:00:00 12.04167 C 95.3333 % 11.32 C
2278 21-05-2019 23:00:00 11.85833 C 96.0000 % 11.24 C
2279 22-05-2019 00:00:00 11.8 C 96.0000 % 11.18 C
2280 22-05-2019 01:00:00 11.75 C 96.0000 % 11.13 C
2281 22-05-2019 02:00:00 11.56667 C 96.0000 % 10.95 C
2282 22-05-2019 03:00:00 11.575 C 96.0000 % 10.96 C
2283 22-05-2019 04:00:00 11.44167 C 95.2500 % 10.71 C
2284 22-05-2019 05:00:00 11.33333 C 95.0000 % 10.56 C
2285 22-05-2019 06:00:00 11.05 C 94.0000 % 10.12 C
2286 22-05-2019 07:00:00 10.66667 C 93.3333 % 9.64 C
2287 22-05-2019 08:00:00 10.33333 C 91.9167 % 9.08 C
2288 22-05-2019 09:00:00 10.475 C 87.2500 % 8.45 C
2289 22-05-2019 10:00:00 10.88333 C 83.4167 % 8.19 C
2290 22-05-2019 11:00:00 11.51667 C 82.3333 % 8.61 C
2291 22-05-2019 12:00:00 12.85 C 76.6667 % 8.86 C
2292 22-05-2019 13:00:00 13.65833 C 73.5833 % 9.03 C
2293 22-05-2019 14:00:00 15.01667 C 69.6667 % 9.52 C
2294 22-05-2019 15:00:00 17.08333 C 63.7500 % 10.17 C
2295 22-05-2019 16:00:00 18.625 C 59.0000 % 10.46 C
2296 22-05-2019 17:00:00 18.24167 C 58.7500 % 10.04 C
2297 22-05-2019 18:00:00 19.46667 C 54.0833 % 9.94 C
2298 22-05-2019 19:00:00 19.025 C 56.0833 % 10.08 C
2299 22-05-2019 20:00:00 17.24167 C 70.9167 % 11.92 C
2300 22-05-2019 21:00:00 13.73333 C 76.5833 % 9.7 C
Sensor: Nr:Datum:Temp:Feuchte:Taupunkt:
Aussen-T/F 2301 22-05-2019 22:00:00 11.64167 C 85.5833 % 9.31 C
2302 22-05-2019 23:00:00 10.33333 C 89.6667 % 8.71 C
2303 23-05-2019 00:00:00 9.5 C 91.6667 % 8.21 C
2304 23-05-2019 01:00:00 8.975 C 92.9167 % 7.89 C
2305 23-05-2019 02:00:00 8.54167 C 93.6667 % 7.58 C
2306 23-05-2019 03:00:00 8.35833 C 94.8333 % 7.58 C
2307 23-05-2019 04:00:00 7.93333 C 95.0000 % 7.18 C
2308 23-05-2019 05:00:00 7.71667 C 95.2500 % 7.01 C
2309 23-05-2019 06:00:00 7.9 C 96.0000 % 7.3 C
2310 23-05-2019 07:00:00 8.675 C 96.0000 % 8.07 C
2311 23-05-2019 08:00:00 9.59167 C 95.8333 % 8.96 C
2312 23-05-2019 09:00:00 11.05833 C 94.0000 % 10.13 C
2313 23-05-2019 10:00:00 13.75 C 87.4167 % 11.7 C
2314 23-05-2019 11:00:00 17.49167 C 65.9167 % 11.06 C
2315 23-05-2019 12:00:00 18.84167 C 57.8333 % 10.36 C
2316 23-05-2019 13:00:00 19.83333 C 56.4167 % 10.92 C
2317 23-05-2019 14:00:00 21.25833 C 48.8333 % 10.07 C
2318 23-05-2019 15:00:00 22.38333 C 46.0833 % 10.23 C
2319 23-05-2019 16:00:00 24.39167 C 39.2500 % 9.64 C
2320 23-05-2019 17:00:00 24.78333 C 37.5833 % 9.35 C
2321 23-05-2019 18:00:00 24.96667 C 37.5000 % 9.48 C
2322 23-05-2019 19:00:00 22.80833 C 52.6667 % 12.64 C
2323 23-05-2019 20:00:00 19.33333 C 64.8333 % 12.55 C
2324 23-05-2019 21:00:00 16.40833 C 74.0833 % 11.78 C
2325 23-05-2019 22:00:00 14.68333 C 82.0000 % 11.65 C
Sensor: Nr:Datum:Temp:Feuchte:Taupunkt:
Aussen-T/F 2326 23-05-2019 23:00:00 13.66667 C 83.7500 % 10.97 C
2327 24-05-2019 00:00:00 12.84167 C 86.3333 % 10.62 C
2328 24-05-2019 01:00:00 12.36667 C 87.5833 % 10.37 C
2329 24-05-2019 02:00:00 11.83333 C 89.2500 % 10.12 C
2330 24-05-2019 03:00:00 11.40833 C 91.0000 % 9.99 C
2331 24-05-2019 04:00:00 11.25 C 92.0000 % 10 C
2332 24-05-2019 05:00:00 11.16667 C 92.0000 % 9.92 C
2333 24-05-2019 06:00:00 11 C 92.9167 % 9.9 C
2334 24-05-2019 07:00:00 11.71667 C 92.7500 % 10.58 C
2335 24-05-2019 08:00:00 13.29167 C 88.2500 % 11.39 C
2336 24-05-2019 09:00:00 15.28333 C 80.2500 % 11.9 C
2337 24-05-2019 10:00:00 16.80833 C 76.3333 % 12.62 C
2338 24-05-2019 11:00:00 18.925 C 68.1667 % 12.93 C
2339 24-05-2019 12:00:00 20.75833 C 57.3333 % 12.02 C
2340 24-05-2019 13:00:00 22.09167 C 46.8333 % 10.21 C
2341 24-05-2019 14:00:00 22.98333 C 43.2500 % 9.83 C
2342 24-05-2019 15:00:00 23.45 C 40.5000 % 9.27 C
2343 24-05-2019 16:00:00 23.88333 C 40.6667 % 9.72 C
2344 24-05-2019 17:00:00 24.26667 C 42.4167 % 10.69 C
2345 24-05-2019 18:00:00 24.40833 C 41.0833 % 10.34 C
2346 24-05-2019 19:00:00 21.04167 C 56.5000 % 12.07 C
2347 24-05-2019 20:00:00 19.475 C 61.7500 % 11.95 C
2348 24-05-2019 21:00:00 16.96667 C 71.5000 % 11.78 C
2349 24-05-2019 22:00:00 15.14167 C 79.5833 % 11.64 C
2350 24-05-2019 23:00:00 14.06667 C 84.0000 % 11.41 C
Sensor: Nr:Datum:Temp:Feuchte:Taupunkt:
Aussen-T/F 2351 25-05-2019 00:00:00 14.75833 C 78.6667 % 11.09 C
2352 25-05-2019 01:00:00 13.875 C 77.7500 % 10.06 C
2353 25-05-2019 02:00:00 13.125 C 76.0000 % 8.99 C
2354 25-05-2019 03:00:00 12.16667 C 76.0833 % 8.08 C
2355 25-05-2019 04:00:00 10.84167 C 75.5000 % 6.69 C
2356 25-05-2019 05:00:00 10.2 C 77.2500 % 6.4 C
2357 25-05-2019 06:00:00 9.525 C 83.5833 % 6.89 C
2358 25-05-2019 07:00:00 10.675 C 80.3333 % 7.43 C
2359 25-05-2019 08:00:00 13.04167 C 72.1667 % 8.15 C
2360 25-05-2019 09:00:00 14.025 C 71.6667 % 8.99 C
2361 25-05-2019 10:00:00 15.3 C 68.2500 % 9.49 C
2362 25-05-2019 11:00:00 16.25 C 63.5000 % 9.32 C
2363 25-05-2019 12:00:00 16.95833 C 64.4167 % 10.2 C
2364 25-05-2019 13:00:00 18.45 C 60.1667 % 10.59 C
2365 25-05-2019 14:00:00 19.35833 C 55.0833 % 10.12 C
2366 25-05-2019 15:00:00 21.01667 C 50.7500 % 10.43 C
2367 25-05-2019 16:00:00 22.06667 C 46.6667 % 10.13 C
2368 25-05-2019 17:00:00 21.73333 C 46.0000 % 9.61 C
2369 25-05-2019 18:00:00 19.95 C 49.0000 % 8.92 C
2370 25-05-2019 19:00:00 18.875 C 54.5833 % 9.53 C
2371 25-05-2019 20:00:00 17.98333 C 64.1667 % 11.12 C
2372 25-05-2019 21:00:00 16.03333 C 71.4167 % 10.87 C
2373 25-05-2019 22:00:00 14.81667 C 75.2500 % 10.48 C
2374 25-05-2019 23:00:00 13.38333 C 79.7500 % 9.96 C
2375 26-05-2019 00:00:00 11.85 C 85.0000 % 9.41 C
Sensor: Nr:Datum:Temp:Feuchte:Taupunkt:
Aussen-T/F 2376 26-05-2019 01:00:00 10.775 C 88.8333 % 9.01 C
2377 26-05-2019 02:00:00 10.13333 C 90.9167 % 8.72 C
2378 26-05-2019 03:00:00 9.44167 C 92.3333 % 8.26 C
2379 26-05-2019 04:00:00 8.95 C 93.1667 % 7.91 C
2380 26-05-2019 05:00:00 8.825 C 94.4167 % 7.98 C
2381 26-05-2019 06:00:00 9.36667 C 94.5000 % 8.53 C
2382 26-05-2019 07:00:00 9.9 C 93.6667 % 8.93 C
2383 26-05-2019 08:00:00 11.21667 C 93.1667 % 10.15 C
2384 26-05-2019 09:00:00 14.3 C 84.5000 % 11.73 C
2385 26-05-2019 10:00:00 16.83333 C 72.8333 % 11.93 C
2386 26-05-2019 11:00:00 18.16667 C 63.5833 % 11.15 C
2387 26-05-2019 12:00:00 18.99167 C 60.8333 % 11.27 C
2388 26-05-2019 13:00:00 20.275 C 58.8333 % 11.96 C
2389 26-05-2019 14:00:00 21.68333 C 52.8333 % 11.65 C
2390 26-05-2019 15:00:00 23.43333 C 49.0833 % 12.14 C
2391 26-05-2019 16:00:00 23.725 C 48.5000 % 12.22 C
2392 26-05-2019 17:00:00 21.91667 C 55.7500 % 12.68 C
2393 26-05-2019 18:00:00 21.45833 C 58.3333 % 12.94 C
2394 26-05-2019 19:00:00 19.93333 C 65.5000 % 13.28 C
2395 26-05-2019 20:00:00 18.36667 C 72.2500 % 13.29 C
2396 26-05-2019 21:00:00 17.93333 C 70.7500 % 12.55 C
2397 26-05-2019 22:00:00 17.68333 C 72.0833 % 12.59 C
2398 26-05-2019 23:00:00 16.925 C 75.2500 % 12.52 C
2399 27-05-2019 00:00:00 16.29167 C 78.4167 % 12.53 C
2400 27-05-2019 01:00:00 15.75 C 80.8333 % 12.47 C
Sensor: Nr:Datum:Temp:Feuchte:Taupunkt:
Aussen-T/F 2401 27-05-2019 02:00:00 14.7 C 83.2500 % 11.89 C
2402 27-05-2019 03:00:00 14.1 C 84.4167 % 11.51 C
2403 27-05-2019 04:00:00 13.85 C 87.3333 % 11.78 C
2404 27-05-2019 05:00:00 14.19167 C 90.0000 % 12.58 C
2405 27-05-2019 06:00:00 13.94167 C 92.8333 % 12.8 C
2406 27-05-2019 07:00:00 14.20833 C 94.0000 % 13.26 C
2407 27-05-2019 08:00:00 14.94167 C 93.2500 % 13.86 C
2408 27-05-2019 09:00:00 15.61667 C 92.6667 % 14.43 C
2409 27-05-2019 10:00:00 15.925 C 91.4167 % 14.53 C
2410 27-05-2019 11:00:00 15.25 C 91.5833 % 13.89 C
2411 27-05-2019 12:00:00 15.00833 C 93.1667 % 13.91 C
2412 27-05-2019 13:00:00 14.39167 C 93.5000 % 13.36 C
2413 27-05-2019 14:00:00 14.53333 C 94.3333 % 13.63 C
2414 27-05-2019 15:00:00 14.825 C 93.9167 % 13.86 C
2415 27-05-2019 16:00:00 15.475 C 93.9167 % 14.5 C
2416 27-05-2019 17:00:00 16.075 C 92.5833 % 14.87 C
2417 27-05-2019 18:00:00 16.275 C 93.0833 % 15.16 C
2418 27-05-2019 19:00:00 16.73333 C 92.9167 % 15.58 C
2419 27-05-2019 20:00:00 15.78333 C 91.5833 % 14.42 C
2420 27-05-2019 21:00:00 14.68333 C 93.0833 % 13.58 C
2421 27-05-2019 22:00:00 13.79167 C 94.2500 % 12.88 C
2422 27-05-2019 23:00:00 13.4 C 95.0000 % 12.62 C
2423 28-05-2019 00:00:00 12.96667 C 95.6667 % 12.29 C
2424 28-05-2019 01:00:00 12.45 C 96.0000 % 11.83 C
2425 28-05-2019 02:00:00 12.55 C 96.6667 % 12.03 C
Sensor: Nr:Datum:Temp:Feuchte:Taupunkt:
Aussen-T/F 2426 28-05-2019 03:00:00 12.41667 C 96.5833 % 11.89 C
2427 28-05-2019 04:00:00 11.55 C 96.4167 % 11 C
2428 28-05-2019 05:00:00 11.80833 C 97.0000 % 11.35 C
2429 28-05-2019 06:00:00 12.18333 C 97.0000 % 11.72 C
2430 28-05-2019 07:00:00 12.51667 C 97.0000 % 12.05 C
2431 28-05-2019 08:00:00 12.84167 C 97.0000 % 12.38 C
2432 28-05-2019 09:00:00 13.425 C 95.5833 % 12.73 C
2433 28-05-2019 10:00:00 14.74167 C 87.5000 % 12.69 C
2434 28-05-2019 11:00:00 15.65 C 80.8333 % 12.37 C
2435 28-05-2019 12:00:00 16.05 C 74.7500 % 11.57 C
2436 28-05-2019 13:00:00 17.49167 C 66.4167 % 11.17 C
2437 28-05-2019 14:00:00 16.04167 C 70.3333 % 10.65 C
2438 28-05-2019 15:00:00 13.65833 C 84.3333 % 11.07 C
2439 28-05-2019 16:00:00 15.80833 C 76.7500 % 11.74 C
2440 28-05-2019 17:00:00 16.80833 C 69.8333 % 11.27 C
2441 28-05-2019 18:00:00 16.78333 C 65.4167 % 10.27 C
2442 28-05-2019 19:00:00 16.08333 C 68.0000 % 10.18 C
2443 28-05-2019 20:00:00 14.10833 C 75.7500 % 9.9 C
2444 28-05-2019 21:00:00 13.10833 C 81.6667 % 10.05 C
2445 28-05-2019 22:00:00 12.15 C 87.5000 % 10.14 C
2446 28-05-2019 23:00:00 11.78333 C 88.7500 % 9.99 C
2447 29-05-2019 00:00:00 11.70833 C 85.8333 % 9.42 C
2448 29-05-2019 01:00:00 11.73333 C 86.5833 % 9.57 C
2449 29-05-2019 02:00:00 11.875 C 85.7500 % 9.57 C
2450 29-05-2019 03:00:00 11.675 C 87.0000 % 9.59 C
Sensor: Nr:Datum:Temp:Feuchte:Taupunkt:
Aussen-T/F 2451 29-05-2019 04:00:00 11.44167 C 86.4167 % 9.26 C
2452 29-05-2019 05:00:00 11.08333 C 86.5833 % 8.93 C
2453 29-05-2019 06:00:00 10.875 C 86.5833 % 8.73 C
2454 29-05-2019 07:00:00 10.81667 C 86.0833 % 8.59 C
2455 29-05-2019 08:00:00 11.225 C 84.0000 % 8.62 C
2456 29-05-2019 09:00:00 12.225 C 80.3333 % 8.94 C
2457 29-05-2019 10:00:00 13.83333 C 71.0833 % 8.69 C
2458 29-05-2019 11:00:00 15.09167 C 63.7500 % 8.28 C
2459 29-05-2019 12:00:00 15.725 C 60.0833 % 8.01 C
2460 29-05-2019 13:00:00 16.48333 C 54.0833 % 7.18 C
2461 29-05-2019 14:00:00 17.40833 C 48.4167 % 6.42 C
2462 29-05-2019 15:00:00 18.99167 C 44.0000 % 6.48 C
2463 29-05-2019 16:00:00 20.91667 C 37.9167 % 6.05 C
2464 29-05-2019 17:00:00 22.38333 C 35.0000 % 6.19 C
2465 29-05-2019 18:00:00 22.1 C 37.9167 % 7.1 C
2466 29-05-2019 19:00:00 21.55 C 44.9167 % 9.09 C
2467 29-05-2019 20:00:00 18.66667 C 61.5833 % 11.14 C
2468 29-05-2019 21:00:00 15.49167 C 67.4167 % 9.49 C
2469 29-05-2019 22:00:00 13.29167 C 77.5000 % 9.45 C
2470 29-05-2019 23:00:00 12.91667 C 79.2500 % 9.41 C
2471 30-05-2019 00:00:00 12.05833 C 81.2500 % 8.95 C
2472 30-05-2019 01:00:00 11.44167 C 84.4167 % 8.91 C
2473 30-05-2019 02:00:00 10.88333 C 86.1667 % 8.67 C
2474 30-05-2019 03:00:00 9.95 C 88.5833 % 8.15 C
2475 30-05-2019 04:00:00 9.56667 C 90.5833 % 8.1 C
Sensor: Nr:Datum:Temp:Feuchte:Taupunkt:
Aussen-T/F 2476 30-05-2019 05:00:00 9.1 C 92.0000 % 7.87 C
2477 30-05-2019 06:00:00 9.71667 C 93.5000 % 8.72 C
2478 30-05-2019 07:00:00 10.925 C 91.4167 % 9.58 C
2479 30-05-2019 08:00:00 12.375 C 85.9167 % 10.09 C
2480 30-05-2019 09:00:00 14.10833 C 81.4167 % 10.98 C
2481 30-05-2019 10:00:00 16.09167 C 76.2500 % 11.91 C
2482 30-05-2019 11:00:00 18.18333 C 65.4167 % 11.6 C
2483 30-05-2019 12:00:00 18.2 C 65.5000 % 11.63 C
2484 30-05-2019 13:00:00 18.23333 C 70.0833 % 12.69 C
2485 30-05-2019 14:00:00 19.425 C 67.1667 % 13.18 C
2486 30-05-2019 15:00:00 21.175 C 64.3333 % 14.18 C
2487 30-05-2019 16:00:00 21.95833 C 62.9167 % 14.57 C
2488 30-05-2019 17:00:00 21.625 C 64.7500 % 14.7 C
2489 30-05-2019 18:00:00 20.95833 C 67.8333 % 14.79 C
2490 30-05-2019 19:00:00 19.95 C 72.0000 % 14.75 C
2491 30-05-2019 20:00:00 18.94167 C 77.1667 % 14.85 C
2492 30-05-2019 21:00:00 17.675 C 81.8333 % 14.53 C
2493 30-05-2019 22:00:00 16.54167 C 85.6667 % 14.13 C
2494 30-05-2019 23:00:00 15.89167 C 88.0000 % 13.91 C
2495 31-05-2019 00:00:00 15.65 C 89.9167 % 14 C
2496 31-05-2019 01:00:00 15.61667 C 90.8333 % 14.12 C
2497 31-05-2019 02:00:00 15.46667 C 90.8333 % 13.98 C
2498 31-05-2019 03:00:00 14.41667 C 92.0833 % 13.15 C
2499 31-05-2019 04:00:00 13.56667 C 93.2500 % 12.5 C
2500 31-05-2019 05:00:00 12.83333 C 94.5000 % 11.97 C
Sensor: Nr:Datum:Temp:Feuchte:Taupunkt:
Aussen-T/F 2501 31-05-2019 06:00:00 12.75 C 95.0000 % 11.97 C
2502 31-05-2019 07:00:00 13.1 C 95.9167 % 12.46 C
2503 31-05-2019 08:00:00 14.175 C 95.7500 % 13.51 C
2504 31-05-2019 09:00:00 16.24167 C 87.9167 % 14.24 C
2505 31-05-2019 10:00:00 18.69167 C 74.5833 % 14.09 C
2506 31-05-2019 11:00:00 20.225 C 68.2500 % 14.19 C
2507 31-05-2019 12:00:00 21.375 C 65.3333 % 14.61 C
2508 31-05-2019 13:00:00 22.725 C 60.4167 % 14.67 C
2509 31-05-2019 14:00:00 23.925 C 55.5000 % 14.48 C
2510 31-05-2019 15:00:00 25.28333 C 51.5833 % 14.6 C
2511 31-05-2019 16:00:00 27.3 C 45.1667 % 14.38 C
2512 31-05-2019 17:00:00 27.50833 C 44.6667 % 14.4 C
2513 31-05-2019 18:00:00 27.58333 C 43.0833 % 13.91 C
2514 31-05-2019 19:00:00 25.63333 C 51.5833 % 14.92 C
2515 31-05-2019 20:00:00 23.64167 C 58.6667 % 15.07 C
2516 31-05-2019 21:00:00 20.09167 C 71.7500 % 14.83 C
2517 31-05-2019 22:00:00 17.725 C 78.6667 % 13.97 C
2518 31-05-2019 23:00:00 15.91667 C 85.0833 % 13.41 C
2519 01-06-2019 00:00:00 14.65 C 88.8333 % 12.83 C
2520 01-06-2019 01:00:00 13.91667 C 91.5833 % 12.57 C
2521 01-06-2019 02:00:00 13.325 C 92.6667 % 12.16 C
2522 01-06-2019 03:00:00 12.83333 C 93.7500 % 11.85 C
2523 01-06-2019 04:00:00 12.2 C 94.0000 % 11.26 C
2524 01-06-2019 05:00:00 11.75833 C 94.9167 % 10.97 C
2525 01-06-2019 06:00:00 11.825 C 95.3333 % 11.1 C
Sensor: Nr:Datum:Temp:Feuchte:Taupunkt:
Aussen-T/F 2526 01-06-2019 07:00:00 12.61667 C 96.0000 % 12 C
2527 01-06-2019 08:00:00 13.875 C 94.7500 % 13.05 C
2528 01-06-2019 09:00:00 15.45 C 91.6667 % 14.1 C
2529 01-06-2019 10:00:00 18.14167 C 84.5000 % 15.49 C
2530 01-06-2019 11:00:00 20.91667 C 72.0000 % 15.68 C
2531 01-06-2019 12:00:00 23.01667 C 63.7500 % 15.78 C
2532 01-06-2019 13:00:00 24.31667 C 59.3333 % 15.88 C
2533 01-06-2019 14:00:00 25.51667 C 55.6667 % 16 C
2534 01-06-2019 15:00:00 27.83333 C 49.5000 % 16.3 C
2535 01-06-2019 16:00:00 29.975 C 43.6667 % 16.27 C
2536 01-06-2019 17:00:00 30.09167 C 42.1667 % 15.83 C
2537 01-06-2019 18:00:00 30.23333 C 43.3333 % 16.38 C
2538 01-06-2019 19:00:00 29.675 C 50.7500 % 18.38 C
2539 01-06-2019 20:00:00 26.65833 C 58.9167 % 17.96 C
2540 01-06-2019 21:00:00 22.7 C 68.0000 % 16.49 C
2541 01-06-2019 22:00:00 20.00833 C 76.0833 % 15.67 C
2542 01-06-2019 23:00:00 18.20833 C 82.2500 % 15.13 C
2543 02-06-2019 00:00:00 16.75833 C 86.5000 % 14.49 C
2544 02-06-2019 01:00:00 15.66667 C 89.3333 % 13.92 C
2545 02-06-2019 02:00:00 14.925 C 91.7500 % 13.6 C
2546 02-06-2019 03:00:00 14.325 C 93.0000 % 13.21 C
2547 02-06-2019 04:00:00 13.81667 C 93.9167 % 12.85 C
2548 02-06-2019 05:00:00 13.29167 C 94.5833 % 12.44 C
2549 02-06-2019 06:00:00 13.40833 C 95.3333 % 12.68 C
2550 02-06-2019 07:00:00 13.95833 C 95.9167 % 13.32 C
Sensor: Nr:Datum:Temp:Feuchte:Taupunkt:
Aussen-T/F 2551 02-06-2019 08:00:00 15.03333 C 96.0000 % 14.4 C
2552 02-06-2019 09:00:00 16.60833 C 95.9167 % 15.95 C
2553 02-06-2019 10:00:00 19.64167 C 88.6667 % 17.72 C
2554 02-06-2019 11:00:00 23.11667 C 77.1667 % 18.9 C
2555 02-06-2019 12:00:00 26.66667 C 57.8333 % 17.67 C
2556 02-06-2019 13:00:00 27.96667 C 46.3333 % 15.38 C
2557 02-06-2019 14:00:00 29.1 C 45.5833 % 16.16 C
2558 02-06-2019 15:00:00 31.04167 C 42.4167 % 16.77 C
2559 02-06-2019 16:00:00 32.76667 C 37.2500 % 16.26 C
2560 02-06-2019 17:00:00 33.1 C 37.2500 % 16.56 C
2561 02-06-2019 18:00:00 33 C 37.9167 % 16.75 C
2562 02-06-2019 19:00:00 32.23333 C 40.0000 % 16.91 C
2563 02-06-2019 20:00:00 28.7 C 49.5000 % 17.09 C
2564 02-06-2019 21:00:00 24.375 C 58.3333 % 15.67 C
2565 02-06-2019 22:00:00 21.35833 C 67.9167 % 15.19 C
2566 02-06-2019 23:00:00 19.30833 C 74.8333 % 14.73 C
2567 03-06-2019 00:00:00 17.75833 C 79.8333 % 14.23 C
2568 03-06-2019 01:00:00 16.825 C 82.3333 % 13.8 C
2569 03-06-2019 02:00:00 16.15 C 84.9167 % 13.61 C
2570 03-06-2019 03:00:00 15.51667 C 87.5833 % 13.47 C
2571 03-06-2019 04:00:00 14.84167 C 89.9167 % 13.2 C
2572 03-06-2019 05:00:00 14.775 C 91.8333 % 13.46 C
2573 03-06-2019 06:00:00 15.23333 C 92.0000 % 13.94 C
2574 03-06-2019 07:00:00 16.11667 C 91.5833 % 14.75 C
2575 03-06-2019 08:00:00 17.63333 C 88.6667 % 15.74 C
Sensor: Nr:Datum:Temp:Feuchte:Taupunkt:
Aussen-T/F 2576 03-06-2019 09:00:00 20.30833 C 85.2500 % 17.75 C
2577 03-06-2019 10:00:00 21.325 C 86.5833 % 18.99 C
2578 03-06-2019 11:00:00 23.475 C 74.5833 % 18.7 C
2579 03-06-2019 12:00:00 26.39167 C 59.7500 % 17.93 C
2580 03-06-2019 13:00:00 27.69167 C 52.7500 % 17.17 C
2581 03-06-2019 14:00:00 28.44167 C 40.5000 % 13.73 C
2582 03-06-2019 15:00:00 29.40833 C 35.0000 % 12.35 C
2583 03-06-2019 16:00:00 26.71667 C 46.0833 % 14.17 C
2584 03-06-2019 17:00:00 25.15833 C 57.9167 % 16.29 C
2585 03-06-2019 18:00:00 23.71667 C 63.9167 % 16.48 C
2586 03-06-2019 19:00:00 22.66667 C 68.0833 % 16.48 C
2587 03-06-2019 20:00:00 22.29167 C 70.0000 % 16.56 C
2588 03-06-2019 21:00:00 20.63333 C 74.5833 % 15.96 C
2589 03-06-2019 22:00:00 19.40833 C 77.7500 % 15.42 C
2590 03-06-2019 23:00:00 18.06667 C 81.5833 % 14.87 C
2591 04-06-2019 00:00:00 16.71667 C 86.5000 % 14.45 C
2592 04-06-2019 01:00:00 15.84167 C 89.7500 % 14.16 C
2593 04-06-2019 02:00:00 15.15 C 91.8333 % 13.83 C
2594 04-06-2019 03:00:00 14.41667 C 92.9167 % 13.29 C
2595 04-06-2019 04:00:00 13.65833 C 93.5000 % 12.63 C
2596 04-06-2019 05:00:00 13.2 C 94.2500 % 12.3 C
2597 04-06-2019 06:00:00 13.275 C 95.1667 % 12.52 C
2598 04-06-2019 07:00:00 14.525 C 95.0000 % 13.73 C
2599 04-06-2019 08:00:00 16.05 C 91.9167 % 14.74 C
2600 04-06-2019 09:00:00 17.45 C 88.6667 % 15.56 C
Sensor: Nr:Datum:Temp:Feuchte:Taupunkt:
Aussen-T/F 2601 04-06-2019 10:00:00 20.16667 C 78.6667 % 16.34 C
2602 04-06-2019 11:00:00 22.35833 C 71.0833 % 16.86 C
2603 04-06-2019 12:00:00 23.89167 C 68.1667 % 17.66 C
2604 04-06-2019 13:00:00 25.74167 C 60.4167 % 17.5 C
2605 04-06-2019 14:00:00 27.4 C 54.5833 % 17.44 C
2606 04-06-2019 15:00:00 28.7 C 52.2500 % 17.95 C
2607 04-06-2019 16:00:00 30.56667 C 49.5833 % 18.82 C
2608 04-06-2019 17:00:00 31.925 C 44.4167 % 18.3 C
2609 04-06-2019 18:00:00 31.24167 C 47.4167 % 18.72 C
2610 04-06-2019 19:00:00 29.25 C 54.9167 % 19.25 C
2611 04-06-2019 20:00:00 26.51667 C 62.5833 % 18.79 C
2612 04-06-2019 21:00:00 23.36667 C 67.6667 % 17.05 C
2613 04-06-2019 22:00:00 22.025 C 70.6667 % 16.45 C
2614 04-06-2019 23:00:00 22.70833 C 64.8333 % 15.75 C
2615 05-06-2019 00:00:00 23.28333 C 63.0000 % 15.85 C
2616 05-06-2019 01:00:00 21.33333 C 69.9167 % 15.62 C
2617 05-06-2019 02:00:00 20.575 C 74.1667 % 15.81 C
2618 05-06-2019 03:00:00 19.35 C 77.8333 % 15.38 C
2619 05-06-2019 04:00:00 18.80833 C 80.2500 % 15.33 C
2620 05-06-2019 05:00:00 17.44167 C 83.8333 % 14.68 C
2621 05-06-2019 06:00:00 17.69167 C 85.2500 % 15.18 C
2622 05-06-2019 07:00:00 17.98333 C 86.5833 % 15.71 C
2623 05-06-2019 08:00:00 18.38333 C 88.0000 % 16.36 C
2624 05-06-2019 09:00:00 21.025 C 76.4167 % 16.72 C
2625 05-06-2019 10:00:00 22.73333 C 70.5833 % 17.11 C
Sensor: Nr:Datum:Temp:Feuchte:Taupunkt:
Aussen-T/F 2626 05-06-2019 11:00:00 23.64167 C 66.3333 % 17 C
2627 05-06-2019 12:00:00 24.34167 C 63.2500 % 16.91 C
2628 05-06-2019 13:00:00 25.925 C 60.1667 % 17.61 C
2629 05-06-2019 14:00:00 27.25833 C 56.0833 % 17.74 C
2630 05-06-2019 15:00:00 29.5 C 49.5833 % 17.85 C
2631 05-06-2019 16:00:00 31.35 C 41.7500 % 16.8 C
2632 05-06-2019 17:00:00 30.43333 C 46.7500 % 17.76 C
2633 05-06-2019 18:00:00 28.60833 C 56.1667 % 19.01 C
2634 05-06-2019 19:00:00 29.73333 C 54.6667 % 19.62 C
2635 05-06-2019 20:00:00 27.55833 C 56.5833 % 18.16 C
2636 05-06-2019 21:00:00 23.44167 C 68.3333 % 17.27 C
2637 05-06-2019 22:00:00 21.625 C 75.6667 % 17.14 C
2638 05-06-2019 23:00:00 20.83333 C 77.2500 % 16.7 C
2639 06-06-2019 00:00:00 21.575 C 69.2500 % 15.7 C
2640 06-06-2019 01:00:00 18.925 C 81.5833 % 15.71 C
2641 06-06-2019 02:00:00 17.10833 C 91.9167 % 15.78 C
2642 06-06-2019 03:00:00 16.70833 C 93.6667 % 15.68 C
2643 06-06-2019 04:00:00 16.48333 C 94.5833 % 15.61 C
2644 06-06-2019 05:00:00 15.51667 C 93.6667 % 14.5 C
2645 06-06-2019 06:00:00 13.94167 C 92.3333 % 12.72 C
2646 06-06-2019 07:00:00 13.19167 C 89.6667 % 11.53 C
2647 06-06-2019 08:00:00 13.325 C 84.5833 % 10.78 C
2648 06-06-2019 09:00:00 13.10833 C 81.1667 % 9.96 C
2649 06-06-2019 10:00:00 13.80833 C 80.0000 % 10.42 C
2650 06-06-2019 11:00:00 14.93333 C 75.5000 % 10.64 C
Sensor: Nr:Datum:Temp:Feuchte:Taupunkt:
Aussen-T/F 2651 06-06-2019 12:00:00 15.40833 C 73.2500 % 10.65 C
2652 06-06-2019 13:00:00 16.49167 C 69.3333 % 10.86 C
2653 06-06-2019 14:00:00 17.025 C 68.1667 % 11.12 C
2654 06-06-2019 15:00:00 17.75833 C 66.4167 % 11.42 C
2655 06-06-2019 16:00:00 18 C 65.5000 % 11.44 C
2656 06-06-2019 17:00:00 16.73333 C 69.1667 % 11.06 C
2657 06-06-2019 18:00:00 16.975 C 69.9167 % 11.45 C
2658 06-06-2019 19:00:00 18.26667 C 63.5833 % 11.25 C
2659 06-06-2019 20:00:00 17.725 C 65.3333 % 11.14 C
2660 06-06-2019 21:00:00 15.43333 C 75.4167 % 11.11 C
2661 06-06-2019 22:00:00 12.75 C 83.8333 % 10.09 C
2662 06-06-2019 23:00:00 11.43333 C 87.5000 % 9.43 C
2663 07-06-2019 00:00:00 10.475 C 90.4167 % 8.97 C
2664 07-06-2019 01:00:00 9.875 C 92.1667 % 8.66 C
2665 07-06-2019 02:00:00 9.425 C 93.0833 % 8.36 C
2666 07-06-2019 03:00:00 9.56667 C 94.5000 % 8.73 C
2667 07-06-2019 04:00:00 10.13333 C 94.6667 % 9.32 C
2668 07-06-2019 05:00:00 9.23333 C 94.3333 % 8.37 C
2669 07-06-2019 06:00:00 9.60833 C 95.7500 % 8.96 C
2670 07-06-2019 07:00:00 10.38333 C 96.0000 % 9.77 C
2671 07-06-2019 08:00:00 11.86667 C 92.5833 % 10.7 C
2672 07-06-2019 09:00:00 13.75833 C 84.1667 % 11.13 C
2673 07-06-2019 10:00:00 16.65 C 75.8333 % 12.37 C
2674 07-06-2019 11:00:00 18.75833 C 65.5000 % 12.16 C
2675 07-06-2019 12:00:00 19.9 C 63.4167 % 12.75 C
Sensor: Nr:Datum:Temp:Feuchte:Taupunkt:
Aussen-T/F 2676 07-06-2019 13:00:00 20.89167 C 64.3333 % 13.91 C
2677 07-06-2019 14:00:00 21.09167 C 68.1667 % 15 C
2678 07-06-2019 15:00:00 24.175 C 57.1667 % 15.17 C
2679 07-06-2019 16:00:00 25.96667 C 50.5833 % 14.92 C
2680 07-06-2019 17:00:00 25.36667 C 57.9167 % 16.48 C
2681 07-06-2019 18:00:00 21.74167 C 58.5833 % 13.27 C
2682 07-06-2019 19:00:00 17.18333 C 62.6667 % 10.01 C
2683 07-06-2019 20:00:00 15.41667 C 71.6667 % 10.33 C
2684 07-06-2019 21:00:00 14.95 C 72.9167 % 10.14 C
2685 07-06-2019 22:00:00 14.8 C 69.8333 % 9.35 C
2686 07-06-2019 23:00:00 15.125 C 66.5000 % 8.94 C
2687 08-06-2019 00:00:00 15.46667 C 66.4167 % 9.24 C
2688 08-06-2019 01:00:00 15.61667 C 65.2500 % 9.12 C
2689 08-06-2019 02:00:00 15.34167 C 67.0833 % 9.27 C
2690 08-06-2019 03:00:00 15.06667 C 67.0000 % 8.99 C
2691 08-06-2019 04:00:00 14.86667 C 64.0000 % 8.13 C
2692 08-06-2019 05:00:00 14.10833 C 63.3333 % 7.26 C
2693 08-06-2019 06:00:00 13.325 C 66.7500 % 7.28 C
2694 08-06-2019 07:00:00 13.69167 C 65.5000 % 7.35 C
2695 08-06-2019 08:00:00 14.29167 C 65.3333 % 7.88 C
2696 08-06-2019 09:00:00 14.575 C 66.0833 % 8.32 C
2697 08-06-2019 10:00:00 14.90833 C 66.5833 % 8.75 C
2698 08-06-2019 11:00:00 15.70833 C 64.1667 % 8.96 C
2699 08-06-2019 12:00:00 16.525 C 61.5000 % 9.11 C
2700 08-06-2019 13:00:00 17.38333 C 57.6667 % 8.96 C
Sensor: Nr:Datum:Temp:Feuchte:Taupunkt:
Aussen-T/F 2701 08-06-2019 14:00:00 18.325 C 55.7500 % 9.34 C
2702 08-06-2019 15:00:00 19.15 C 52.5000 % 9.21 C
2703 08-06-2019 16:00:00 19.65833 C 50.8333 % 9.2 C
2704 08-06-2019 17:00:00 19.925 C 49.5000 % 9.05 C
2705 08-06-2019 18:00:00 19.95833 C 49.4167 % 9.06 C
2706 08-06-2019 19:00:00 18.98333 C 54.5000 % 9.61 C
2707 08-06-2019 20:00:00 17.61667 C 62.2500 % 10.32 C
2708 08-06-2019 21:00:00 16.11667 C 70.0000 % 10.65 C
2709 08-06-2019 22:00:00 14.39167 C 74.5833 % 9.94 C
2710 08-06-2019 23:00:00 12.65833 C 80.5833 % 9.41 C
2711 09-06-2019 00:00:00 11.66667 C 84.6667 % 9.17 C
2712 09-06-2019 01:00:00 11.08333 C 86.9167 % 8.99 C
2713 09-06-2019 02:00:00 10.925 C 87.3333 % 8.91 C
2714 09-06-2019 03:00:00 10.28333 C 89.0833 % 8.57 C
2715 09-06-2019 04:00:00 9.4 C 90.3333 % 7.9 C
2716 09-06-2019 05:00:00 8.675 C 92.3333 % 7.5 C
2717 09-06-2019 06:00:00 8.63333 C 93.4167 % 7.63 C
2718 09-06-2019 07:00:00 9.68333 C 94.4167 % 8.83 C
2719 09-06-2019 08:00:00 11.03333 C 94.2500 % 10.15 C
2720 09-06-2019 09:00:00 12.80833 C 90.8333 % 11.35 C
2721 09-06-2019 10:00:00 16.55 C 73.0000 % 11.7 C
2722 09-06-2019 11:00:00 18.86667 C 57.5833 % 10.32 C
2723 09-06-2019 12:00:00 19.76667 C 53.6667 % 10.11 C
2724 09-06-2019 13:00:00 20.71667 C 51.6667 % 10.42 C
2725 09-06-2019 14:00:00 21.925 C 50.5000 % 11.19 C
Sensor: Nr:Datum:Temp:Feuchte:Taupunkt:
Aussen-T/F 2726 09-06-2019 15:00:00 22.45833 C 50.3333 % 11.63 C
2727 09-06-2019 16:00:00 22.79167 C 50.6667 % 12.03 C
2728 09-06-2019 17:00:00 22.7 C 51.5833 % 12.22 C
2729 09-06-2019 18:00:00 23.09167 C 50.4167 % 12.23 C
2730 09-06-2019 19:00:00 21.64167 C 63.5000 % 14.42 C
2731 09-06-2019 20:00:00 19.74167 C 69.0833 % 13.91 C
2732 09-06-2019 21:00:00 18.86667 C 72.1667 % 13.75 C
2733 09-06-2019 22:00:00 18.36667 C 74.5833 % 13.77 C
2734 09-06-2019 23:00:00 17.95 C 76.1667 % 13.69 C
2735 10-06-2019 00:00:00 17.525 C 77.8333 % 13.62 C
2736 10-06-2019 01:00:00 16.95833 C 77.6667 % 13.03 C
2737 10-06-2019 02:00:00 16.08333 C 79.7500 % 12.59 C
2738 10-06-2019 03:00:00 14.94167 C 84.7500 % 12.4 C
2739 10-06-2019 04:00:00 14.625 C 86.5000 % 12.4 C
2740 10-06-2019 05:00:00 14.775 C 87.5000 % 12.72 C
2741 10-06-2019 06:00:00 14.825 C 88.5000 % 12.94 C
2742 10-06-2019 07:00:00 15.5 C 87.4167 % 13.42 C
2743 10-06-2019 08:00:00 17.725 C 80.2500 % 14.28 C
2744 10-06-2019 09:00:00 18.94167 C 75.8333 % 14.58 C
2745 10-06-2019 10:00:00 19.85 C 73.1667 % 14.91 C
2746 10-06-2019 11:00:00 21.15833 C 68.5000 % 15.13 C
2747 10-06-2019 12:00:00 22.34167 C 63.6667 % 15.12 C
2748 10-06-2019 13:00:00 23.06667 C 61.5833 % 15.29 C
2749 10-06-2019 14:00:00 23.225 C 62.5833 % 15.69 C
2750 10-06-2019 15:00:00 23.225 C 62.9167 % 15.77 C
Sensor: Nr:Datum:Temp:Feuchte:Taupunkt:
Aussen-T/F 2751 10-06-2019 16:00:00 24.06667 C 59.8333 % 15.78 C
2752 10-06-2019 17:00:00 23.65 C 60.7500 % 15.62 C
2753 10-06-2019 18:00:00 23.19167 C 61.9167 % 15.49 C
2754 10-06-2019 19:00:00 21.7 C 64.6667 % 14.76 C
2755 10-06-2019 20:00:00 20.61667 C 69.9167 % 14.94 C
2756 10-06-2019 21:00:00 19.38333 C 74.6667 % 14.77 C
2757 10-06-2019 22:00:00 17.975 C 79.5000 % 14.38 C
2758 10-06-2019 23:00:00 17.09167 C 82.5000 % 14.09 C
2759 11-06-2019 00:00:00 16.55833 C 85.5000 % 14.12 C
2760 11-06-2019 01:00:00 16.38333 C 86.8333 % 14.19 C
2761 11-06-2019 02:00:00 16.15833 C 86.2500 % 13.86 C
2762 11-06-2019 03:00:00 15.29167 C 90.6667 % 13.78 C
2763 11-06-2019 04:00:00 14.6 C 93.0833 % 13.5 C
2764 11-06-2019 05:00:00 14.21667 C 94.0000 % 13.27 C
2765 11-06-2019 06:00:00 14.15833 C 94.8333 % 13.34 C
2766 11-06-2019 07:00:00 14.5 C 95.3333 % 13.76 C
2767 11-06-2019 08:00:00 15.01667 C 95.5833 % 14.32 C
2768 11-06-2019 09:00:00 15.34167 C 93.8333 % 14.35 C
2769 11-06-2019 10:00:00 16.16667 C 90.7500 % 14.65 C
2770 11-06-2019 11:00:00 16.925 C 85.2500 % 14.43 C
2771 11-06-2019 12:00:00 17.81667 C 78.5833 % 14.05 C
2772 11-06-2019 13:00:00 19.09167 C 71.9167 % 13.91 C
2773 11-06-2019 14:00:00 20.24167 C 66.0833 % 13.71 C
2774 11-06-2019 15:00:00 21.31667 C 61.8333 % 13.7 C
2775 11-06-2019 16:00:00 20.94167 C 66.5000 % 14.47 C
Sensor: Nr:Datum:Temp:Feuchte:Taupunkt:
Aussen-T/F 2776 11-06-2019 17:00:00 19.28333 C 79.3333 % 15.62 C
2777 11-06-2019 18:00:00 18.75833 C 82.1667 % 15.65 C
2778 11-06-2019 19:00:00 20.35 C 71.0000 % 14.92 C
2779 11-06-2019 20:00:00 19.19167 C 79.8333 % 15.63 C
2780 11-06-2019 21:00:00 17.76667 C 83.1667 % 14.87 C
2781 11-06-2019 22:00:00 16.79167 C 84.7500 % 14.21 C
2782 11-06-2019 23:00:00 15.70833 C 86.5000 % 13.46 C
2783 12-06-2019 00:00:00 15.16667 C 87.0000 % 13.02 C
2784 12-06-2019 01:00:00 14.39167 C 88.8333 % 12.57 C
2785 12-06-2019 02:00:00 14.59167 C 90.0000 % 12.97 C
2786 12-06-2019 03:00:00 14.525 C 90.7500 % 13.03 C
2787 12-06-2019 04:00:00 14.39167 C 91.0000 % 12.94 C
2788 12-06-2019 05:00:00 14.125 C 91.7500 % 12.8 C
2789 12-06-2019 06:00:00 13.95833 C 92.4167 % 12.75 C
2790 12-06-2019 07:00:00 14.875 C 91.3333 % 13.48 C
2791 12-06-2019 08:00:00 15.81667 C 88.6667 % 13.95 C
2792 12-06-2019 09:00:00 16.53333 C 85.8333 % 14.15 C
2793 12-06-2019 10:00:00 15.15 C 91.9167 % 13.85 C
2794 12-06-2019 11:00:00 13.975 C 93.4167 % 12.93 C
2795 12-06-2019 12:00:00 14.40833 C 95.0000 % 13.62 C
2796 12-06-2019 13:00:00 15.325 C 93.0000 % 14.2 C
2797 12-06-2019 14:00:00 17.175 C 83.9167 % 14.43 C
2798 12-06-2019 15:00:00 18.2 C 77.9167 % 14.29 C
2799 12-06-2019 16:00:00 20.125 C 66.5833 % 13.71 C
2800 12-06-2019 17:00:00 21.81667 C 59.0000 % 13.45 C
Sensor: Nr:Datum:Temp:Feuchte:Taupunkt:
Aussen-T/F 2801 12-06-2019 18:00:00 22.64167 C 53.9167 % 12.84 C
2802 12-06-2019 19:00:00 21.925 C 53.0833 % 11.94 C
2803 12-06-2019 20:00:00 21.23333 C 62.8333 % 13.87 C
2804 12-06-2019 21:00:00 17.83333 C 74.5000 % 13.24 C
2805 12-06-2019 22:00:00 14.38333 C 84.7500 % 11.85 C
2806 12-06-2019 23:00:00 13.15833 C 88.2500 % 11.26 C
2807 13-06-2019 00:00:00 12.55833 C 89.5833 % 10.89 C
2808 13-06-2019 01:00:00 11.68333 C 90.7500 % 10.22 C
2809 13-06-2019 02:00:00 10.9 C 92.4167 % 9.72 C
2810 13-06-2019 03:00:00 10.29167 C 93.5833 % 9.3 C
2811 13-06-2019 04:00:00 9.775 C 94.0000 % 8.86 C
2812 13-06-2019 05:00:00 9.45833 C 94.9167 % 8.69 C
2813 13-06-2019 06:00:00 9.50833 C 95.3333 % 8.8 C
2814 13-06-2019 07:00:00 10.31667 C 96.0000 % 9.71 C
2815 13-06-2019 08:00:00 11.75 C 95.6667 % 11.08 C
2816 13-06-2019 09:00:00 15.15833 C 79.0833 % 11.56 C
2817 13-06-2019 10:00:00 17.91667 C 65.0833 % 11.27 C
2818 13-06-2019 11:00:00 19.15 C 60.8333 % 11.41 C
2819 13-06-2019 12:00:00 19.41667 C 57.0000 % 10.68 C
2820 13-06-2019 13:00:00 20.875 C 53.3333 % 11.04 C
2821 13-06-2019 14:00:00 21.26667 C 51.1667 % 10.78 C
2822 13-06-2019 15:00:00 22.13333 C 48.6667 % 10.82 C
2823 13-06-2019 16:00:00 23.85833 C 42.2500 % 10.27 C
2824 13-06-2019 17:00:00 24.41667 C 41.5833 % 10.53 C
2825 13-06-2019 18:00:00 24.325 C 43.0833 % 10.98 C
Sensor: Nr:Datum:Temp:Feuchte:Taupunkt:
Aussen-T/F 2826 13-06-2019 19:00:00 20.40833 C 65.3333 % 13.69 C
2827 13-06-2019 20:00:00 15.975 C 89.5000 % 14.25 C
2828 13-06-2019 21:00:00 15.11667 C 89.0000 % 13.32 C
2829 13-06-2019 22:00:00 13.21667 C 91.6667 % 11.89 C
2830 13-06-2019 23:00:00 12.78333 C 93.8333 % 11.82 C
2831 14-06-2019 00:00:00 12.06667 C 94.1667 % 11.16 C
2832 14-06-2019 01:00:00 11.73333 C 95.1667 % 10.99 C
2833 14-06-2019 02:00:00 12.16667 C 96.0000 % 11.55 C
2834 14-06-2019 03:00:00 12.00833 C 96.0000 % 11.39 C
2835 14-06-2019 04:00:00 11.59167 C 96.0000 % 10.98 C
2836 14-06-2019 05:00:00 11.41667 C 96.4167 % 10.87 C
2837 14-06-2019 06:00:00 11.33333 C 96.7500 % 10.84 C
2838 14-06-2019 07:00:00 11.43333 C 97.0000 % 10.97 C
2839 14-06-2019 08:00:00 12.15 C 97.0000 % 11.69 C
2840 14-06-2019 09:00:00 14.29167 C 97.8333 % 13.95 C
2841 14-06-2019 10:00:00 17.16667 C 98.0000 % 16.85 C
2842 14-06-2019 11:00:00 18.61667 C 96.0000 % 17.97 C
2843 14-06-2019 12:00:00 21.65833 C 71.3333 % 16.25 C
2844 14-06-2019 13:00:00 24.26667 C 57.5833 % 15.37 C
2845 14-06-2019 14:00:00 26 C 50.2500 % 14.85 C
2846 14-06-2019 15:00:00 26.35 C 50.6667 % 15.3 C
2847 14-06-2019 16:00:00 25.95 C 57.5000 % 16.91 C
2848 14-06-2019 17:00:00 25.23333 C 65.7500 % 18.37 C
2849 14-06-2019 18:00:00 24.49167 C 68.7500 % 18.37 C
2850 14-06-2019 19:00:00 22.55 C 74.2500 % 17.74 C
Sensor: Nr:Datum:Temp:Feuchte:Taupunkt:
Aussen-T/F 2851 14-06-2019 20:00:00 20.29167 C 78.3333 % 16.4 C
2852 14-06-2019 21:00:00 19.08333 C 83.5000 % 16.22 C
2853 14-06-2019 22:00:00 18.79167 C 83.7500 % 15.98 C
2854 14-06-2019 23:00:00 18.6 C 86.5000 % 16.3 C
2855 15-06-2019 00:00:00 17.59167 C 91.5833 % 16.21 C
2856 15-06-2019 01:00:00 16.49167 C 93.1667 % 15.38 C
2857 15-06-2019 02:00:00 15.68333 C 94.1667 % 14.75 C
2858 15-06-2019 03:00:00 15.16667 C 95.0833 % 14.38 C
2859 15-06-2019 04:00:00 15.14167 C 95.6667 % 14.45 C
2860 15-06-2019 05:00:00 15.01667 C 96.0833 % 14.4 C
2861 15-06-2019 06:00:00 15.54167 C 96.4167 % 14.97 C
2862 15-06-2019 07:00:00 16.175 C 97.0000 % 15.7 C
2863 15-06-2019 08:00:00 16.94167 C 96.4167 % 16.37 C
2864 15-06-2019 09:00:00 18.45833 C 89.9167 % 16.77 C
2865 15-06-2019 10:00:00 19.93333 C 81.8333 % 16.74 C
2866 15-06-2019 11:00:00 20.8 C 72.4167 % 15.66 C
2867 15-06-2019 12:00:00 21.60833 C 69.5833 % 15.81 C
2868 15-06-2019 13:00:00 21.28333 C 73.9167 % 16.44 C
2869 15-06-2019 14:00:00 21.65833 C 73.5000 % 16.72 C
2870 15-06-2019 15:00:00 22.11667 C 69.6667 % 16.31 C
2871 15-06-2019 16:00:00 23.775 C 63.6667 % 16.48 C
2872 15-06-2019 17:00:00 25.35833 C 54.7500 % 15.59 C
2873 15-06-2019 18:00:00 26.24167 C 48.8333 % 14.63 C
2874 15-06-2019 19:00:00 25.35833 C 54.0833 % 15.4 C
2875 15-06-2019 20:00:00 23.43333 C 65.5000 % 16.6 C
Sensor: Nr:Datum:Temp:Feuchte:Taupunkt:
Aussen-T/F 2876 15-06-2019 21:00:00 21.01667 C 71.0833 % 15.58 C
2877 15-06-2019 22:00:00 18.48333 C 78.6667 % 14.71 C
2878 15-06-2019 23:00:00 17.625 C 81.7500 % 14.47 C
2879 16-06-2019 00:00:00 17.3 C 83.2500 % 14.43 C
2880 16-06-2019 01:00:00 17.4 C 83.0833 % 14.5 C
2881 16-06-2019 02:00:00 17.19167 C 83.9167 % 14.45 C
2882 16-06-2019 03:00:00 16.9 C 84.5000 % 14.27 C
2883 16-06-2019 04:00:00 17.08333 C 82.4167 % 14.07 C
2884 16-06-2019 05:00:00 16.3 C 85.1667 % 13.81 C
2885 16-06-2019 06:00:00 15.46667 C 89.4167 % 13.73 C
2886 16-06-2019 07:00:00 15.55 C 91.3333 % 14.14 C
2887 16-06-2019 08:00:00 16.04167 C 89.7500 % 14.36 C
2888 16-06-2019 09:00:00 17.04167 C 81.2500 % 13.81 C
2889 16-06-2019 10:00:00 19.3 C 69.7500 % 13.64 C
2890 16-06-2019 11:00:00 20.84167 C 60.6667 % 12.96 C
2891 16-06-2019 12:00:00 21.34167 C 59.1667 % 13.05 C
2892 16-06-2019 13:00:00 22.35 C 54.7500 % 12.8 C
2893 16-06-2019 14:00:00 22.56667 C 55.9167 % 13.33 C
2894 16-06-2019 15:00:00 23.03333 C 54.9167 % 13.48 C
2895 16-06-2019 16:00:00 23.225 C 55.0833 % 13.71 C
2896 16-06-2019 17:00:00 22.275 C 58.5833 % 13.77 C
2897 16-06-2019 18:00:00 24.04167 C 51.7500 % 13.51 C
2898 16-06-2019 19:00:00 23.55 C 54.6667 % 13.89 C
2899 16-06-2019 20:00:00 22.61667 C 57.8333 % 13.89 C
2900 16-06-2019 21:00:00 20.29167 C 67.7500 % 14.14 C
Sensor: Nr:Datum:Temp:Feuchte:Taupunkt:
Aussen-T/F 2901 16-06-2019 22:00:00 17.21667 C 76.5833 % 13.07 C
2902 16-06-2019 23:00:00 15.35 C 82.7500 % 12.43 C
2903 17-06-2019 00:00:00 14.14167 C 85.6667 % 11.78 C
2904 17-06-2019 01:00:00 13.31667 C 88.2500 % 11.42 C
2905 17-06-2019 02:00:00 12.625 C 90.4167 % 11.1 C
2906 17-06-2019 03:00:00 11.95833 C 91.8333 % 10.67 C
2907 17-06-2019 04:00:00 11.43333 C 93.0000 % 10.34 C
2908 17-06-2019 05:00:00 11.075 C 93.9167 % 10.13 C
2909 17-06-2019 06:00:00 11.08333 C 95.0000 % 10.31 C
2910 17-06-2019 07:00:00 11.575 C 95.2500 % 10.84 C
2911 17-06-2019 08:00:00 12.66667 C 96.0000 % 12.05 C
2912 17-06-2019 09:00:00 14.46667 C 94.8333 % 13.65 C
2913 17-06-2019 10:00:00 18.59167 C 82.0833 % 15.48 C
2914 17-06-2019 11:00:00 22.31667 C 63.0000 % 14.93 C
2915 17-06-2019 12:00:00 23.475 C 58.1667 % 14.78 C
2916 17-06-2019 13:00:00 24.45833 C 54.7500 % 14.76 C
2917 17-06-2019 14:00:00 25.15833 C 50.7500 % 14.23 C
2918 17-06-2019 15:00:00 25.26667 C 50.6667 % 14.31 C
2919 17-06-2019 16:00:00 26.71667 C 49.6667 % 15.33 C
2920 17-06-2019 17:00:00 28.43333 C 42.1667 % 14.34 C
2921 17-06-2019 18:00:00 27.90833 C 46.3333 % 15.33 C
2922 17-06-2019 19:00:00 27.64167 C 47.5833 % 15.5 C
2923 17-06-2019 20:00:00 23.58333 C 61.1667 % 15.67 C
2924 17-06-2019 21:00:00 20.78333 C 68.0833 % 14.68 C
2925 17-06-2019 22:00:00 18.73333 C 75.2500 % 14.26 C
Sensor: Nr:Datum:Temp:Feuchte:Taupunkt:
Aussen-T/F 2926 17-06-2019 23:00:00 17.06667 C 80.8333 % 13.75 C
2927 18-06-2019 00:00:00 15.86667 C 84.5000 % 13.26 C
2928 18-06-2019 01:00:00 15.09167 C 87.2500 % 12.99 C
2929 18-06-2019 02:00:00 14.43333 C 89.1667 % 12.67 C
2930 18-06-2019 03:00:00 13.8 C 91.3333 % 12.41 C
2931 18-06-2019 04:00:00 13.8 C 92.2500 % 12.56 C
2932 18-06-2019 05:00:00 13.625 C 92.4167 % 12.42 C
2933 18-06-2019 06:00:00 13.65 C 93.7500 % 12.66 C
2934 18-06-2019 07:00:00 14.75 C 92.1667 % 13.49 C
2935 18-06-2019 08:00:00 16.01667 C 90.0000 % 14.38 C
2936 18-06-2019 09:00:00 17.65 C 88.2500 % 15.68 C
2937 18-06-2019 10:00:00 20.80833 C 82.3333 % 17.69 C
2938 18-06-2019 11:00:00 24.26667 C 67.8333 % 17.94 C
2939 18-06-2019 12:00:00 26.78333 C 53.9167 % 16.67 C
2940 18-06-2019 13:00:00 28.125 C 47.0000 % 15.75 C
2941 18-06-2019 14:00:00 28.825 C 45.3333 % 15.82 C
2942 18-06-2019 15:00:00 29.825 C 43.5000 % 16.08 C
2943 18-06-2019 16:00:00 29.575 C 46.0833 % 16.76 C
2944 18-06-2019 17:00:00 29.48333 C 56.4167 % 19.9 C
2945 18-06-2019 18:00:00 29.725 C 55.1667 % 19.76 C
2946 18-06-2019 19:00:00 27.95 C 60.5833 % 19.62 C
2947 18-06-2019 20:00:00 26.03333 C 63.7500 % 18.63 C
2948 18-06-2019 21:00:00 23.73333 C 68.0833 % 17.49 C
2949 18-06-2019 22:00:00 21.45 C 74.5833 % 16.75 C
2950 18-06-2019 23:00:00 19.83333 C 79.5833 % 16.2 C
Sensor: Nr:Datum:Temp:Feuchte:Taupunkt:
Aussen-T/F 2951 19-06-2019 00:00:00 18.48333 C 83.5833 % 15.65 C
2952 19-06-2019 01:00:00 17.61667 C 86.5833 % 15.35 C
2953 19-06-2019 02:00:00 17.39167 C 88.3333 % 15.44 C
2954 19-06-2019 03:00:00 16.53333 C 89.8333 % 14.86 C
2955 19-06-2019 04:00:00 15.775 C 91.0000 % 14.31 C
2956 19-06-2019 05:00:00 15.19167 C 92.8333 % 14.04 C
2957 19-06-2019 06:00:00 14.99167 C 93.6667 % 13.98 C
2958 19-06-2019 07:00:00 15.425 C 94.8333 % 14.6 C
2959 19-06-2019 08:00:00 16.54167 C 95.0000 % 15.74 C
2960 19-06-2019 09:00:00 18.46667 C 93.8333 % 17.45 C
2961 19-06-2019 10:00:00 23.44167 C 73.4167 % 18.41 C
2962 19-06-2019 11:00:00 26.775 C 54.0833 % 16.71 C
2963 19-06-2019 12:00:00 26.475 C 59.5833 % 17.97 C
2964 19-06-2019 13:00:00 26 C 63.0000 % 18.41 C
2965 19-06-2019 14:00:00 27.00833 C 53.5000 % 16.76 C
2966 19-06-2019 15:00:00 27.25 C 56.8333 % 17.94 C
2967 19-06-2019 16:00:00 29.925 C 48.6667 % 17.94 C
2968 19-06-2019 17:00:00 31.25833 C 41.2500 % 16.53 C
2969 19-06-2019 18:00:00 28.4 C 56.5833 % 18.94 C
2970 19-06-2019 19:00:00 28.94167 C 53.0833 % 18.42 C
2971 19-06-2019 20:00:00 25.31667 C 65.3333 % 18.34 C
2972 19-06-2019 21:00:00 23.275 C 70.8333 % 17.68 C
2973 19-06-2019 22:00:00 21.68333 C 74.0000 % 16.85 C
2974 19-06-2019 23:00:00 19.925 C 79.8333 % 16.34 C
2975 20-06-2019 00:00:00 18.75 C 83.3333 % 15.87 C
Sensor: Nr:Datum:Temp:Feuchte:Taupunkt:
Aussen-T/F 2976 20-06-2019 01:00:00 17.98333 C 86.2500 % 15.65 C
2977 20-06-2019 02:00:00 17.45833 C 88.7500 % 15.58 C
2978 20-06-2019 03:00:00 17.7 C 89.5000 % 15.95 C
2979 20-06-2019 04:00:00 17.31667 C 89.5833 % 15.59 C
2980 20-06-2019 05:00:00 16.68333 C 91.3333 % 15.26 C
2981 20-06-2019 06:00:00 16.85833 C 92.3333 % 15.61 C
2982 20-06-2019 07:00:00 17.73333 C 89.2500 % 15.94 C
2983 20-06-2019 08:00:00 19.45 C 81.4167 % 16.18 C
2984 20-06-2019 09:00:00 20.2 C 75.9167 % 15.82 C
2985 20-06-2019 10:00:00 21.30833 C 70.7500 % 15.78 C
2986 20-06-2019 11:00:00 21.89167 C 69.9167 % 16.15 C
2987 20-06-2019 12:00:00 22.65 C 66.5000 % 16.09 C
2988 20-06-2019 13:00:00 23.24167 C 64.7500 % 16.24 C
2989 20-06-2019 14:00:00 24.61667 C 58.7500 % 16.01 C
2990 20-06-2019 15:00:00 21.45833 C 75.0833 % 16.86 C
2991 20-06-2019 16:00:00 22.75 C 71.9167 % 17.42 C
2992 20-06-2019 17:00:00 21.25833 C 76.5000 % 16.96 C
2993 20-06-2019 18:00:00 20 C 81.0833 % 16.66 C
2994 20-06-2019 19:00:00 18.75833 C 81.8333 % 15.59 C
2995 20-06-2019 20:00:00 18.66667 C 82.3333 % 15.6 C
2996 20-06-2019 21:00:00 18.21667 C 84.0833 % 15.48 C
2997 20-06-2019 22:00:00 16.9 C 87.0000 % 14.72 C
2998 20-06-2019 23:00:00 15.725 C 90.6667 % 14.2 C
2999 21-06-2019 00:00:00 15.5 C 93.5000 % 14.46 C
3000 21-06-2019 01:00:00 14.89167 C 93.0000 % 13.77 C
Sensor: Nr:Datum:Temp:Feuchte:Taupunkt:
Aussen-T/F 3001 21-06-2019 02:00:00 14.78333 C 94.3333 % 13.88 C
3002 21-06-2019 03:00:00 15.06667 C 94.2500 % 14.15 C
3003 21-06-2019 04:00:00 14.91667 C 94.1667 % 13.99 C
3004 21-06-2019 05:00:00 14.325 C 93.9167 % 13.36 C
3005 21-06-2019 06:00:00 14.175 C 93.4167 % 13.13 C
3006 21-06-2019 07:00:00 14.63333 C 92.6667 % 13.46 C
3007 21-06-2019 08:00:00 15.88333 C 79.4167 % 12.33 C
3008 21-06-2019 09:00:00 16.7 C 73.2500 % 11.89 C
3009 21-06-2019 10:00:00 18.28333 C 66.5000 % 11.94 C
3010 21-06-2019 11:00:00 19.45 C 61.0000 % 11.74 C
3011 21-06-2019 12:00:00 20.10833 C 58.2500 % 11.66 C
3012 21-06-2019 13:00:00 21.3 C 52.6667 % 11.24 C
3013 21-06-2019 14:00:00 22.03333 C 47.4167 % 10.34 C
3014 21-06-2019 15:00:00 22.6 C 46.2500 % 10.48 C
3015 21-06-2019 16:00:00 23.64167 C 43.2500 % 10.42 C
3016 21-06-2019 17:00:00 25.125 C 39.5000 % 10.39 C
3017 21-06-2019 18:00:00 24.95833 C 39.5000 % 10.24 C
3018 21-06-2019 19:00:00 23.63333 C 42.8333 % 10.27 C
3019 21-06-2019 20:00:00 22.15 C 47.1667 % 10.37 C
3020 21-06-2019 21:00:00 19.375 C 57.1667 % 10.69 C
3021 21-06-2019 22:00:00 16.6 C 66.4167 % 10.32 C
3022 21-06-2019 23:00:00 15.23333 C 72.5000 % 10.33 C
3023 22-06-2019 00:00:00 13.71667 C 79.0000 % 10.14 C
3024 22-06-2019 01:00:00 13.01667 C 82.2500 % 10.06 C
3025 22-06-2019 02:00:00 12.10833 C 85.6667 % 9.78 C
Sensor: Nr:Datum:Temp:Feuchte:Taupunkt:
Aussen-T/F 3026 22-06-2019 03:00:00 11.5 C 88.5000 % 9.67 C
3027 22-06-2019 04:00:00 11.05833 C 90.4167 % 9.55 C
3028 22-06-2019 05:00:00 10.675 C 91.7500 % 9.39 C
3029 22-06-2019 06:00:00 10.70833 C 93.0000 % 9.62 C
3030 22-06-2019 07:00:00 11.80833 C 94.3333 % 10.93 C
3031 22-06-2019 08:00:00 13.84167 C 90.5833 % 12.33 C
3032 22-06-2019 09:00:00 16.275 C 79.8333 % 12.79 C
3033 22-06-2019 10:00:00 19.475 C 67.1667 % 13.23 C
3034 22-06-2019 11:00:00 21.21667 C 62.1667 % 13.69 C
3035 22-06-2019 12:00:00 22.66667 C 59.5833 % 14.4 C
3036 22-06-2019 13:00:00 24.175 C 55.6667 % 14.75 C
3037 22-06-2019 14:00:00 25.025 C 53.9167 % 15.05 C
3038 22-06-2019 15:00:00 25.59167 C 49.9167 % 14.37 C
3039 22-06-2019 16:00:00 26.50833 C 47.1667 % 14.34 C
3040 22-06-2019 17:00:00 26.26667 C 48.6667 % 14.6 C
3041 22-06-2019 18:00:00 27.45 C 43.5000 % 13.94 C
3042 22-06-2019 19:00:00 27.53333 C 43.7500 % 14.1 C
3043 22-06-2019 20:00:00 26.95 C 48.1667 % 15.06 C
3044 22-06-2019 21:00:00 23.525 C 62.3333 % 15.91 C
3045 22-06-2019 22:00:00 20.3 C 73.0833 % 15.32 C
3046 22-06-2019 23:00:00 18.63333 C 79.3333 % 14.99 C
3047 23-06-2019 00:00:00 17.4 C 83.5000 % 14.58 C
3048 23-06-2019 01:00:00 16.33333 C 86.9167 % 14.15 C
3049 23-06-2019 02:00:00 15.64167 C 89.2500 % 13.88 C
3050 23-06-2019 03:00:00 14.98333 C 91.0000 % 13.53 C
Sensor: Nr:Datum:Temp:Feuchte:Taupunkt:
Aussen-T/F 3051 23-06-2019 04:00:00 14.53333 C 92.2500 % 13.29 C
3052 23-06-2019 05:00:00 14.075 C 93.3333 % 13.02 C
3053 23-06-2019 06:00:00 14.20833 C 94.1667 % 13.28 C
3054 23-06-2019 07:00:00 14.74167 C 94.9167 % 13.94 C
3055 23-06-2019 08:00:00 16.09167 C 94.5833 % 15.22 C
3056 23-06-2019 09:00:00 18.65833 C 86.5000 % 16.36 C
3057 23-06-2019 10:00:00 22.525 C 69.0000 % 16.55 C
3058 23-06-2019 11:00:00 24.14167 C 64.3333 % 16.99 C
3059 23-06-2019 12:00:00 25.21667 C 61.5000 % 17.29 C
3060 23-06-2019 13:00:00 26.58333 C 56.0000 % 17.09 C
3061 23-06-2019 14:00:00 27.84167 C 51.0833 % 16.8 C
3062 23-06-2019 15:00:00 28.575 C 48.2500 % 16.57 C
3063 23-06-2019 16:00:00 30.24167 C 43.1667 % 16.33 C
3064 23-06-2019 17:00:00 30.6 C 43.1667 % 16.65 C
3065 23-06-2019 18:00:00 30.3 C 44.1667 % 16.74 C
3066 23-06-2019 19:00:00 29.025 C 50.3333 % 17.65 C
3067 23-06-2019 20:00:00 25.85833 C 62.0000 % 18.02 C
3068 23-06-2019 21:00:00 23.39167 C 67.6667 % 17.07 C
3069 23-06-2019 22:00:00 21.70833 C 72.3333 % 16.51 C
3070 23-06-2019 23:00:00 20.25 C 77.8333 % 16.26 C
3071 24-06-2019 00:00:00 19.11667 C 82.1667 % 16 C
3072 24-06-2019 01:00:00 18.43333 C 84.3333 % 15.74 C
3073 24-06-2019 02:00:00 17.54167 C 87.0833 % 15.37 C
3074 24-06-2019 03:00:00 16.95833 C 89.0833 % 15.15 C
3075 24-06-2019 04:00:00 16.55 C 90.6667 % 15.02 C
Sensor: Nr:Datum:Temp:Feuchte:Taupunkt:
Aussen-T/F 3076 24-06-2019 05:00:00 16.40833 C 92.0833 % 15.12 C
3077 24-06-2019 06:00:00 16.70833 C 92.9167 % 15.56 C
3078 24-06-2019 07:00:00 17.45 C 92.9167 % 16.29 C
3079 24-06-2019 08:00:00 18.55 C 91.7500 % 17.18 C
3080 24-06-2019 09:00:00 21.25833 C 84.6667 % 18.57 C
3081 24-06-2019 10:00:00 25.475 C 67.0833 % 18.92 C
3082 24-06-2019 11:00:00 26.95833 C 59.6667 % 18.44 C
3083 24-06-2019 12:00:00 27.88333 C 55.5000 % 18.15 C
3084 24-06-2019 13:00:00 29.05833 C 52.0000 % 18.2 C
3085 24-06-2019 14:00:00 30.1 C 49.8333 % 18.48 C
3086 24-06-2019 15:00:00 31.38333 C 46.8333 % 18.65 C
3087 24-06-2019 16:00:00 32.73333 C 44.0000 % 18.87 C
3088 24-06-2019 17:00:00 32.96667 C 44.5833 % 19.3 C
3089 24-06-2019 18:00:00 33.1 C 44.0000 % 19.2 C
3090 24-06-2019 19:00:00 32.375 C 45.5000 % 19.09 C
3091 24-06-2019 20:00:00 30.64167 C 50.5000 % 19.18 C
3092 24-06-2019 21:00:00 26.81667 C 63.7500 % 19.37 C
3093 24-06-2019 22:00:00 23.99167 C 71.0000 % 18.41 C
3094 24-06-2019 23:00:00 22.68333 C 74.0000 % 17.81 C
3095 25-06-2019 00:00:00 21.4 C 77.5000 % 17.3 C
3096 25-06-2019 01:00:00 20.425 C 80.8333 % 17.02 C
3097 25-06-2019 02:00:00 19.35833 C 83.5833 % 16.51 C
3098 25-06-2019 03:00:00 18.46667 C 85.5833 % 16.01 C
3099 25-06-2019 04:00:00 17.825 C 88.0833 % 15.83 C
3100 25-06-2019 05:00:00 17.51667 C 89.4167 % 15.76 C
Sensor: Nr:Datum:Temp:Feuchte:Taupunkt:
Aussen-T/F 3101 25-06-2019 06:00:00 17.76667 C 90.8333 % 16.25 C
3102 25-06-2019 07:00:00 18.44167 C 90.6667 % 16.89 C
3103 25-06-2019 08:00:00 20.1 C 88.5000 % 18.14 C
3104 25-06-2019 09:00:00 22.56667 C 81.7500 % 19.29 C
3105 25-06-2019 10:00:00 26.46667 C 65.7500 % 19.54 C
3106 25-06-2019 11:00:00 28.05833 C 59.2500 % 19.36 C
3107 25-06-2019 12:00:00 29.51667 C 55.8333 % 19.76 C
3108 25-06-2019 13:00:00 31.1 C 52.0000 % 20.08 C
3109 25-06-2019 14:00:00 32.75833 C 46.9167 % 19.93 C
3110 25-06-2019 15:00:00 34.91667 C 41.7500 % 19.99 C
3111 25-06-2019 16:00:00 36.45833 C 38.0833 % 19.87 C
3112 25-06-2019 17:00:00 37.69167 C 32.9167 % 18.61 C
3113 25-06-2019 18:00:00 36.71667 C 36.7500 % 19.53 C
3114 25-06-2019 19:00:00 34.225 C 48.5000 % 21.8 C
3115 25-06-2019 20:00:00 31.78333 C 52.1667 % 20.76 C
3116 25-06-2019 21:00:00 28.025 C 58.9167 % 19.24 C
3117 25-06-2019 22:00:00 25.60833 C 64.0000 % 18.29 C
3118 25-06-2019 23:00:00 24.15833 C 65.9167 % 17.39 C
3119 26-06-2019 00:00:00 23.41667 C 69.5000 % 17.52 C
3120 26-06-2019 01:00:00 22.38333 C 74.1667 % 17.56 C
3121 26-06-2019 02:00:00 21.20833 C 79.0000 % 17.42 C
3122 26-06-2019 03:00:00 20.575 C 81.9167 % 17.38 C
3123 26-06-2019 04:00:00 19.825 C 84.4167 % 17.12 C
3124 26-06-2019 05:00:00 19.475 C 86.5000 % 17.16 C
3125 26-06-2019 06:00:00 19.575 C 87.8333 % 17.5 C
Sensor: Nr:Datum:Temp:Feuchte:Taupunkt:
Aussen-T/F 3126 26-06-2019 07:00:00 20.29167 C 88.1667 % 18.27 C
3127 26-06-2019 08:00:00 21.89167 C 87.8333 % 19.78 C
3128 26-06-2019 09:00:00 24.64167 C 83.0000 % 21.56 C
3129 26-06-2019 10:00:00 27.25 C 74.0833 % 22.22 C
3130 26-06-2019 11:00:00 28.95 C 68.1667 % 22.48 C
3131 26-06-2019 12:00:00 30.24167 C 62.8333 % 22.36 C
3132 26-06-2019 13:00:00 31.63333 C 53.0833 % 20.9 C
3133 26-06-2019 14:00:00 32.64167 C 50.5000 % 21.02 C
3134 26-06-2019 15:00:00 33.9 C 49.5833 % 21.87 C
3135 26-06-2019 16:00:00 34.76667 C 45.8333 % 21.37 C
3136 26-06-2019 17:00:00 34.76667 C 44.0000 % 20.7 C
3137 26-06-2019 18:00:00 34.36667 C 41.8333 % 19.53 C
3138 26-06-2019 19:00:00 33.36667 C 43.5833 % 19.29 C
3139 26-06-2019 20:00:00 30.94167 C 50.2500 % 19.38 C
3140 26-06-2019 21:00:00 28.8 C 56.5000 % 19.29 C
3141 26-06-2019 22:00:00 26.4 C 65.2500 % 19.35 C
3142 26-06-2019 23:00:00 26.03333 C 69.3333 % 19.98 C
3143 27-06-2019 00:00:00 25.24167 C 73.0000 % 20.05 C
3144 27-06-2019 01:00:00 24.11667 C 76.5000 % 19.72 C
3145 27-06-2019 02:00:00 23.25833 C 78.5000 % 19.31 C
3146 27-06-2019 03:00:00 22.41667 C 78.0000 % 18.39 C
3147 27-06-2019 04:00:00 21.66667 C 77.0000 % 17.46 C
3148 27-06-2019 05:00:00 20.54167 C 79.4167 % 16.86 C
3149 27-06-2019 06:00:00 20.01667 C 80.7500 % 16.61 C
3150 27-06-2019 07:00:00 20.03333 C 79.7500 % 16.43 C
Sensor: Nr:Datum:Temp:Feuchte:Taupunkt:
Aussen-T/F 3151 27-06-2019 08:00:00 20.6 C 77.5000 % 16.53 C
3152 27-06-2019 09:00:00 21.45833 C 74.0000 % 16.63 C
3153 27-06-2019 10:00:00 22.83333 C 68.0000 % 16.62 C
3154 27-06-2019 11:00:00 24.03333 C 62.0833 % 16.32 C
3155 27-06-2019 12:00:00 24.84167 C 58.9167 % 16.26 C
3156 27-06-2019 13:00:00 25.875 C 53.2500 % 15.64 C
3157 27-06-2019 14:00:00 26.98333 C 48.3333 % 15.15 C
3158 27-06-2019 15:00:00 28.6 C 41.0833 % 14.09 C
3159 27-06-2019 16:00:00 30.18333 C 32.4167 % 11.86 C
3160 27-06-2019 17:00:00 30.54167 C 28.0000 % 9.97 C
3161 27-06-2019 18:00:00 30.225 C 26.3333 % 8.79 C
3162 27-06-2019 19:00:00 29.59167 C 25.7500 % 7.92 C
3163 27-06-2019 20:00:00 27.43333 C 32.5000 % 9.51 C
3164 27-06-2019 21:00:00 24.48333 C 41.6667 % 10.62 C
3165 27-06-2019 22:00:00 21.28333 C 55.0000 % 11.88 C
3166 27-06-2019 23:00:00 19.9 C 60.8333 % 12.12 C
3167 28-06-2019 00:00:00 18.53333 C 66.0833 % 12.08 C
3168 28-06-2019 01:00:00 17.18333 C 71.6667 % 12.03 C
3169 28-06-2019 02:00:00 16.26667 C 76.5000 % 12.13 C
3170 28-06-2019 03:00:00 15.48333 C 80.2500 % 12.1 C
3171 28-06-2019 04:00:00 14.35 C 84.2500 % 11.73 C
3172 28-06-2019 05:00:00 13.51667 C 87.4167 % 11.47 C
3173 28-06-2019 06:00:00 13.35833 C 89.7500 % 11.71 C
3174 28-06-2019 07:00:00 13.86667 C 90.8333 % 12.4 C
3175 28-06-2019 08:00:00 15.39167 C 85.5000 % 12.97 C
Sensor: Nr:Datum:Temp:Feuchte:Taupunkt:
Aussen-T/F 3176 28-06-2019 09:00:00 17.7 C 74.9167 % 13.2 C
3177 28-06-2019 10:00:00 19.81667 C 67.4167 % 13.61 C
3178 28-06-2019 11:00:00 21.475 C 60.3333 % 13.47 C
3179 28-06-2019 12:00:00 22.84167 C 55.6667 % 13.51 C
3180 28-06-2019 13:00:00 24.66667 C 47.2500 % 12.69 C
3181 28-06-2019 14:00:00 26.31667 C 42.3333 % 12.5 C
3182 28-06-2019 15:00:00 28.225 C 38.5833 % 12.79 C
3183 28-06-2019 16:00:00 30.25 C 33.5833 % 12.46 C
3184 28-06-2019 17:00:00 31.13333 C 29.7500 % 11.38 C
3185 28-06-2019 18:00:00 31.66667 C 28.0000 % 10.93 C
3186 28-06-2019 19:00:00 31.2 C 30.0833 % 11.61 C
3187 28-06-2019 20:00:00 29.49167 C 36.8333 % 13.2 C
3188 28-06-2019 21:00:00 25.61667 C 48.1667 % 13.85 C
3189 28-06-2019 22:00:00 21.58333 C 54.6667 % 12.07 C
3190 28-06-2019 23:00:00 19.275 C 63.6667 % 12.22 C
3191 29-06-2019 00:00:00 18.40833 C 65.9167 % 11.93 C
3192 29-06-2019 01:00:00 17.83333 C 68.0833 % 11.87 C
3193 29-06-2019 02:00:00 17.09167 C 70.9167 % 11.78 C
3194 29-06-2019 03:00:00 16.39167 C 74.3333 % 11.82 C
3195 29-06-2019 04:00:00 15.175 C 78.5833 % 11.48 C
3196 29-06-2019 05:00:00 14.09167 C 82.7500 % 11.21 C
3197 29-06-2019 06:00:00 13.70833 C 85.5000 % 11.32 C
3198 29-06-2019 07:00:00 14.075 C 87.6667 % 12.06 C
3199 29-06-2019 08:00:00 15.26667 C 86.9167 % 13.1 C
3200 29-06-2019 09:00:00 19.2 C 71.5000 % 13.92 C
Sensor: Nr:Datum:Temp:Feuchte:Taupunkt:
Aussen-T/F 3201 29-06-2019 10:00:00 23.49167 C 55.0833 % 13.96 C
3202 29-06-2019 11:00:00 25.775 C 48.0000 % 13.94 C
3203 29-06-2019 12:00:00 27.41667 C 44.5833 % 14.29 C
3204 29-06-2019 13:00:00 29.11667 C 35.4167 % 12.28 C
3205 29-06-2019 14:00:00 30.58333 C 30.5000 % 11.29 C
3206 29-06-2019 15:00:00 32.63333 C 26.5000 % 10.92 C
3207 29-06-2019 16:00:00 34.24167 C 23.5000 % 10.47 C
3208 29-06-2019 17:00:00 35.325 C 22.2500 % 10.55 C
3209 29-06-2019 18:00:00 35.64167 C 22.5833 % 11.03 C
3210 29-06-2019 19:00:00 35.26667 C 23.4167 % 11.27 C
3211 29-06-2019 20:00:00 32.425 C 34.0833 % 14.58 C
3212 29-06-2019 21:00:00 27.60833 C 40.0833 % 12.83 C
3213 29-06-2019 22:00:00 24.225 C 45.4167 % 11.68 C
3214 29-06-2019 23:00:00 21.23333 C 57.4167 % 12.49 C
3215 30-06-2019 00:00:00 18.93333 C 65.8333 % 12.41 C
3216 30-06-2019 01:00:00 17.525 C 72.1667 % 12.46 C
3217 30-06-2019 02:00:00 16.75 C 75.5833 % 12.42 C
3218 30-06-2019 03:00:00 16.10833 C 78.7500 % 12.42 C
3219 30-06-2019 04:00:00 15.58333 C 81.3333 % 12.4 C
3220 30-06-2019 05:00:00 15.05 C 83.5833 % 12.29 C
3221 30-06-2019 06:00:00 14.85 C 86.5000 % 12.62 C
3222 30-06-2019 07:00:00 15.44167 C 87.8333 % 13.44 C
3223 30-06-2019 08:00:00 17.025 C 86.4167 % 14.74 C
3224 30-06-2019 09:00:00 19.65833 C 81.5833 % 16.42 C
3225 30-06-2019 10:00:00 25.225 C 64.7500 % 18.11 C
Sensor: Nr:Datum:Temp:Feuchte:Taupunkt:
Aussen-T/F 3226 30-06-2019 11:00:00 30.59167 C 45.2500 % 17.39 C
3227 30-06-2019 12:00:00 32.48333 C 40.0000 % 17.14 C
3228 30-06-2019 13:00:00 34.6 C 35.0000 % 16.89 C
3229 30-06-2019 14:00:00 36.00833 C 34.3333 % 17.82 C
3230 30-06-2019 15:00:00 35.5 C 40.7500 % 20.12 C
3231 30-06-2019 16:00:00 35.49167 C 45.0000 % 21.72 C
3232 30-06-2019 17:00:00 35.875 C 45.5833 % 22.28 C
3233 30-06-2019 18:00:00 34.975 C 46.3333 % 21.73 C
3234 30-06-2019 19:00:00 32.65833 C 50.6667 % 21.09 C
3235 30-06-2019 20:00:00 29.35 C 58.8333 % 20.45 C
3236 30-06-2019 21:00:00 27.18333 C 62.5000 % 19.4 C
3237 30-06-2019 22:00:00 26.25833 C 63.6667 % 18.82 C
3238 30-06-2019 23:00:00 24.55833 C 67.0000 % 18.02 C
3239 01-07-2019 00:00:00 22.68333 C 73.0833 % 17.61 C
3240 01-07-2019 01:00:00 22.36667 C 73.0833 % 17.31 C
3241 01-07-2019 02:00:00 21.63333 C 73.9167 % 16.78 C
3242 01-07-2019 03:00:00 20.98333 C 72.0833 % 15.76 C
3243 01-07-2019 04:00:00 20.34167 C 71.7500 % 15.07 C
3244 01-07-2019 05:00:00 19.65833 C 73.0833 % 14.7 C
3245 01-07-2019 06:00:00 19.68333 C 70.9167 % 14.26 C
3246 01-07-2019 07:00:00 19.675 C 70.9167 % 14.25 C
3247 01-07-2019 08:00:00 19.79167 C 70.6667 % 14.31 C
3248 01-07-2019 09:00:00 20.24167 C 69.2500 % 14.43 C
3249 01-07-2019 10:00:00 21.20833 C 68.8333 % 15.26 C
3250 01-07-2019 11:00:00 21.78333 C 69.2500 % 15.9 C
Sensor: Nr:Datum:Temp:Feuchte:Taupunkt:
Aussen-T/F 3251 01-07-2019 12:00:00 23.16667 C 62.7500 % 15.67 C
3252 01-07-2019 13:00:00 24.89167 C 50.9167 % 14.04 C
3253 01-07-2019 14:00:00 25.55833 C 51.1667 % 14.73 C
3254 01-07-2019 15:00:00 26.675 C 47.1667 % 14.49 C
3255 01-07-2019 16:00:00 26.89167 C 44.3333 % 13.73 C
3256 01-07-2019 17:00:00 27.04167 C 42.0833 % 13.06 C
3257 01-07-2019 18:00:00 26.3 C 44.0000 % 13.08 C
3258 01-07-2019 19:00:00 25.96667 C 42.7500 % 12.34 C
3259 01-07-2019 20:00:00 24.53333 C 46.6667 % 12.38 C
3260 01-07-2019 21:00:00 22.55833 C 51.1667 % 11.97 C
3261 01-07-2019 22:00:00 20.825 C 57.2500 % 12.06 C
3262 01-07-2019 23:00:00 20.03333 C 59.4167 % 11.89 C
3263 02-07-2019 00:00:00 18.85833 C 63.1667 % 11.71 C
3264 02-07-2019 01:00:00 16.89167 C 70.3333 % 11.46 C
3265 02-07-2019 02:00:00 15.85 C 74.3333 % 11.3 C
3266 02-07-2019 03:00:00 15.49167 C 75.2500 % 11.13 C
3267 02-07-2019 04:00:00 14.525 C 78.8333 % 10.9 C
3268 02-07-2019 05:00:00 13.45 C 83.2500 % 10.67 C
3269 02-07-2019 06:00:00 13.10833 C 85.5000 % 10.73 C
3270 02-07-2019 07:00:00 13.23333 C 87.0000 % 11.12 C
3271 02-07-2019 08:00:00 14.925 C 82.0000 % 11.88 C
3272 02-07-2019 09:00:00 17.48333 C 70.3333 % 12.03 C
3273 02-07-2019 10:00:00 19 C 62.7500 % 11.74 C
3274 02-07-2019 11:00:00 19.60833 C 60.5833 % 11.78 C
3275 02-07-2019 12:00:00 20.48333 C 55.0833 % 11.16 C
Sensor: Nr:Datum:Temp:Feuchte:Taupunkt:
Aussen-T/F 3276 02-07-2019 13:00:00 21.46667 C 51.4167 % 11.04 C
3277 02-07-2019 14:00:00 22.31667 C 49.1667 % 11.14 C
3278 02-07-2019 15:00:00 23.00833 C 47.5833 % 11.28 C
3279 02-07-2019 16:00:00 24.98333 C 40.2500 % 10.55 C
3280 02-07-2019 17:00:00 25.49167 C 38.5000 % 10.33 C
3281 02-07-2019 18:00:00 24.36667 C 41.3333 % 10.39 C
3282 02-07-2019 19:00:00 24.775 C 38.5833 % 9.73 C
3283 02-07-2019 20:00:00 22.95 C 41.7500 % 9.27 C
3284 02-07-2019 21:00:00 20.825 C 48.5833 % 9.6 C
3285 02-07-2019 22:00:00 17.64167 C 58.2500 % 9.35 C
3286 02-07-2019 23:00:00 16.3 C 62.2500 % 9.07 C
3287 03-07-2019 00:00:00 14.80833 C 68.0833 % 8.98 C
3288 03-07-2019 01:00:00 13.23333 C 73.7500 % 8.65 C
3289 03-07-2019 02:00:00 12.30833 C 77.2500 % 8.44 C
3290 03-07-2019 03:00:00 11.475 C 80.5000 % 8.24 C
3291 03-07-2019 04:00:00 10.65 C 83.2500 % 7.93 C
3292 03-07-2019 05:00:00 10.10833 C 85.8333 % 7.85 C
3293 03-07-2019 06:00:00 10.13333 C 88.0000 % 8.24 C
3294 03-07-2019 07:00:00 10.91667 C 88.6667 % 9.12 C
3295 03-07-2019 08:00:00 12.31667 C 86.1667 % 10.07 C
3296 03-07-2019 09:00:00 14.475 C 77.0000 % 10.5 C
3297 03-07-2019 10:00:00 18.01667 C 60.9167 % 10.37 C
3298 03-07-2019 11:00:00 19.95 C 50.8333 % 9.47 C
3299 03-07-2019 12:00:00 20.75833 C 48.7500 % 9.59 C
3300 03-07-2019 13:00:00 21.4 C 46.6667 % 9.52 C
Sensor: Nr:Datum:Temp:Feuchte:Taupunkt:
Aussen-T/F 3301 03-07-2019 14:00:00 21.975 C 46.3333 % 9.94 C
3302 03-07-2019 15:00:00 22.625 C 45.1667 % 10.15 C
3303 03-07-2019 16:00:00 24.44167 C 39.9167 % 9.94 C
3304 03-07-2019 17:00:00 24.56667 C 38.0833 % 9.35 C
3305 03-07-2019 18:00:00 24.70833 C 37.5000 % 9.25 C
3306 03-07-2019 19:00:00 23.79167 C 38.8333 % 8.95 C
3307 03-07-2019 20:00:00 22.35833 C 41.9167 % 8.8 C
3308 03-07-2019 21:00:00 20.40833 C 46.4167 % 8.54 C
3309 03-07-2019 22:00:00 17.54167 C 55.0833 % 8.43 C
3310 03-07-2019 23:00:00 15.46667 C 61.8333 % 8.19 C
3311 04-07-2019 00:00:00 14.2 C 65.9167 % 7.93 C
3312 04-07-2019 01:00:00 13.48333 C 68.0833 % 7.72 C
3313 04-07-2019 02:00:00 12.625 C 71.6667 % 7.65 C
3314 04-07-2019 03:00:00 11.24167 C 77.1667 % 7.39 C
3315 04-07-2019 04:00:00 10.78333 C 79.6667 % 7.42 C
3316 04-07-2019 05:00:00 10.51667 C 81.7500 % 7.53 C
3317 04-07-2019 06:00:00 10.28333 C 83.7500 % 7.66 C
3318 04-07-2019 07:00:00 10.55 C 86.0000 % 8.31 C
3319 04-07-2019 08:00:00 11.76667 C 83.9167 % 9.14 C
3320 04-07-2019 09:00:00 14.4 C 73.1667 % 9.66 C
3321 04-07-2019 10:00:00 18.125 C 56.0833 % 9.24 C
3322 04-07-2019 11:00:00 19.58333 C 49.0833 % 8.61 C
3323 04-07-2019 12:00:00 20.4 C 45.3333 % 8.19 C
3324 04-07-2019 13:00:00 21.63333 C 41.5833 % 8.03 C
3325 04-07-2019 14:00:00 22.71667 C 38.0000 % 7.68 C
Sensor: Nr:Datum:Temp:Feuchte:Taupunkt:
Aussen-T/F 3326 04-07-2019 15:00:00 24.7 C 33.5833 % 7.61 C
3327 04-07-2019 16:00:00 26.80833 C 31.4167 % 8.47 C
3328 04-07-2019 17:00:00 26.9 C 31.9167 % 8.78 C
3329 04-07-2019 18:00:00 27.35 C 30.7500 % 8.62 C
3330 04-07-2019 19:00:00 26.94167 C 31.6667 % 8.7 C
3331 04-07-2019 20:00:00 24.95 C 36.1667 % 8.92 C
3332 04-07-2019 21:00:00 21.60833 C 47.4167 % 9.95 C
3333 04-07-2019 22:00:00 18.56667 C 53.4167 % 8.93 C
3334 04-07-2019 23:00:00 17.39167 C 57.0000 % 8.79 C
3335 05-07-2019 00:00:00 16.41667 C 61.5000 % 9 C
3336 05-07-2019 01:00:00 15.18333 C 65.8333 % 8.84 C
3337 05-07-2019 02:00:00 14.13333 C 69.1667 % 8.57 C
3338 05-07-2019 03:00:00 13.70833 C 73.2500 % 9.01 C
3339 05-07-2019 04:00:00 14.08333 C 73.8333 % 9.49 C
3340 05-07-2019 05:00:00 13.75833 C 74.5833 % 9.33 C
3341 05-07-2019 06:00:00 13.93333 C 76.3333 % 9.84 C
3342 05-07-2019 07:00:00 14.55 C 75.4167 % 10.26 C
3343 05-07-2019 08:00:00 15.8 C 72.5833 % 10.89 C
3344 05-07-2019 09:00:00 17.29167 C 67.5833 % 11.24 C
3345 05-07-2019 10:00:00 20.225 C 58.6667 % 11.87 C
3346 05-07-2019 11:00:00 21.94167 C 53.1667 % 11.98 C
3347 05-07-2019 12:00:00 22.84167 C 50.2500 % 11.95 C
3348 05-07-2019 13:00:00 24.38333 C 45.4167 % 11.83 C
3349 05-07-2019 14:00:00 25.5 C 42.7500 % 11.92 C
3350 05-07-2019 15:00:00 27.45 C 37.8333 % 11.81 C
Sensor: Nr:Datum:Temp:Feuchte:Taupunkt:
Aussen-T/F 3351 05-07-2019 16:00:00 28.91667 C 34.8333 % 11.85 C
3352 05-07-2019 17:00:00 29.6 C 33.7500 % 11.97 C
3353 05-07-2019 18:00:00 29.41667 C 35.0000 % 12.36 C
3354 05-07-2019 19:00:00 27.68333 C 38.6667 % 12.35 C
3355 05-07-2019 20:00:00 26.10833 C 42.6667 % 12.44 C
3356 05-07-2019 21:00:00 23.225 C 52.6667 % 13.02 C
3357 05-07-2019 22:00:00 21.18333 C 58.7500 % 12.79 C
3358 05-07-2019 23:00:00 20.4 C 62.6667 % 13.04 C
3359 06-07-2019 00:00:00 18.45833 C 69.9167 % 12.87 C
3360 06-07-2019 01:00:00 17.60833 C 73.0833 % 12.73 C
3361 06-07-2019 02:00:00 17.05833 C 76.2500 % 12.85 C
3362 06-07-2019 03:00:00 16.875 C 77.5000 % 12.92 C
3363 06-07-2019 04:00:00 16.16667 C 79.6667 % 12.65 C
3364 06-07-2019 05:00:00 15.425 C 81.8333 % 12.34 C
3365 06-07-2019 06:00:00 15.18333 C 84.5833 % 12.61 C
3366 06-07-2019 07:00:00 15.18333 C 85.0833 % 12.7 C
3367 06-07-2019 08:00:00 16.78333 C 81.2500 % 13.55 C
3368 06-07-2019 09:00:00 19.425 C 71.6667 % 14.18 C
3369 06-07-2019 10:00:00 22.16667 C 62.5000 % 14.67 C
3370 06-07-2019 11:00:00 24.41667 C 52.9167 % 14.19 C
3371 06-07-2019 12:00:00 25.48333 C 50.0000 % 14.3 C
3372 06-07-2019 13:00:00 26.84167 C 43.5000 % 13.39 C
3373 06-07-2019 14:00:00 28.7 C 32.0833 % 10.42 C
3374 06-07-2019 15:00:00 30.95833 C 22.5833 % 7.15 C
3375 06-07-2019 16:00:00 29.08333 C 21.6667 % 5 C
Sensor: Nr:Datum:Temp:Feuchte:Taupunkt:
Aussen-T/F 3376 06-07-2019 17:00:00 27.89167 C 28.8333 % 8.14 C
3377 06-07-2019 18:00:00 22.825 C 51.7500 % 12.38 C
3378 06-07-2019 19:00:00 21.60833 C 55.9167 % 12.44 C
3379 06-07-2019 20:00:00 20.35833 C 64.4167 % 13.43 C
3380 06-07-2019 21:00:00 19.75833 C 66.8333 % 13.42 C
3381 06-07-2019 22:00:00 19.86667 C 71.1667 % 14.49 C
3382 06-07-2019 23:00:00 20.35833 C 71.4167 % 15.02 C
3383 07-07-2019 00:00:00 18.93333 C 74.1667 % 14.23 C
3384 07-07-2019 01:00:00 17.88333 C 77.4167 % 13.88 C
3385 07-07-2019 02:00:00 17.33333 C 74.5000 % 12.76 C
3386 07-07-2019 03:00:00 17 C 75.5833 % 12.66 C
3387 07-07-2019 04:00:00 16.825 C 75.8333 % 12.54 C
3388 07-07-2019 05:00:00 16.35 C 79.9167 % 12.88 C
3389 07-07-2019 06:00:00 14.99167 C 89.7500 % 13.32 C
3390 07-07-2019 07:00:00 14.65 C 92.9167 % 13.52 C
3391 07-07-2019 08:00:00 14.28333 C 93.7500 % 13.29 C
3392 07-07-2019 09:00:00 14.78333 C 94.1667 % 13.85 C
3393 07-07-2019 10:00:00 15.38333 C 86.1667 % 13.08 C
3394 07-07-2019 11:00:00 16.50833 C 75.4167 % 12.15 C
3395 07-07-2019 12:00:00 17.73333 C 67.5833 % 11.66 C
3396 07-07-2019 13:00:00 18.5 C 62.4167 % 11.19 C
3397 07-07-2019 14:00:00 19.25833 C 55.6667 % 10.18 C
3398 07-07-2019 15:00:00 20.91667 C 48.5000 % 9.66 C
3399 07-07-2019 16:00:00 21.78333 C 43.6667 % 8.89 C
3400 07-07-2019 17:00:00 21.475 C 44.0833 % 8.75 C
Sensor: Nr:Datum:Temp:Feuchte:Taupunkt:
Aussen-T/F 3401 07-07-2019 18:00:00 21.775 C 44.4167 % 9.13 C
3402 07-07-2019 19:00:00 21.325 C 44.5000 % 8.75 C
3403 07-07-2019 20:00:00 20 C 48.0000 % 8.67 C
3404 07-07-2019 21:00:00 18.65 C 52.5833 % 8.77 C
3405 07-07-2019 22:00:00 15.64167 C 66.2500 % 9.37 C
3406 07-07-2019 23:00:00 13.85 C 73.9167 % 9.28 C
3407 08-07-2019 00:00:00 12.875 C 77.5000 % 9.04 C
3408 08-07-2019 01:00:00 11.89167 C 81.2500 % 8.78 C
3409 08-07-2019 02:00:00 11.05 C 83.7500 % 8.41 C
3410 08-07-2019 03:00:00 10.94167 C 83.5000 % 8.26 C
3411 08-07-2019 04:00:00 10.78333 C 83.9167 % 8.18 C
3412 08-07-2019 05:00:00 9.89167 C 86.7500 % 7.79 C
3413 08-07-2019 06:00:00 9.55833 C 89.5833 % 7.93 C
3414 08-07-2019 07:00:00 9.975 C 91.0000 % 8.58 C
3415 08-07-2019 08:00:00 11.225 C 90.0833 % 9.66 C
3416 08-07-2019 09:00:00 14.18333 C 73.8333 % 9.59 C
3417 08-07-2019 10:00:00 15.65833 C 62.6667 % 8.57 C
3418 08-07-2019 11:00:00 16.14167 C 61.8333 % 8.82 C
3419 08-07-2019 12:00:00 16.68333 C 59.5833 % 8.79 C
3420 08-07-2019 13:00:00 17.05833 C 58.1667 % 8.78 C
3421 08-07-2019 14:00:00 17.33333 C 57.6667 % 8.91 C
3422 08-07-2019 15:00:00 17.49167 C 57.8333 % 9.1 C
3423 08-07-2019 16:00:00 18.025 C 57.0000 % 9.39 C
3424 08-07-2019 17:00:00 18.16667 C 57.1667 % 9.56 C
3425 08-07-2019 18:00:00 18.04167 C 57.2500 % 9.47 C
Sensor: Nr:Datum:Temp:Feuchte:Taupunkt:
Aussen-T/F 3426 08-07-2019 19:00:00 17.75833 C 58.0833 % 9.42 C
3427 08-07-2019 20:00:00 17.69167 C 58.5000 % 9.46 C
3428 08-07-2019 21:00:00 16.26667 C 65.0833 % 9.7 C
3429 08-07-2019 22:00:00 13.975 C 74.8333 % 9.59 C
3430 08-07-2019 23:00:00 14.11667 C 75.4167 % 9.84 C
3431 09-07-2019 00:00:00 13.29167 C 79.3333 % 9.79 C
3432 09-07-2019 01:00:00 12.7 C 81.4167 % 9.6 C
3433 09-07-2019 02:00:00 11.88333 C 83.8333 % 9.24 C
3434 09-07-2019 03:00:00 11.11667 C 87.1667 % 9.07 C
3435 09-07-2019 04:00:00 10.43333 C 88.3333 % 8.59 C
3436 09-07-2019 05:00:00 9.80833 C 90.1667 % 8.28 C
3437 09-07-2019 06:00:00 9.725 C 91.2500 % 8.37 C
3438 09-07-2019 07:00:00 10.91667 C 90.6667 % 9.45 C
3439 09-07-2019 08:00:00 12.98333 C 81.4167 % 9.88 C
3440 09-07-2019 09:00:00 14.2 C 75.8333 % 10 C
3441 09-07-2019 10:00:00 14.9 C 70.6667 % 9.62 C
3442 09-07-2019 11:00:00 16.09167 C 60.4167 % 8.44 C
3443 09-07-2019 12:00:00 16.86667 C 56.6667 % 8.22 C
3444 09-07-2019 13:00:00 17.68333 C 52.4167 % 7.83 C
3445 09-07-2019 14:00:00 18.6 C 49.1667 % 7.74 C
3446 09-07-2019 15:00:00 19.73333 C 45.9167 % 7.77 C
3447 09-07-2019 16:00:00 20.475 C 43.7500 % 7.73 C
3448 09-07-2019 17:00:00 21.725 C 39.5000 % 7.36 C
3449 09-07-2019 18:00:00 21.06667 C 39.7500 % 6.86 C
3450 09-07-2019 19:00:00 20.98333 C 40.7500 % 7.15 C
Sensor: Nr:Datum:Temp:Feuchte:Taupunkt:
Aussen-T/F 3451 09-07-2019 20:00:00 19.525 C 46.5000 % 7.76 C
3452 09-07-2019 21:00:00 17.04167 C 56.8333 % 8.42 C
3453 09-07-2019 22:00:00 14.95 C 62.5000 % 7.86 C
3454 09-07-2019 23:00:00 13.10833 C 71.8333 % 8.15 C
3455 10-07-2019 00:00:00 12.05 C 75.0833 % 7.78 C
3456 10-07-2019 01:00:00 11.01667 C 78.0000 % 7.33 C
3457 10-07-2019 02:00:00 10.01667 C 81.1667 % 6.94 C
3458 10-07-2019 03:00:00 9.05 C 84.6667 % 6.61 C
3459 10-07-2019 04:00:00 8.5 C 87.0000 % 6.46 C
3460 10-07-2019 05:00:00 8.23333 C 88.5833 % 6.46 C
3461 10-07-2019 06:00:00 8.10833 C 89.7500 % 6.53 C
3462 10-07-2019 07:00:00 8.46667 C 90.5833 % 7.02 C
3463 10-07-2019 08:00:00 10 C 90.1667 % 8.46 C
3464 10-07-2019 09:00:00 12.49167 C 81.8333 % 9.48 C
3465 10-07-2019 10:00:00 16.09167 C 68.5000 % 10.3 C
3466 10-07-2019 11:00:00 18.40833 C 54.5833 % 9.1 C
3467 10-07-2019 12:00:00 19.80833 C 42.6667 % 6.77 C
3468 10-07-2019 13:00:00 21.15833 C 35.4167 % 5.28 C
3469 10-07-2019 14:00:00 22.70833 C 30.8333 % 4.65 C
3470 10-07-2019 15:00:00 24.41667 C 28.2500 % 4.87 C
3471 10-07-2019 16:00:00 25.66667 C 26.6667 % 5.11 C
3472 10-07-2019 17:00:00 26.63333 C 25.4167 % 5.24 C
3473 10-07-2019 18:00:00 26.76667 C 25.7500 % 5.54 C
3474 10-07-2019 19:00:00 25.75 C 28.0833 % 5.92 C
3475 10-07-2019 20:00:00 23.525 C 33.6667 % 6.62 C
Sensor: Nr:Datum:Temp:Feuchte:Taupunkt:
Aussen-T/F 3476 10-07-2019 21:00:00 20.74167 C 43.3333 % 7.83 C
3477 10-07-2019 22:00:00 19.21667 C 48.2500 % 8.03 C
3478 10-07-2019 23:00:00 18.9 C 52.0000 % 8.84 C
3479 11-07-2019 00:00:00 19.10833 C 54.4167 % 9.7 C
3480 11-07-2019 01:00:00 17.8 C 61.0833 % 10.21 C
3481 11-07-2019 02:00:00 17.175 C 65.8333 % 10.74 C
3482 11-07-2019 03:00:00 16.875 C 70.1667 % 11.41 C
3483 11-07-2019 04:00:00 16.59167 C 72.6667 % 11.67 C
3484 11-07-2019 05:00:00 16.34167 C 73.1667 % 11.53 C
3485 11-07-2019 06:00:00 16.39167 C 74.2500 % 11.8 C
3486 11-07-2019 07:00:00 17.23333 C 71.7500 % 12.09 C
3487 11-07-2019 08:00:00 17.85833 C 69.0000 % 12.1 C
3488 11-07-2019 09:00:00 18.675 C 68.5000 % 12.77 C
3489 11-07-2019 10:00:00 18.7 C 70.6667 % 13.27 C
3490 11-07-2019 11:00:00 18.9 C 69.5000 % 13.2 C
3491 11-07-2019 12:00:00 17.35 C 81.9167 % 14.23 C
3492 11-07-2019 13:00:00 16.31667 C 90.8333 % 14.82 C
3493 11-07-2019 14:00:00 16.79167 C 92.7500 % 15.61 C
3494 11-07-2019 15:00:00 17.575 C 92.5000 % 16.35 C
3495 11-07-2019 16:00:00 19.11667 C 89.3333 % 17.32 C
3496 11-07-2019 17:00:00 20.88333 C 84.5000 % 18.17 C
3497 11-07-2019 18:00:00 19.50833 C 90.0833 % 17.84 C
3498 11-07-2019 19:00:00 18.3 C 93.0833 % 17.16 C
3499 11-07-2019 20:00:00 18.04167 C 94.0000 % 17.06 C
3500 11-07-2019 21:00:00 17.44167 C 94.0000 % 16.47 C
Sensor: Nr:Datum:Temp:Feuchte:Taupunkt:
Aussen-T/F 3501 11-07-2019 22:00:00 16.85 C 94.9167 % 16.03 C
3502 11-07-2019 23:00:00 16.43333 C 95.0833 % 15.64 C
3503 12-07-2019 00:00:00 16.05 C 96.0000 % 15.41 C
3504 12-07-2019 01:00:00 15.70833 C 96.0000 % 15.07 C
3505 12-07-2019 02:00:00 15.34167 C 96.0000 % 14.71 C
3506 12-07-2019 03:00:00 15.31667 C 96.5000 % 14.76 C
3507 12-07-2019 04:00:00 14.93333 C 96.4167 % 14.37 C
3508 12-07-2019 05:00:00 14.58333 C 97.0000 % 14.11 C
3509 12-07-2019 06:00:00 14.75833 C 97.0000 % 14.29 C
3510 12-07-2019 07:00:00 15.73333 C 97.1667 % 15.29 C
3511 12-07-2019 08:00:00 16.45833 C 97.0833 % 15.99 C
3512 12-07-2019 09:00:00 17.45 C 97.4167 % 17.04 C
3513 12-07-2019 10:00:00 18.78333 C 95.0000 % 17.97 C
3514 12-07-2019 11:00:00 20.325 C 88.7500 % 18.41 C
3515 12-07-2019 12:00:00 19.04167 C 91.7500 % 17.67 C
3516 12-07-2019 13:00:00 17.98333 C 94.2500 % 17.05 C
3517 12-07-2019 14:00:00 17.70833 C 94.1667 % 16.76 C
3518 12-07-2019 15:00:00 19.6 C 89.0833 % 17.75 C
3519 12-07-2019 16:00:00 20.76667 C 86.8333 % 18.49 C
3520 12-07-2019 17:00:00 19.975 C 79.9167 % 16.4 C
3521 12-07-2019 18:00:00 18.30833 C 84.9167 % 15.73 C
3522 12-07-2019 19:00:00 17.55833 C 87.6667 % 15.49 C
3523 12-07-2019 20:00:00 18.23333 C 88.2500 % 16.26 C
3524 12-07-2019 21:00:00 17.63333 C 87.0000 % 15.44 C
3525 12-07-2019 22:00:00 17.3 C 86.2500 % 14.98 C
Sensor: Nr:Datum:Temp:Feuchte:Taupunkt:
Aussen-T/F 3526 12-07-2019 23:00:00 16.55 C 88.3333 % 14.61 C
3527 13-07-2019 00:00:00 16.34167 C 86.6667 % 14.11 C
3528 13-07-2019 01:00:00 16.13333 C 89.9167 % 14.48 C
3529 13-07-2019 02:00:00 15.51667 C 94.0000 % 14.56 C
3530 13-07-2019 03:00:00 15.175 C 94.9167 % 14.37 C
3531 13-07-2019 04:00:00 14.99167 C 95.0833 % 14.21 C
3532 13-07-2019 05:00:00 14.90833 C 96.0000 % 14.28 C
3533 13-07-2019 06:00:00 14.75 C 96.0000 % 14.12 C
3534 13-07-2019 07:00:00 14.93333 C 96.1667 % 14.33 C
3535 13-07-2019 08:00:00 15.61667 C 96.1667 % 15.01 C
3536 13-07-2019 09:00:00 15.83333 C 95.5000 % 15.12 C
3537 13-07-2019 10:00:00 16.5 C 91.0000 % 15.03 C
3538 13-07-2019 11:00:00 17.51667 C 88.3333 % 15.57 C
3539 13-07-2019 12:00:00 18.75833 C 81.5000 % 15.53 C
3540 13-07-2019 13:00:00 19.725 C 75.9167 % 15.36 C
3541 13-07-2019 14:00:00 21.15 C 69.2500 % 15.3 C
3542 13-07-2019 15:00:00 21.18333 C 71.0833 % 15.74 C
3543 13-07-2019 16:00:00 20.90833 C 68.9167 % 14.99 C
3544 13-07-2019 17:00:00 21.84167 C 67.1667 % 15.48 C
3545 13-07-2019 18:00:00 22.38333 C 64.2500 % 15.3 C
3546 13-07-2019 19:00:00 22.70833 C 63.0000 % 15.3 C
3547 13-07-2019 20:00:00 20.45833 C 70.1667 % 14.84 C
3548 13-07-2019 21:00:00 19.2 C 77.2500 % 15.12 C
3549 13-07-2019 22:00:00 18.225 C 85.0833 % 15.68 C
3550 13-07-2019 23:00:00 17.21667 C 89.5833 % 15.49 C
Sensor: Nr:Datum:Temp:Feuchte:Taupunkt:
Aussen-T/F 3551 14-07-2019 00:00:00 16.95 C 89.7500 % 15.26 C
3552 14-07-2019 01:00:00 16.975 C 88.5833 % 15.08 C
3553 14-07-2019 02:00:00 16.35833 C 89.6667 % 14.66 C
3554 14-07-2019 03:00:00 15.44167 C 90.9167 % 13.97 C
3555 14-07-2019 04:00:00 15.11667 C 90.9167 % 13.64 C
3556 14-07-2019 05:00:00 14.85 C 90.2500 % 13.27 C
3557 14-07-2019 06:00:00 14.71667 C 90.9167 % 13.25 C
3558 14-07-2019 07:00:00 14.86667 C 86.8333 % 12.69 C
3559 14-07-2019 08:00:00 15.40833 C 85.3333 % 12.96 C
3560 14-07-2019 09:00:00 15.26667 C 84.1667 % 12.61 C
3561 14-07-2019 10:00:00 16.00833 C 77.7500 % 12.13 C
3562 14-07-2019 11:00:00 16.83333 C 73.1667 % 12 C
3563 14-07-2019 12:00:00 17.53333 C 69.4167 % 11.88 C
3564 14-07-2019 13:00:00 17.80833 C 66.8333 % 11.57 C
3565 14-07-2019 14:00:00 18.19167 C 64.3333 % 11.35 C
3566 14-07-2019 15:00:00 18.925 C 61.0833 % 11.26 C
3567 14-07-2019 16:00:00 19.33333 C 58.8333 % 11.08 C
3568 14-07-2019 17:00:00 19.34167 C 58.5833 % 11.03 C
3569 14-07-2019 18:00:00 18.65833 C 61.8333 % 11.2 C
3570 14-07-2019 19:00:00 18.36667 C 62.0000 % 10.96 C
3571 14-07-2019 20:00:00 17.89167 C 66.0000 % 11.46 C
3572 14-07-2019 21:00:00 17.45 C 67.4167 % 11.36 C
3573 14-07-2019 22:00:00 17.125 C 68.0833 % 11.19 C
3574 14-07-2019 23:00:00 16.8 C 71.0833 % 11.53 C
3575 15-07-2019 00:00:00 16.06667 C 76.7500 % 11.99 C
Sensor: Nr:Datum:Temp:Feuchte:Taupunkt:
Aussen-T/F 3576 15-07-2019 01:00:00 15.63333 C 78.7500 % 11.96 C
3577 15-07-2019 02:00:00 15.55833 C 80.3333 % 12.19 C
3578 15-07-2019 03:00:00 14.99167 C 83.5000 % 12.22 C
3579 15-07-2019 04:00:00 15.30833 C 78.2500 % 11.55 C
3580 15-07-2019 05:00:00 15.65 C 74.4167 % 11.12 C
3581 15-07-2019 06:00:00 15.6 C 74.1667 % 11.02 C
3582 15-07-2019 07:00:00 15.69167 C 74.0000 % 11.07 C
3583 15-07-2019 08:00:00 15.83333 C 74.0833 % 11.23 C
3584 15-07-2019 09:00:00 16.53333 C 71.4167 % 11.35 C
3585 15-07-2019 10:00:00 16.8 C 72.1667 % 11.76 C
3586 15-07-2019 11:00:00 16.84167 C 74.4167 % 12.27 C
3587 15-07-2019 12:00:00 17.10833 C 72.8333 % 12.2 C
3588 15-07-2019 13:00:00 17.49167 C 69.7500 % 11.91 C
3589 15-07-2019 14:00:00 18.09167 C 66.3333 % 11.72 C
3590 15-07-2019 15:00:00 17.68333 C 67.9167 % 11.69 C
3591 15-07-2019 16:00:00 17.11667 C 70.5000 % 11.71 C
3592 15-07-2019 17:00:00 16.775 C 71.6667 % 11.63 C
3593 15-07-2019 18:00:00 16.69167 C 71.5833 % 11.54 C
3594 15-07-2019 19:00:00 16.78333 C 71.0000 % 11.5 C
3595 15-07-2019 20:00:00 16.69167 C 71.0833 % 11.43 C
3596 15-07-2019 21:00:00 16.34167 C 73.9167 % 11.68 C
3597 15-07-2019 22:00:00 15.61667 C 79.5000 % 12.09 C
3598 15-07-2019 23:00:00 15.44167 C 77.2500 % 11.48 C
3599 16-07-2019 00:00:00 14.75 C 79.8333 % 11.31 C
3600 16-07-2019 01:00:00 13.675 C 80.3333 % 10.35 C
Sensor: Nr:Datum:Temp:Feuchte:Taupunkt:
Aussen-T/F 3601 16-07-2019 02:00:00 12.23333 C 85.5000 % 9.88 C
3602 16-07-2019 03:00:00 10.9 C 90.2500 % 9.37 C
3603 16-07-2019 04:00:00 10.28333 C 92.2500 % 9.08 C
3604 16-07-2019 05:00:00 9.98333 C 93.1667 % 8.93 C
3605 16-07-2019 06:00:00 10.125 C 94.4167 % 9.27 C
3606 16-07-2019 07:00:00 11.01667 C 93.7500 % 10.05 C
3607 16-07-2019 08:00:00 12.625 C 90.7500 % 11.15 C
3608 16-07-2019 09:00:00 14.58333 C 84.1667 % 11.94 C
3609 16-07-2019 10:00:00 15.51667 C 77.5000 % 11.6 C
3610 16-07-2019 11:00:00 15.99167 C 74.6667 % 11.5 C
3611 16-07-2019 12:00:00 16.725 C 71.8333 % 11.62 C
3612 16-07-2019 13:00:00 17.40833 C 69.4167 % 11.76 C
3613 16-07-2019 14:00:00 18.38333 C 66.5000 % 12.04 C
3614 16-07-2019 15:00:00 20.325 C 60.9167 % 12.54 C
3615 16-07-2019 16:00:00 22.31667 C 54.8333 % 12.8 C
3616 16-07-2019 17:00:00 22.8 C 53.0833 % 12.75 C
3617 16-07-2019 18:00:00 23.075 C 52.0000 % 12.69 C
3618 16-07-2019 19:00:00 22.125 C 54.1667 % 12.43 C
3619 16-07-2019 20:00:00 20.81667 C 58.3333 % 12.34 C
3620 16-07-2019 21:00:00 18.30833 C 70.1667 % 12.78 C
3621 16-07-2019 22:00:00 15.85 C 78.8333 % 12.18 C
3622 16-07-2019 23:00:00 15.08333 C 81.7500 % 11.99 C
3623 17-07-2019 00:00:00 14.09167 C 84.3333 % 11.49 C
3624 17-07-2019 01:00:00 13.08333 C 88.2500 % 11.19 C
3625 17-07-2019 02:00:00 12.40833 C 89.7500 % 10.77 C
Sensor: Nr:Datum:Temp:Feuchte:Taupunkt:
Aussen-T/F 3626 17-07-2019 03:00:00 11.64167 C 91.5833 % 10.32 C
3627 17-07-2019 04:00:00 11.225 C 92.8333 % 10.11 C
3628 17-07-2019 05:00:00 10.83333 C 93.7500 % 9.87 C
3629 17-07-2019 06:00:00 10.74167 C 94.5000 % 9.9 C
3630 17-07-2019 07:00:00 11.51667 C 95.0833 % 10.76 C
3631 17-07-2019 08:00:00 12.79167 C 94.5000 % 11.93 C
3632 17-07-2019 09:00:00 14.85833 C 88.5833 % 12.99 C
3633 17-07-2019 10:00:00 17.23333 C 77.4167 % 13.25 C
3634 17-07-2019 11:00:00 18.58333 C 71.6667 % 13.37 C
3635 17-07-2019 12:00:00 19.39167 C 68.7500 % 13.51 C
3636 17-07-2019 13:00:00 20.5 C 62.9167 % 13.2 C
3637 17-07-2019 14:00:00 21.69167 C 58.9167 % 13.31 C
3638 17-07-2019 15:00:00 22.69167 C 58.0000 % 14.01 C
3639 17-07-2019 16:00:00 23.675 C 54.9167 % 14.08 C
3640 17-07-2019 17:00:00 24.575 C 53.0000 % 14.36 C
3641 17-07-2019 18:00:00 24.24167 C 54.1667 % 14.39 C
3642 17-07-2019 19:00:00 23.20833 C 58.5000 % 14.62 C
3643 17-07-2019 20:00:00 21.525 C 64.2500 % 14.49 C
3644 17-07-2019 21:00:00 19.69167 C 70.6667 % 14.22 C
3645 17-07-2019 22:00:00 17.05 C 80.0000 % 13.58 C
3646 17-07-2019 23:00:00 16.025 C 84.5000 % 13.41 C
3647 18-07-2019 00:00:00 15.29167 C 86.0833 % 12.98 C
3648 18-07-2019 01:00:00 14.29167 C 88.5000 % 12.42 C
3649 18-07-2019 02:00:00 13.69167 C 91.2500 % 12.29 C
3650 18-07-2019 03:00:00 13.45833 C 92.2500 % 12.23 C
Sensor: Nr:Datum:Temp:Feuchte:Taupunkt:
Aussen-T/F 3651 18-07-2019 04:00:00 13.24167 C 92.9167 % 12.12 C
3652 18-07-2019 05:00:00 12.675 C 93.0833 % 11.59 C
3653 18-07-2019 06:00:00 12.45833 C 94.3333 % 11.57 C
3654 18-07-2019 07:00:00 13.25833 C 95.0000 % 12.48 C
3655 18-07-2019 08:00:00 14.31667 C 93.1667 % 13.23 C
3656 18-07-2019 09:00:00 16.21667 C 89.0833 % 14.42 C
3657 18-07-2019 10:00:00 18.83333 C 81.3333 % 15.57 C
3658 18-07-2019 11:00:00 21.89167 C 64.4167 % 14.88 C
3659 18-07-2019 12:00:00 24.18333 C 54.1667 % 14.34 C
3660 18-07-2019 13:00:00 25.71667 C 49.0833 % 14.23 C
3661 18-07-2019 14:00:00 27.20833 C 41.0833 % 12.85 C
3662 18-07-2019 15:00:00 26.04167 C 44.9167 % 13.16 C
3663 18-07-2019 16:00:00 24.76667 C 52.4167 % 14.37 C
3664 18-07-2019 17:00:00 24.84167 C 56.0833 % 15.49 C
3665 18-07-2019 18:00:00 23.975 C 62.7500 % 16.44 C
3666 18-07-2019 19:00:00 21.06667 C 74.2500 % 16.31 C
3667 18-07-2019 20:00:00 20.86667 C 70.0000 % 15.19 C
3668 18-07-2019 21:00:00 20.35 C 69.0833 % 14.49 C
3669 18-07-2019 22:00:00 19.66667 C 71.6667 % 14.41 C
3670 18-07-2019 23:00:00 19.35833 C 72.5000 % 14.29 C
3671 19-07-2019 00:00:00 19.33333 C 74.0833 % 14.6 C
3672 19-07-2019 01:00:00 18.45833 C 82.4167 % 15.41 C
3673 19-07-2019 02:00:00 17.05833 C 89.9167 % 15.39 C
3674 19-07-2019 03:00:00 16.60833 C 92.3333 % 15.36 C
3675 19-07-2019 04:00:00 16.375 C 93.4167 % 15.31 C
Sensor: Nr:Datum:Temp:Feuchte:Taupunkt:
Aussen-T/F 3676 19-07-2019 05:00:00 16.3 C 94.1667 % 15.36 C
3677 19-07-2019 06:00:00 16.35 C 95.0000 % 15.55 C
3678 19-07-2019 07:00:00 16.7 C 95.2500 % 15.94 C
3679 19-07-2019 08:00:00 17.23333 C 96.0000 % 16.59 C
3680 19-07-2019 09:00:00 18.025 C 94.8333 % 17.18 C
3681 19-07-2019 10:00:00 19.275 C 90.3333 % 17.65 C
3682 19-07-2019 11:00:00 20.475 C 83.6667 % 17.62 C
3683 19-07-2019 12:00:00 20.04167 C 86.1667 % 17.66 C
3684 19-07-2019 13:00:00 21.975 C 74.8333 % 17.31 C
3685 19-07-2019 14:00:00 23.525 C 60.9167 % 15.55 C
3686 19-07-2019 15:00:00 24.875 C 52.8333 % 14.59 C
3687 19-07-2019 16:00:00 25.21667 C 50.5833 % 14.23 C
3688 19-07-2019 17:00:00 25.91667 C 49.5833 % 14.57 C
3689 19-07-2019 18:00:00 25.43333 C 51.0833 % 14.59 C
3690 19-07-2019 19:00:00 24.78333 C 60.1667 % 16.54 C
3691 19-07-2019 20:00:00 23.25833 C 64.2500 % 16.13 C
3692 19-07-2019 21:00:00 20.90833 C 71.5833 % 15.58 C
3693 19-07-2019 22:00:00 19.20833 C 79.0833 % 15.5 C
3694 19-07-2019 23:00:00 18.525 C 82.9167 % 15.57 C
3695 20-07-2019 00:00:00 17.39167 C 86.1667 % 15.06 C
3696 20-07-2019 01:00:00 16.6 C 88.2500 % 14.65 C
3697 20-07-2019 02:00:00 15.74167 C 90.5000 % 14.19 C
3698 20-07-2019 03:00:00 15.025 C 92.4167 % 13.81 C
3699 20-07-2019 04:00:00 14.55833 C 93.4167 % 13.51 C
3700 20-07-2019 05:00:00 14.18333 C 94.0833 % 13.25 C
Sensor: Nr:Datum:Temp:Feuchte:Taupunkt:
Aussen-T/F 3701 20-07-2019 06:00:00 13.96667 C 94.9167 % 13.17 C
3702 20-07-2019 07:00:00 14.56667 C 95.7500 % 13.9 C
3703 20-07-2019 08:00:00 15.86667 C 96.0000 % 15.23 C
3704 20-07-2019 09:00:00 17.73333 C 94.8333 % 16.89 C
3705 20-07-2019 10:00:00 21.4 C 87.2500 % 19.19 C
3706 20-07-2019 11:00:00 25.8 C 63.2500 % 18.28 C
3707 20-07-2019 12:00:00 27.775 C 51.4167 % 16.84 C
3708 20-07-2019 13:00:00 28.175 C 50.5000 % 16.92 C
3709 20-07-2019 14:00:00 30.04167 C 45.4167 % 16.95 C
3710 20-07-2019 15:00:00 30.8 C 43.7500 % 17.04 C
3711 20-07-2019 16:00:00 28.94167 C 64.4167 % 21.55 C
3712 20-07-2019 17:00:00 28.35 C 60.9167 % 20.08 C
3713 20-07-2019 18:00:00 28.925 C 49.3333 % 17.24 C
3714 20-07-2019 19:00:00 27.50833 C 53.5833 % 17.25 C
3715 20-07-2019 20:00:00 23.425 C 69.5833 % 17.55 C
3716 20-07-2019 21:00:00 21.725 C 76.0833 % 17.33 C
3717 20-07-2019 22:00:00 20.56667 C 80.0833 % 17.01 C
3718 20-07-2019 23:00:00 19.75 C 83.5833 % 16.89 C
3719 21-07-2019 00:00:00 19.08333 C 85.6667 % 16.63 C
3720 21-07-2019 01:00:00 18.58333 C 87.9167 % 16.54 C
3721 21-07-2019 02:00:00 18.875 C 87.7500 % 16.8 C
3722 21-07-2019 03:00:00 18.65 C 88.6667 % 16.74 C
3723 21-07-2019 04:00:00 17.95 C 89.3333 % 16.17 C
3724 21-07-2019 05:00:00 17.46667 C 91.1667 % 16.01 C
3725 21-07-2019 06:00:00 17.73333 C 91.6667 % 16.36 C
Sensor: Nr:Datum:Temp:Feuchte:Taupunkt:
Aussen-T/F 3726 21-07-2019 07:00:00 18.5 C 89.1667 % 16.68 C
3727 21-07-2019 08:00:00 19.34167 C 80.4167 % 15.89 C
3728 21-07-2019 09:00:00 20.30833 C 74.0000 % 15.52 C
3729 21-07-2019 10:00:00 21.85833 C 66.2500 % 15.28 C
3730 21-07-2019 11:00:00 23.79167 C 53.8333 % 13.88 C
3731 21-07-2019 12:00:00 24.96667 C 51.0833 % 14.16 C
3732 21-07-2019 13:00:00 24.95833 C 53.2500 % 14.79 C
3733 21-07-2019 14:00:00 26.01667 C 51.0833 % 15.12 C
3734 21-07-2019 15:00:00 26.84167 C 48.3333 % 15.02 C
3735 21-07-2019 16:00:00 27.76667 C 45.9167 % 15.06 C
3736 21-07-2019 17:00:00 27.275 C 47.5833 % 15.17 C
3737 21-07-2019 18:00:00 26.44167 C 49.2500 % 14.94 C
3738 21-07-2019 19:00:00 25.40833 C 52.1667 % 14.89 C
3739 21-07-2019 20:00:00 24.4 C 54.8333 % 14.73 C
3740 21-07-2019 21:00:00 22.64167 C 61.1667 % 14.78 C
3741 21-07-2019 22:00:00 19.85 C 71.5000 % 14.55 C
3742 21-07-2019 23:00:00 18.35 C 78.1667 % 14.48 C
3743 22-07-2019 00:00:00 17.075 C 81.0833 % 13.81 C
3744 22-07-2019 01:00:00 16.15833 C 84.1667 % 13.48 C
3745 22-07-2019 02:00:00 15.64167 C 87.4167 % 13.56 C
3746 22-07-2019 03:00:00 15.33333 C 88.3333 % 13.42 C
3747 22-07-2019 04:00:00 14.74167 C 89.5000 % 13.03 C
3748 22-07-2019 05:00:00 14.3 C 90.9167 % 12.84 C
3749 22-07-2019 06:00:00 14.175 C 91.8333 % 12.87 C
3750 22-07-2019 07:00:00 14.725 C 92.7500 % 13.56 C
Sensor: Nr:Datum:Temp:Feuchte:Taupunkt:
Aussen-T/F 3751 22-07-2019 08:00:00 16.28333 C 89.2500 % 14.51 C
3752 22-07-2019 09:00:00 18.20833 C 83.9167 % 15.45 C
3753 22-07-2019 10:00:00 20.80833 C 74.2500 % 16.06 C
3754 22-07-2019 11:00:00 24.00833 C 58.0000 % 15.24 C
3755 22-07-2019 12:00:00 25.55833 C 52.5833 % 15.15 C
3756 22-07-2019 13:00:00 26.41667 C 50.1667 % 15.21 C
3757 22-07-2019 14:00:00 27.775 C 45.7500 % 15.01 C
3758 22-07-2019 15:00:00 29.05 C 43.0833 % 15.23 C
3759 22-07-2019 16:00:00 30.80833 C 38.7500 % 15.15 C
3760 22-07-2019 17:00:00 31.51667 C 36.8333 % 14.99 C
3761 22-07-2019 18:00:00 32.31667 C 35.3333 % 15.04 C
3762 22-07-2019 19:00:00 31.475 C 36.3333 % 14.74 C
3763 22-07-2019 20:00:00 29.425 C 42.9167 % 15.51 C
3764 22-07-2019 21:00:00 25.59167 C 56.5000 % 16.3 C
3765 22-07-